<?xml version="1.0" encoding="UTF-8" standalone="no" ?>
<gpx xmlns="http://www.topografix.com/GPX/1/1" xmlns:xsi="http://www.w3.org/2001/XMLSchema-instance" xsi:schemaLocation="http://www.topografix.com/GPX/1/1 http://www.topografix.com/GPX/1/1/gpx.xsd" version="1.1" creator="VisuGPX - https://www.visugpx.com">
  <metadata>
    <name>Vaugneray</name>
    <desc><![CDATA[boucle vtt au départ de Vaugneray]]></desc>
  </metadata>
  <trk>
    <name><![CDATA[MDL]]></name>
    <cmt><![CDATA[avec bernard et lionel subrin - brouillard  - un peu glissant mais tout passe!]]></cmt>
    <trkseg>
      <trkpt lat="45.7394" lon="4.65703">
        <ele>427.21301269531</ele>
        <time>2011-11-11T07:32:04Z</time>
      </trkpt>
      <trkpt lat="45.73943" lon="4.65699">
        <ele>427.22799682617</ele>
        <time>2011-11-11T07:32:07Z</time>
      </trkpt>
      <trkpt lat="45.73951" lon="4.65692">
        <ele>428.38198852539</ele>
        <time>2011-11-11T07:32:14Z</time>
      </trkpt>
      <trkpt lat="45.7396" lon="4.65681">
        <ele>429.11801147461</ele>
        <time>2011-11-11T07:32:24Z</time>
      </trkpt>
      <trkpt lat="45.73976" lon="4.65673">
        <ele>430.33700561523</ele>
        <time>2011-11-11T07:32:33Z</time>
      </trkpt>
      <trkpt lat="45.73988" lon="4.65669">
        <ele>431.57000732422</ele>
        <time>2011-11-11T07:32:39Z</time>
      </trkpt>
      <trkpt lat="45.74" lon="4.65663">
        <ele>433.12600708008</ele>
        <time>2011-11-11T07:32:46Z</time>
      </trkpt>
      <trkpt lat="45.7401" lon="4.65655">
        <ele>434.71701049805</ele>
        <time>2011-11-11T07:32:53Z</time>
      </trkpt>
      <trkpt lat="45.7402" lon="4.65643">
        <ele>435.95901489258</ele>
        <time>2011-11-11T07:33:01Z</time>
      </trkpt>
      <trkpt lat="45.74031" lon="4.65631">
        <ele>437.15798950195</ele>
        <time>2011-11-11T07:33:09Z</time>
      </trkpt>
      <trkpt lat="45.7404" lon="4.65615">
        <ele>438.3450012207</ele>
        <time>2011-11-11T07:33:18Z</time>
      </trkpt>
      <trkpt lat="45.74048" lon="4.65598">
        <ele>439.73001098633</ele>
        <time>2011-11-11T07:33:27Z</time>
      </trkpt>
      <trkpt lat="45.74054" lon="4.65599">
        <ele>440.48599243164</ele>
        <time>2011-11-11T07:33:32Z</time>
      </trkpt>
      <trkpt lat="45.74055" lon="4.656">
        <ele>440.57800292969</ele>
        <time>2011-11-11T07:33:33Z</time>
      </trkpt>
      <trkpt lat="45.74065" lon="4.65596">
        <ele>441.99398803711</ele>
        <time>2011-11-11T07:33:40Z</time>
      </trkpt>
      <trkpt lat="45.74067" lon="4.65593">
        <ele>442.6669921875</ele>
        <time>2011-11-11T07:33:42Z</time>
      </trkpt>
      <trkpt lat="45.74073" lon="4.65581">
        <ele>444.64898681641</ele>
        <time>2011-11-11T07:33:50Z</time>
      </trkpt>
      <trkpt lat="45.74084" lon="4.65574">
        <ele>446.09298706055</ele>
        <time>2011-11-11T07:33:57Z</time>
      </trkpt>
      <trkpt lat="45.74095" lon="4.65578">
        <ele>447.61801147461</ele>
        <time>2011-11-11T07:34:03Z</time>
      </trkpt>
      <trkpt lat="45.74105" lon="4.65587">
        <ele>449.17300415039</ele>
        <time>2011-11-11T07:34:10Z</time>
      </trkpt>
      <trkpt lat="45.74114" lon="4.65596">
        <ele>450.3210144043</ele>
        <time>2011-11-11T07:34:17Z</time>
      </trkpt>
      <trkpt lat="45.74126" lon="4.65604">
        <ele>451.87298583984</ele>
        <time>2011-11-11T07:34:24Z</time>
      </trkpt>
      <trkpt lat="45.74137" lon="4.65611">
        <ele>453.69400024414</ele>
        <time>2011-11-11T07:34:32Z</time>
      </trkpt>
      <trkpt lat="45.74139" lon="4.65612">
        <ele>453.79098510742</ele>
        <time>2011-11-11T07:34:33Z</time>
      </trkpt>
      <trkpt lat="45.74146" lon="4.65619">
        <ele>455.00201416016</ele>
        <time>2011-11-11T07:34:38Z</time>
      </trkpt>
      <trkpt lat="45.74157" lon="4.65626">
        <ele>456.78100585938</ele>
        <time>2011-11-11T07:34:46Z</time>
      </trkpt>
      <trkpt lat="45.74161" lon="4.65631">
        <ele>457.51800537109</ele>
        <time>2011-11-11T07:34:51Z</time>
      </trkpt>
      <trkpt lat="45.74171" lon="4.65638">
        <ele>458.82901000977</ele>
        <time>2011-11-11T07:35:00Z</time>
      </trkpt>
      <trkpt lat="45.74181" lon="4.65646">
        <ele>459.77899169922</ele>
        <time>2011-11-11T07:35:07Z</time>
      </trkpt>
      <trkpt lat="45.74192" lon="4.65653">
        <ele>461.40600585938</ele>
        <time>2011-11-11T07:35:14Z</time>
      </trkpt>
      <trkpt lat="45.74202" lon="4.65661">
        <ele>463.45700073242</ele>
        <time>2011-11-11T07:35:22Z</time>
      </trkpt>
      <trkpt lat="45.74211" lon="4.65667">
        <ele>465.04098510742</ele>
        <time>2011-11-11T07:35:28Z</time>
      </trkpt>
      <trkpt lat="45.74224" lon="4.65677">
        <ele>467.25500488281</ele>
        <time>2011-11-11T07:35:37Z</time>
      </trkpt>
      <trkpt lat="45.74235" lon="4.6568">
        <ele>468.54299926758</ele>
        <time>2011-11-11T07:35:44Z</time>
      </trkpt>
      <trkpt lat="45.74247" lon="4.65678">
        <ele>470.20401000977</ele>
        <time>2011-11-11T07:35:52Z</time>
      </trkpt>
      <trkpt lat="45.74258" lon="4.6568">
        <ele>471.64801025391</ele>
        <time>2011-11-11T07:35:59Z</time>
      </trkpt>
      <trkpt lat="45.7427" lon="4.65681">
        <ele>473.09399414062</ele>
        <time>2011-11-11T07:36:07Z</time>
      </trkpt>
      <trkpt lat="45.7428" lon="4.65683">
        <ele>474.39300537109</ele>
        <time>2011-11-11T07:36:14Z</time>
      </trkpt>
      <trkpt lat="45.74289" lon="4.65684">
        <ele>475.30200195312</ele>
        <time>2011-11-11T07:36:20Z</time>
      </trkpt>
      <trkpt lat="45.74303" lon="4.65688">
        <ele>476.46899414062</ele>
        <time>2011-11-11T07:36:28Z</time>
      </trkpt>
      <trkpt lat="45.74313" lon="4.65692">
        <ele>477.65399169922</ele>
        <time>2011-11-11T07:36:35Z</time>
      </trkpt>
      <trkpt lat="45.74315" lon="4.65692">
        <ele>477.74700927734</ele>
        <time>2011-11-11T07:36:36Z</time>
      </trkpt>
      <trkpt lat="45.74333" lon="4.65698">
        <ele>478.18301391602</ele>
        <time>2011-11-11T07:36:46Z</time>
      </trkpt>
      <trkpt lat="45.74352" lon="4.65702">
        <ele>477.89498901367</ele>
        <time>2011-11-11T07:36:53Z</time>
      </trkpt>
      <trkpt lat="45.74359" lon="4.65704">
        <ele>477.66799926758</ele>
        <time>2011-11-11T07:36:55Z</time>
      </trkpt>
      <trkpt lat="45.74379" lon="4.65696">
        <ele>476.72698974609</ele>
        <time>2011-11-11T07:37:00Z</time>
      </trkpt>
      <trkpt lat="45.74383" lon="4.65692">
        <ele>476.51901245117</ele>
        <time>2011-11-11T07:37:01Z</time>
      </trkpt>
      <trkpt lat="45.74404" lon="4.65664">
        <ele>476.37701416016</ele>
        <time>2011-11-11T07:37:10Z</time>
      </trkpt>
      <trkpt lat="45.74422" lon="4.65639">
        <ele>476.65100097656</ele>
        <time>2011-11-11T07:37:18Z</time>
      </trkpt>
      <trkpt lat="45.74441" lon="4.6561">
        <ele>477.07598876953</ele>
        <time>2011-11-11T07:37:27Z</time>
      </trkpt>
      <trkpt lat="45.74462" lon="4.65575">
        <ele>477.86199951172</ele>
        <time>2011-11-11T07:37:37Z</time>
      </trkpt>
      <trkpt lat="45.74474" lon="4.65548">
        <ele>478.41299438477</ele>
        <time>2011-11-11T07:37:45Z</time>
      </trkpt>
      <trkpt lat="45.74486" lon="4.65526">
        <ele>480.18200683594</ele>
        <time>2011-11-11T07:37:52Z</time>
      </trkpt>
      <trkpt lat="45.74502" lon="4.65493">
        <ele>481.24301147461</ele>
        <time>2011-11-11T07:38:02Z</time>
      </trkpt>
      <trkpt lat="45.74517" lon="4.6547">
        <ele>481.89199829102</ele>
        <time>2011-11-11T07:38:10Z</time>
      </trkpt>
      <trkpt lat="45.74535" lon="4.65437">
        <ele>483.69100952148</ele>
        <time>2011-11-11T07:38:21Z</time>
      </trkpt>
      <trkpt lat="45.74551" lon="4.65412">
        <ele>484.50799560547</ele>
        <time>2011-11-11T07:38:30Z</time>
      </trkpt>
      <trkpt lat="45.74565" lon="4.65388">
        <ele>485.61599731445</ele>
        <time>2011-11-11T07:38:38Z</time>
      </trkpt>
      <trkpt lat="45.74583" lon="4.65358">
        <ele>485.89199829102</ele>
        <time>2011-11-11T07:38:47Z</time>
      </trkpt>
      <trkpt lat="45.74596" lon="4.65337">
        <ele>486.05200195312</ele>
        <time>2011-11-11T07:38:53Z</time>
      </trkpt>
      <trkpt lat="45.74602" lon="4.6531">
        <ele>486.35900878906</ele>
        <time>2011-11-11T07:38:59Z</time>
      </trkpt>
      <trkpt lat="45.74607" lon="4.65282">
        <ele>487.23199462891</ele>
        <time>2011-11-11T07:39:06Z</time>
      </trkpt>
      <trkpt lat="45.74613" lon="4.65255">
        <ele>488.1130065918</ele>
        <time>2011-11-11T07:39:13Z</time>
      </trkpt>
      <trkpt lat="45.74617" lon="4.65231">
        <ele>489.2380065918</ele>
        <time>2011-11-11T07:39:21Z</time>
      </trkpt>
      <trkpt lat="45.74619" lon="4.65215">
        <ele>490.34899902344</ele>
        <time>2011-11-11T07:39:27Z</time>
      </trkpt>
      <trkpt lat="45.7462" lon="4.65193">
        <ele>491.94100952148</ele>
        <time>2011-11-11T07:39:35Z</time>
      </trkpt>
      <trkpt lat="45.74621" lon="4.65174">
        <ele>494.54501342773</ele>
        <time>2011-11-11T07:39:43Z</time>
      </trkpt>
      <trkpt lat="45.74621" lon="4.65157">
        <ele>496.35998535156</ele>
        <time>2011-11-11T07:39:50Z</time>
      </trkpt>
      <trkpt lat="45.74623" lon="4.65136">
        <ele>498.28298950195</ele>
        <time>2011-11-11T07:39:58Z</time>
      </trkpt>
      <trkpt lat="45.74624" lon="4.65118">
        <ele>500.31201171875</ele>
        <time>2011-11-11T07:40:05Z</time>
      </trkpt>
      <trkpt lat="45.74624" lon="4.65098">
        <ele>501.4469909668</ele>
        <time>2011-11-11T07:40:12Z</time>
      </trkpt>
      <trkpt lat="45.74627" lon="4.6507">
        <ele>502.3030090332</ele>
        <time>2011-11-11T07:40:21Z</time>
      </trkpt>
      <trkpt lat="45.74629" lon="4.65048">
        <ele>503.11999511719</ele>
        <time>2011-11-11T07:40:28Z</time>
      </trkpt>
      <trkpt lat="45.74632" lon="4.6502">
        <ele>504.02700805664</ele>
        <time>2011-11-11T07:40:37Z</time>
      </trkpt>
      <trkpt lat="45.74638" lon="4.64993">
        <ele>505.32000732422</ele>
        <time>2011-11-11T07:40:46Z</time>
      </trkpt>
      <trkpt lat="45.74643" lon="4.64975">
        <ele>506.55999755859</ele>
        <time>2011-11-11T07:40:53Z</time>
      </trkpt>
      <trkpt lat="45.74647" lon="4.64958">
        <ele>507.90100097656</ele>
        <time>2011-11-11T07:40:59Z</time>
      </trkpt>
      <trkpt lat="45.74653" lon="4.64937">
        <ele>508.80999755859</ele>
        <time>2011-11-11T07:41:07Z</time>
      </trkpt>
      <trkpt lat="45.7466" lon="4.6491">
        <ele>509.98098754883</ele>
        <time>2011-11-11T07:41:16Z</time>
      </trkpt>
      <trkpt lat="45.74665" lon="4.64893">
        <ele>510.51400756836</ele>
        <time>2011-11-11T07:41:22Z</time>
      </trkpt>
      <trkpt lat="45.7467" lon="4.64869">
        <ele>511.83801269531</ele>
        <time>2011-11-11T07:41:30Z</time>
      </trkpt>
      <trkpt lat="45.74675" lon="4.64848">
        <ele>513.56701660156</ele>
        <time>2011-11-11T07:41:38Z</time>
      </trkpt>
      <trkpt lat="45.74677" lon="4.64828">
        <ele>515.08502197266</ele>
        <time>2011-11-11T07:41:46Z</time>
      </trkpt>
      <trkpt lat="45.74676" lon="4.64826">
        <ele>515.35101318359</ele>
        <time>2011-11-11T07:41:47Z</time>
      </trkpt>
      <trkpt lat="45.74667" lon="4.64811">
        <ele>517.88500976562</ele>
        <time>2011-11-11T07:41:56Z</time>
      </trkpt>
      <trkpt lat="45.74666" lon="4.6481">
        <ele>518.18103027344</ele>
        <time>2011-11-11T07:41:57Z</time>
      </trkpt>
      <trkpt lat="45.74653" lon="4.64799">
        <ele>520.63897705078</ele>
        <time>2011-11-11T07:42:07Z</time>
      </trkpt>
      <trkpt lat="45.74641" lon="4.64788">
        <ele>522.72399902344</ele>
        <time>2011-11-11T07:42:16Z</time>
      </trkpt>
      <trkpt lat="45.7463" lon="4.64776">
        <ele>524.40997314453</ele>
        <time>2011-11-11T07:42:25Z</time>
      </trkpt>
      <trkpt lat="45.7462" lon="4.64764">
        <ele>526.33697509766</ele>
        <time>2011-11-11T07:42:34Z</time>
      </trkpt>
      <trkpt lat="45.74615" lon="4.64757">
        <ele>527.34399414062</ele>
        <time>2011-11-11T07:42:39Z</time>
      </trkpt>
      <trkpt lat="45.74605" lon="4.64747">
        <ele>529.34600830078</ele>
        <time>2011-11-11T07:42:47Z</time>
      </trkpt>
      <trkpt lat="45.74594" lon="4.64737">
        <ele>530.99798583984</ele>
        <time>2011-11-11T07:42:55Z</time>
      </trkpt>
      <trkpt lat="45.74587" lon="4.64731">
        <ele>532.39697265625</ele>
        <time>2011-11-11T07:43:01Z</time>
      </trkpt>
      <trkpt lat="45.74577" lon="4.64724">
        <ele>533.73297119141</ele>
        <time>2011-11-11T07:43:07Z</time>
      </trkpt>
      <trkpt lat="45.74563" lon="4.6471">
        <ele>535.46899414062</ele>
        <time>2011-11-11T07:43:16Z</time>
      </trkpt>
      <trkpt lat="45.74554" lon="4.64699">
        <ele>536.21801757812</ele>
        <time>2011-11-11T07:43:23Z</time>
      </trkpt>
      <trkpt lat="45.7455" lon="4.64685">
        <ele>537.19897460938</ele>
        <time>2011-11-11T07:43:30Z</time>
      </trkpt>
      <trkpt lat="45.74544" lon="4.64669">
        <ele>538.61602783203</ele>
        <time>2011-11-11T07:43:38Z</time>
      </trkpt>
      <trkpt lat="45.74538" lon="4.6465">
        <ele>539.93298339844</ele>
        <time>2011-11-11T07:43:47Z</time>
      </trkpt>
      <trkpt lat="45.74532" lon="4.64636">
        <ele>540.90600585938</ele>
        <time>2011-11-11T07:43:54Z</time>
      </trkpt>
      <trkpt lat="45.74527" lon="4.64622">
        <ele>541.60699462891</ele>
        <time>2011-11-11T07:44:00Z</time>
      </trkpt>
      <trkpt lat="45.74525" lon="4.64609">
        <ele>542.60498046875</ele>
        <time>2011-11-11T07:44:06Z</time>
      </trkpt>
      <trkpt lat="45.74523" lon="4.64592">
        <ele>544.07800292969</ele>
        <time>2011-11-11T07:44:14Z</time>
      </trkpt>
      <trkpt lat="45.74519" lon="4.6458">
        <ele>544.97601318359</ele>
        <time>2011-11-11T07:44:19Z</time>
      </trkpt>
      <trkpt lat="45.74514" lon="4.64563">
        <ele>546.0009765625</ele>
        <time>2011-11-11T07:44:26Z</time>
      </trkpt>
      <trkpt lat="45.74511" lon="4.64545">
        <ele>547.78198242188</ele>
        <time>2011-11-11T07:44:34Z</time>
      </trkpt>
      <trkpt lat="45.74507" lon="4.64526">
        <ele>549.72497558594</ele>
        <time>2011-11-11T07:44:43Z</time>
      </trkpt>
      <trkpt lat="45.74507" lon="4.6452">
        <ele>550.19000244141</ele>
        <time>2011-11-11T07:44:46Z</time>
      </trkpt>
      <trkpt lat="45.74504" lon="4.64501">
        <ele>551.23797607422</ele>
        <time>2011-11-11T07:44:54Z</time>
      </trkpt>
      <trkpt lat="45.74503" lon="4.64483">
        <ele>552.64202880859</ele>
        <time>2011-11-11T07:45:02Z</time>
      </trkpt>
      <trkpt lat="45.745" lon="4.64465">
        <ele>554.46899414062</ele>
        <time>2011-11-11T07:45:10Z</time>
      </trkpt>
      <trkpt lat="45.74497" lon="4.64449">
        <ele>555.66497802734</ele>
        <time>2011-11-11T07:45:17Z</time>
      </trkpt>
      <trkpt lat="45.74497" lon="4.64433">
        <ele>557.10998535156</ele>
        <time>2011-11-11T07:45:24Z</time>
      </trkpt>
      <trkpt lat="45.74495" lon="4.64411">
        <ele>558.79602050781</ele>
        <time>2011-11-11T07:45:33Z</time>
      </trkpt>
      <trkpt lat="45.74495" lon="4.64391">
        <ele>559.86602783203</ele>
        <time>2011-11-11T07:45:42Z</time>
      </trkpt>
      <trkpt lat="45.74501" lon="4.64388">
        <ele>561.083984375</ele>
        <time>2011-11-11T07:45:47Z</time>
      </trkpt>
      <trkpt lat="45.74512" lon="4.644">
        <ele>562.84600830078</ele>
        <time>2011-11-11T07:45:55Z</time>
      </trkpt>
      <trkpt lat="45.74521" lon="4.64414">
        <ele>563.96697998047</ele>
        <time>2011-11-11T07:46:03Z</time>
      </trkpt>
      <trkpt lat="45.74527" lon="4.64427">
        <ele>565.07702636719</ele>
        <time>2011-11-11T07:46:10Z</time>
      </trkpt>
      <trkpt lat="45.74534" lon="4.64444">
        <ele>566.78997802734</ele>
        <time>2011-11-11T07:46:18Z</time>
      </trkpt>
      <trkpt lat="45.74545" lon="4.64458">
        <ele>568.88800048828</ele>
        <time>2011-11-11T07:46:26Z</time>
      </trkpt>
      <trkpt lat="45.74557" lon="4.6447">
        <ele>569.79699707031</ele>
        <time>2011-11-11T07:46:34Z</time>
      </trkpt>
      <trkpt lat="45.74569" lon="4.64479">
        <ele>571.19299316406</ele>
        <time>2011-11-11T07:46:42Z</time>
      </trkpt>
      <trkpt lat="45.74582" lon="4.64487">
        <ele>572.32800292969</ele>
        <time>2011-11-11T07:46:51Z</time>
      </trkpt>
      <trkpt lat="45.74596" lon="4.64493">
        <ele>574.50500488281</ele>
        <time>2011-11-11T07:47:00Z</time>
      </trkpt>
      <trkpt lat="45.74607" lon="4.64492">
        <ele>575.73699951172</ele>
        <time>2011-11-11T07:47:07Z</time>
      </trkpt>
      <trkpt lat="45.74624" lon="4.64487">
        <ele>576.62902832031</ele>
        <time>2011-11-11T07:47:17Z</time>
      </trkpt>
      <trkpt lat="45.74634" lon="4.64484">
        <ele>577.46398925781</ele>
        <time>2011-11-11T07:47:24Z</time>
      </trkpt>
      <trkpt lat="45.74645" lon="4.64483">
        <ele>579.15197753906</ele>
        <time>2011-11-11T07:47:31Z</time>
      </trkpt>
      <trkpt lat="45.7466" lon="4.64479">
        <ele>581.21997070312</ele>
        <time>2011-11-11T07:47:40Z</time>
      </trkpt>
      <trkpt lat="45.74669" lon="4.64473">
        <ele>582.36297607422</ele>
        <time>2011-11-11T07:47:47Z</time>
      </trkpt>
      <trkpt lat="45.7468" lon="4.64463">
        <ele>583.64001464844</ele>
        <time>2011-11-11T07:47:56Z</time>
      </trkpt>
      <trkpt lat="45.74688" lon="4.64453">
        <ele>584.79699707031</ele>
        <time>2011-11-11T07:48:03Z</time>
      </trkpt>
      <trkpt lat="45.74697" lon="4.64439">
        <ele>586.77697753906</ele>
        <time>2011-11-11T07:48:11Z</time>
      </trkpt>
      <trkpt lat="45.74704" lon="4.64429">
        <ele>588.72601318359</ele>
        <time>2011-11-11T07:48:18Z</time>
      </trkpt>
      <trkpt lat="45.74711" lon="4.64416">
        <ele>590.11700439453</ele>
        <time>2011-11-11T07:48:25Z</time>
      </trkpt>
      <trkpt lat="45.74722" lon="4.644">
        <ele>591.70300292969</ele>
        <time>2011-11-11T07:48:34Z</time>
      </trkpt>
      <trkpt lat="45.7473" lon="4.6439">
        <ele>592.42999267578</ele>
        <time>2011-11-11T07:48:40Z</time>
      </trkpt>
      <trkpt lat="45.74738" lon="4.64379">
        <ele>593.00500488281</ele>
        <time>2011-11-11T07:48:46Z</time>
      </trkpt>
      <trkpt lat="45.74741" lon="4.64375">
        <ele>593.37799072266</ele>
        <time>2011-11-11T07:48:51Z</time>
      </trkpt>
      <trkpt lat="45.74745" lon="4.64371">
        <ele>593.51397705078</ele>
        <time>2011-11-11T07:49:13Z</time>
      </trkpt>
      <trkpt lat="45.74756" lon="4.64356">
        <ele>594.42797851562</ele>
        <time>2011-11-11T07:49:20Z</time>
      </trkpt>
      <trkpt lat="45.74766" lon="4.64343">
        <ele>595.62701416016</ele>
        <time>2011-11-11T07:49:26Z</time>
      </trkpt>
      <trkpt lat="45.74779" lon="4.64329">
        <ele>596.88397216797</ele>
        <time>2011-11-11T07:49:33Z</time>
      </trkpt>
      <trkpt lat="45.7479" lon="4.64311">
        <ele>598.46502685547</ele>
        <time>2011-11-11T07:49:40Z</time>
      </trkpt>
      <trkpt lat="45.74798" lon="4.64297">
        <ele>599.89501953125</ele>
        <time>2011-11-11T07:49:45Z</time>
      </trkpt>
      <trkpt lat="45.74808" lon="4.64284">
        <ele>601.41998291016</ele>
        <time>2011-11-11T07:49:51Z</time>
      </trkpt>
      <trkpt lat="45.74817" lon="4.6427">
        <ele>602.53399658203</ele>
        <time>2011-11-11T07:49:57Z</time>
      </trkpt>
      <trkpt lat="45.74827" lon="4.64257">
        <ele>603.73999023438</ele>
        <time>2011-11-11T07:50:03Z</time>
      </trkpt>
      <trkpt lat="45.74839" lon="4.64242">
        <ele>604.6240234375</ele>
        <time>2011-11-11T07:50:10Z</time>
      </trkpt>
      <trkpt lat="45.74851" lon="4.64223">
        <ele>605.86901855469</ele>
        <time>2011-11-11T07:50:17Z</time>
      </trkpt>
      <trkpt lat="45.74863" lon="4.64204">
        <ele>606.86798095703</ele>
        <time>2011-11-11T07:50:25Z</time>
      </trkpt>
      <trkpt lat="45.74871" lon="4.64189">
        <ele>608.12701416016</ele>
        <time>2011-11-11T07:50:31Z</time>
      </trkpt>
      <trkpt lat="45.74879" lon="4.64174">
        <ele>609.2080078125</ele>
        <time>2011-11-11T07:50:36Z</time>
      </trkpt>
      <trkpt lat="45.74889" lon="4.64162">
        <ele>610.26599121094</ele>
        <time>2011-11-11T07:50:40Z</time>
      </trkpt>
      <trkpt lat="45.74897" lon="4.64147">
        <ele>611.15698242188</ele>
        <time>2011-11-11T07:50:45Z</time>
      </trkpt>
      <trkpt lat="45.74907" lon="4.64132">
        <ele>612.61901855469</ele>
        <time>2011-11-11T07:50:51Z</time>
      </trkpt>
      <trkpt lat="45.74915" lon="4.64115">
        <ele>613.50299072266</ele>
        <time>2011-11-11T07:50:58Z</time>
      </trkpt>
      <trkpt lat="45.74921" lon="4.64102">
        <ele>614.15698242188</ele>
        <time>2011-11-11T07:51:04Z</time>
      </trkpt>
      <trkpt lat="45.74932" lon="4.64087">
        <ele>615.13800048828</ele>
        <time>2011-11-11T07:51:12Z</time>
      </trkpt>
      <trkpt lat="45.7494" lon="4.64074">
        <ele>616.19799804688</ele>
        <time>2011-11-11T07:51:19Z</time>
      </trkpt>
      <trkpt lat="45.74949" lon="4.64056">
        <ele>617.59399414062</ele>
        <time>2011-11-11T07:51:27Z</time>
      </trkpt>
      <trkpt lat="45.74958" lon="4.64041">
        <ele>618.583984375</ele>
        <time>2011-11-11T07:51:35Z</time>
      </trkpt>
      <trkpt lat="45.74965" lon="4.64028">
        <ele>619.58801269531</ele>
        <time>2011-11-11T07:51:41Z</time>
      </trkpt>
      <trkpt lat="45.74974" lon="4.64014">
        <ele>620.83099365234</ele>
        <time>2011-11-11T07:51:48Z</time>
      </trkpt>
      <trkpt lat="45.74982" lon="4.63997">
        <ele>622.49102783203</ele>
        <time>2011-11-11T07:51:55Z</time>
      </trkpt>
      <trkpt lat="45.74994" lon="4.63981">
        <ele>624.29998779297</ele>
        <time>2011-11-11T07:52:03Z</time>
      </trkpt>
      <trkpt lat="45.75002" lon="4.63968">
        <ele>625.83898925781</ele>
        <time>2011-11-11T07:52:09Z</time>
      </trkpt>
      <trkpt lat="45.75006" lon="4.63958">
        <ele>627.08898925781</ele>
        <time>2011-11-11T07:52:14Z</time>
      </trkpt>
      <trkpt lat="45.75012" lon="4.63951">
        <ele>628.50897216797</ele>
        <time>2011-11-11T07:52:19Z</time>
      </trkpt>
      <trkpt lat="45.75024" lon="4.63938">
        <ele>630.07299804688</ele>
        <time>2011-11-11T07:52:27Z</time>
      </trkpt>
      <trkpt lat="45.75034" lon="4.63927">
        <ele>631.97100830078</ele>
        <time>2011-11-11T07:52:34Z</time>
      </trkpt>
      <trkpt lat="45.75036" lon="4.63925">
        <ele>632.31597900391</ele>
        <time>2011-11-11T07:52:35Z</time>
      </trkpt>
      <trkpt lat="45.75043" lon="4.63913">
        <ele>634.06500244141</ele>
        <time>2011-11-11T07:52:41Z</time>
      </trkpt>
      <trkpt lat="45.75047" lon="4.63912">
        <ele>634.44598388672</ele>
        <time>2011-11-11T07:52:43Z</time>
      </trkpt>
      <trkpt lat="45.7506" lon="4.63903">
        <ele>636.09399414062</ele>
        <time>2011-11-11T07:52:51Z</time>
      </trkpt>
      <trkpt lat="45.75069" lon="4.63893">
        <ele>637.4580078125</ele>
        <time>2011-11-11T07:52:58Z</time>
      </trkpt>
      <trkpt lat="45.75079" lon="4.63883">
        <ele>639.11999511719</ele>
        <time>2011-11-11T07:53:06Z</time>
      </trkpt>
      <trkpt lat="45.75087" lon="4.6388">
        <ele>640.23699951172</ele>
        <time>2011-11-11T07:53:11Z</time>
      </trkpt>
      <trkpt lat="45.75092" lon="4.63875">
        <ele>641.38098144531</ele>
        <time>2011-11-11T07:53:15Z</time>
      </trkpt>
      <trkpt lat="45.751" lon="4.63869">
        <ele>642.66302490234</ele>
        <time>2011-11-11T07:53:20Z</time>
      </trkpt>
      <trkpt lat="45.75104" lon="4.63863">
        <ele>643.80902099609</ele>
        <time>2011-11-11T07:53:24Z</time>
      </trkpt>
      <trkpt lat="45.75116" lon="4.63854">
        <ele>645.19097900391</ele>
        <time>2011-11-11T07:53:33Z</time>
      </trkpt>
      <trkpt lat="45.75124" lon="4.63851">
        <ele>645.94000244141</ele>
        <time>2011-11-11T07:53:39Z</time>
      </trkpt>
      <trkpt lat="45.75134" lon="4.63845">
        <ele>646.24298095703</ele>
        <time>2011-11-11T07:53:46Z</time>
      </trkpt>
      <trkpt lat="45.75145" lon="4.63843">
        <ele>646</ele>
        <time>2011-11-11T07:53:51Z</time>
      </trkpt>
      <trkpt lat="45.75165" lon="4.63842">
        <ele>645.54498291016</ele>
        <time>2011-11-11T07:53:58Z</time>
      </trkpt>
      <trkpt lat="45.75177" lon="4.63837">
        <ele>645.61102294922</ele>
        <time>2011-11-11T07:54:04Z</time>
      </trkpt>
      <trkpt lat="45.75188" lon="4.63831">
        <ele>645.63098144531</ele>
        <time>2011-11-11T07:54:11Z</time>
      </trkpt>
      <trkpt lat="45.75202" lon="4.6382">
        <ele>646.01599121094</ele>
        <time>2011-11-11T07:54:18Z</time>
      </trkpt>
      <trkpt lat="45.75215" lon="4.63809">
        <ele>646.67797851562</ele>
        <time>2011-11-11T07:54:25Z</time>
      </trkpt>
      <trkpt lat="45.75218" lon="4.63805">
        <ele>646.88800048828</ele>
        <time>2011-11-11T07:54:27Z</time>
      </trkpt>
      <trkpt lat="45.75223" lon="4.63796">
        <ele>647.58599853516</ele>
        <time>2011-11-11T07:54:31Z</time>
      </trkpt>
      <trkpt lat="45.75227" lon="4.6379">
        <ele>647.958984375</ele>
        <time>2011-11-11T07:54:34Z</time>
      </trkpt>
      <trkpt lat="45.75236" lon="4.63771">
        <ele>648.56799316406</ele>
        <time>2011-11-11T07:54:41Z</time>
      </trkpt>
      <trkpt lat="45.7524" lon="4.63758">
        <ele>648.68701171875</ele>
        <time>2011-11-11T07:54:47Z</time>
      </trkpt>
      <trkpt lat="45.7524" lon="4.63756">
        <ele>648.63598632812</ele>
        <time>2011-11-11T07:54:51Z</time>
      </trkpt>
      <trkpt lat="45.75244" lon="4.63758">
        <ele>648.60198974609</ele>
        <time>2011-11-11T07:54:57Z</time>
      </trkpt>
      <trkpt lat="45.75248" lon="4.63758">
        <ele>648.73297119141</ele>
        <time>2011-11-11T07:55:46Z</time>
      </trkpt>
      <trkpt lat="45.75249" lon="4.63751">
        <ele>648.59698486328</ele>
        <time>2011-11-11T07:56:06Z</time>
      </trkpt>
      <trkpt lat="45.75249" lon="4.6375">
        <ele>648.65301513672</ele>
        <time>2011-11-11T07:56:07Z</time>
      </trkpt>
      <trkpt lat="45.7525" lon="4.63747">
        <ele>648.71099853516</ele>
        <time>2011-11-11T07:56:15Z</time>
      </trkpt>
      <trkpt lat="45.75253" lon="4.63745">
        <ele>648.6259765625</ele>
        <time>2011-11-11T07:56:24Z</time>
      </trkpt>
      <trkpt lat="45.75254" lon="4.63743">
        <ele>648.59600830078</ele>
        <time>2011-11-11T07:56:26Z</time>
      </trkpt>
      <trkpt lat="45.75254" lon="4.63741">
        <ele>648.67297363281</ele>
        <time>2011-11-11T07:56:28Z</time>
      </trkpt>
      <trkpt lat="45.75259" lon="4.63726">
        <ele>648.96697998047</ele>
        <time>2011-11-11T07:56:38Z</time>
      </trkpt>
      <trkpt lat="45.75265" lon="4.63715">
        <ele>649.12799072266</ele>
        <time>2011-11-11T07:56:44Z</time>
      </trkpt>
      <trkpt lat="45.75268" lon="4.63701">
        <ele>649.68103027344</ele>
        <time>2011-11-11T07:56:51Z</time>
      </trkpt>
      <trkpt lat="45.75269" lon="4.63688">
        <ele>650.3740234375</ele>
        <time>2011-11-11T07:56:57Z</time>
      </trkpt>
      <trkpt lat="45.75269" lon="4.63672">
        <ele>651.44201660156</ele>
        <time>2011-11-11T07:57:04Z</time>
      </trkpt>
      <trkpt lat="45.75269" lon="4.63663">
        <ele>652.21697998047</ele>
        <time>2011-11-11T07:57:09Z</time>
      </trkpt>
      <trkpt lat="45.75266" lon="4.63657">
        <ele>653.08502197266</ele>
        <time>2011-11-11T07:57:13Z</time>
      </trkpt>
      <trkpt lat="45.75266" lon="4.63644">
        <ele>655.01599121094</ele>
        <time>2011-11-11T07:57:20Z</time>
      </trkpt>
      <trkpt lat="45.75265" lon="4.63638">
        <ele>655.54699707031</ele>
        <time>2011-11-11T07:57:23Z</time>
      </trkpt>
      <trkpt lat="45.75262" lon="4.63622">
        <ele>656.72900390625</ele>
        <time>2011-11-11T07:57:32Z</time>
      </trkpt>
      <trkpt lat="45.75262" lon="4.63616">
        <ele>657.43103027344</ele>
        <time>2011-11-11T07:57:36Z</time>
      </trkpt>
      <trkpt lat="45.7526" lon="4.636">
        <ele>658.09600830078</ele>
        <time>2011-11-11T07:57:45Z</time>
      </trkpt>
      <trkpt lat="45.75257" lon="4.63585">
        <ele>659.31097412109</ele>
        <time>2011-11-11T07:57:52Z</time>
      </trkpt>
      <trkpt lat="45.75254" lon="4.63569">
        <ele>660.6669921875</ele>
        <time>2011-11-11T07:57:59Z</time>
      </trkpt>
      <trkpt lat="45.75252" lon="4.63558">
        <ele>661.77899169922</ele>
        <time>2011-11-11T07:58:04Z</time>
      </trkpt>
      <trkpt lat="45.7525" lon="4.63548">
        <ele>662.89697265625</ele>
        <time>2011-11-11T07:58:09Z</time>
      </trkpt>
      <trkpt lat="45.75249" lon="4.6353">
        <ele>664.76397705078</ele>
        <time>2011-11-11T07:58:17Z</time>
      </trkpt>
      <trkpt lat="45.75249" lon="4.63518">
        <ele>665.78802490234</ele>
        <time>2011-11-11T07:58:23Z</time>
      </trkpt>
      <trkpt lat="45.75249" lon="4.63506">
        <ele>667.19201660156</ele>
        <time>2011-11-11T07:58:29Z</time>
      </trkpt>
      <trkpt lat="45.75249" lon="4.63503">
        <ele>667.45202636719</ele>
        <time>2011-11-11T07:58:30Z</time>
      </trkpt>
      <trkpt lat="45.75248" lon="4.63486">
        <ele>669.21197509766</ele>
        <time>2011-11-11T07:58:38Z</time>
      </trkpt>
      <trkpt lat="45.75248" lon="4.63477">
        <ele>670.34698486328</ele>
        <time>2011-11-11T07:58:44Z</time>
      </trkpt>
      <trkpt lat="45.75246" lon="4.6347">
        <ele>670.90301513672</ele>
        <time>2011-11-11T07:58:51Z</time>
      </trkpt>
      <trkpt lat="45.75246" lon="4.63463">
        <ele>671.2509765625</ele>
        <time>2011-11-11T07:58:54Z</time>
      </trkpt>
      <trkpt lat="45.75248" lon="4.63444">
        <ele>672.83001708984</ele>
        <time>2011-11-11T07:59:03Z</time>
      </trkpt>
      <trkpt lat="45.75248" lon="4.63426">
        <ele>674.39599609375</ele>
        <time>2011-11-11T07:59:10Z</time>
      </trkpt>
      <trkpt lat="45.75251" lon="4.6341">
        <ele>675.34301757812</ele>
        <time>2011-11-11T07:59:17Z</time>
      </trkpt>
      <trkpt lat="45.75256" lon="4.63397">
        <ele>676.35699462891</ele>
        <time>2011-11-11T07:59:24Z</time>
      </trkpt>
      <trkpt lat="45.75263" lon="4.63383">
        <ele>676.88800048828</ele>
        <time>2011-11-11T07:59:31Z</time>
      </trkpt>
      <trkpt lat="45.75269" lon="4.63371">
        <ele>677.67199707031</ele>
        <time>2011-11-11T07:59:38Z</time>
      </trkpt>
      <trkpt lat="45.75274" lon="4.63357">
        <ele>678.56201171875</ele>
        <time>2011-11-11T07:59:45Z</time>
      </trkpt>
      <trkpt lat="45.75281" lon="4.6334">
        <ele>679.65100097656</ele>
        <time>2011-11-11T07:59:52Z</time>
      </trkpt>
      <trkpt lat="45.75286" lon="4.63326">
        <ele>680.55499267578</ele>
        <time>2011-11-11T07:59:59Z</time>
      </trkpt>
      <trkpt lat="45.75295" lon="4.63306">
        <ele>681.166015625</ele>
        <time>2011-11-11T08:00:06Z</time>
      </trkpt>
      <trkpt lat="45.75304" lon="4.63287">
        <ele>681.98999023438</ele>
        <time>2011-11-11T08:00:12Z</time>
      </trkpt>
      <trkpt lat="45.7531" lon="4.63277">
        <ele>682.32897949219</ele>
        <time>2011-11-11T08:00:17Z</time>
      </trkpt>
      <trkpt lat="45.75316" lon="4.63258">
        <ele>683.22698974609</ele>
        <time>2011-11-11T08:00:24Z</time>
      </trkpt>
      <trkpt lat="45.75323" lon="4.63244">
        <ele>684.19396972656</ele>
        <time>2011-11-11T08:00:30Z</time>
      </trkpt>
      <trkpt lat="45.75325" lon="4.63236">
        <ele>684.72900390625</ele>
        <time>2011-11-11T08:00:33Z</time>
      </trkpt>
      <trkpt lat="45.75329" lon="4.63227">
        <ele>685.39398193359</ele>
        <time>2011-11-11T08:00:37Z</time>
      </trkpt>
      <trkpt lat="45.75331" lon="4.63224">
        <ele>685.67102050781</ele>
        <time>2011-11-11T08:00:39Z</time>
      </trkpt>
      <trkpt lat="45.75336" lon="4.63213">
        <ele>686.35797119141</ele>
        <time>2011-11-11T08:00:44Z</time>
      </trkpt>
      <trkpt lat="45.75341" lon="4.63205">
        <ele>687.23901367188</ele>
        <time>2011-11-11T08:00:48Z</time>
      </trkpt>
      <trkpt lat="45.75352" lon="4.63194">
        <ele>688.22998046875</ele>
        <time>2011-11-11T08:00:55Z</time>
      </trkpt>
      <trkpt lat="45.75361" lon="4.63179">
        <ele>688.62200927734</ele>
        <time>2011-11-11T08:01:01Z</time>
      </trkpt>
      <trkpt lat="45.75372" lon="4.63157">
        <ele>688.57702636719</ele>
        <time>2011-11-11T08:01:07Z</time>
      </trkpt>
      <trkpt lat="45.75381" lon="4.63139">
        <ele>688.43798828125</ele>
        <time>2011-11-11T08:01:12Z</time>
      </trkpt>
      <trkpt lat="45.75391" lon="4.6312">
        <ele>688.31597900391</ele>
        <time>2011-11-11T08:01:18Z</time>
      </trkpt>
      <trkpt lat="45.75401" lon="4.631">
        <ele>688.17602539062</ele>
        <time>2011-11-11T08:01:24Z</time>
      </trkpt>
      <trkpt lat="45.7541" lon="4.63081">
        <ele>688.43902587891</ele>
        <time>2011-11-11T08:01:30Z</time>
      </trkpt>
      <trkpt lat="45.75418" lon="4.63066">
        <ele>688.8330078125</ele>
        <time>2011-11-11T08:01:35Z</time>
      </trkpt>
      <trkpt lat="45.75428" lon="4.63039">
        <ele>688.88201904297</ele>
        <time>2011-11-11T08:01:42Z</time>
      </trkpt>
      <trkpt lat="45.75435" lon="4.63018">
        <ele>688.82098388672</ele>
        <time>2011-11-11T08:01:48Z</time>
      </trkpt>
      <trkpt lat="45.75441" lon="4.62999">
        <ele>689.21002197266</ele>
        <time>2011-11-11T08:01:54Z</time>
      </trkpt>
      <trkpt lat="45.75449" lon="4.62974">
        <ele>689.39898681641</ele>
        <time>2011-11-11T08:02:01Z</time>
      </trkpt>
      <trkpt lat="45.75458" lon="4.62947">
        <ele>689.76800537109</ele>
        <time>2011-11-11T08:02:08Z</time>
      </trkpt>
      <trkpt lat="45.75459" lon="4.62944">
        <ele>689.76800537109</ele>
        <time>2011-11-11T08:02:09Z</time>
      </trkpt>
      <trkpt lat="45.75464" lon="4.62925">
        <ele>690.21899414062</ele>
        <time>2011-11-11T08:02:15Z</time>
      </trkpt>
      <trkpt lat="45.75471" lon="4.62907">
        <ele>690.51898193359</ele>
        <time>2011-11-11T08:02:20Z</time>
      </trkpt>
      <trkpt lat="45.75482" lon="4.62879">
        <ele>690.14599609375</ele>
        <time>2011-11-11T08:02:27Z</time>
      </trkpt>
      <trkpt lat="45.75491" lon="4.62857">
        <ele>689.68402099609</ele>
        <time>2011-11-11T08:02:33Z</time>
      </trkpt>
      <trkpt lat="45.75499" lon="4.62851">
        <ele>689.66998291016</ele>
        <time>2011-11-11T08:02:37Z</time>
      </trkpt>
      <trkpt lat="45.75511" lon="4.62847">
        <ele>690.37200927734</ele>
        <time>2011-11-11T08:02:43Z</time>
      </trkpt>
      <trkpt lat="45.7552" lon="4.62842">
        <ele>691.04302978516</ele>
        <time>2011-11-11T08:02:48Z</time>
      </trkpt>
      <trkpt lat="45.75532" lon="4.62838">
        <ele>691.16198730469</ele>
        <time>2011-11-11T08:02:52Z</time>
      </trkpt>
      <trkpt lat="45.75545" lon="4.62832">
        <ele>691.05499267578</ele>
        <time>2011-11-11T08:02:56Z</time>
      </trkpt>
      <trkpt lat="45.75565" lon="4.6283">
        <ele>690.94299316406</ele>
        <time>2011-11-11T08:03:00Z</time>
      </trkpt>
      <trkpt lat="45.75583" lon="4.62828">
        <ele>691.53002929688</ele>
        <time>2011-11-11T08:03:05Z</time>
      </trkpt>
      <trkpt lat="45.75594" lon="4.6283">
        <ele>692.65502929688</ele>
        <time>2011-11-11T08:03:10Z</time>
      </trkpt>
      <trkpt lat="45.75596" lon="4.6283">
        <ele>692.82800292969</ele>
        <time>2011-11-11T08:03:11Z</time>
      </trkpt>
      <trkpt lat="45.75603" lon="4.62835">
        <ele>693.60302734375</ele>
        <time>2011-11-11T08:03:16Z</time>
      </trkpt>
      <trkpt lat="45.75609" lon="4.62838">
        <ele>694.12298583984</ele>
        <time>2011-11-11T08:03:19Z</time>
      </trkpt>
      <trkpt lat="45.7562" lon="4.62849">
        <ele>695.28802490234</ele>
        <time>2011-11-11T08:03:26Z</time>
      </trkpt>
      <trkpt lat="45.75623" lon="4.62852">
        <ele>695.54797363281</ele>
        <time>2011-11-11T08:03:28Z</time>
      </trkpt>
      <trkpt lat="45.75636" lon="4.62865">
        <ele>695.50402832031</ele>
        <time>2011-11-11T08:03:35Z</time>
      </trkpt>
      <trkpt lat="45.75643" lon="4.62872">
        <ele>695.56201171875</ele>
        <time>2011-11-11T08:03:39Z</time>
      </trkpt>
      <trkpt lat="45.75656" lon="4.62878">
        <ele>696.125</ele>
        <time>2011-11-11T08:03:45Z</time>
      </trkpt>
      <trkpt lat="45.75665" lon="4.62884">
        <ele>696.59301757812</ele>
        <time>2011-11-11T08:03:49Z</time>
      </trkpt>
      <trkpt lat="45.75668" lon="4.62886">
        <ele>696.7919921875</ele>
        <time>2011-11-11T08:03:51Z</time>
      </trkpt>
      <trkpt lat="45.75677" lon="4.62892">
        <ele>697.55102539062</ele>
        <time>2011-11-11T08:03:55Z</time>
      </trkpt>
      <trkpt lat="45.75689" lon="4.62901">
        <ele>698.98999023438</ele>
        <time>2011-11-11T08:04:01Z</time>
      </trkpt>
      <trkpt lat="45.75701" lon="4.62907">
        <ele>700.5419921875</ele>
        <time>2011-11-11T08:04:07Z</time>
      </trkpt>
      <trkpt lat="45.75716" lon="4.62915">
        <ele>702.24102783203</ele>
        <time>2011-11-11T08:04:15Z</time>
      </trkpt>
      <trkpt lat="45.75724" lon="4.62922">
        <ele>703.65197753906</ele>
        <time>2011-11-11T08:04:21Z</time>
      </trkpt>
      <trkpt lat="45.75734" lon="4.62925">
        <ele>704.56097412109</ele>
        <time>2011-11-11T08:04:26Z</time>
      </trkpt>
      <trkpt lat="45.75751" lon="4.62931">
        <ele>704.65100097656</ele>
        <time>2011-11-11T08:04:32Z</time>
      </trkpt>
      <trkpt lat="45.75766" lon="4.62938">
        <ele>704.76702880859</ele>
        <time>2011-11-11T08:04:37Z</time>
      </trkpt>
      <trkpt lat="45.75772" lon="4.6294">
        <ele>704.90301513672</ele>
        <time>2011-11-11T08:04:40Z</time>
      </trkpt>
      <trkpt lat="45.75778" lon="4.62942">
        <ele>704.86901855469</ele>
        <time>2011-11-11T08:04:42Z</time>
      </trkpt>
      <trkpt lat="45.75793" lon="4.62957">
        <ele>704.28399658203</ele>
        <time>2011-11-11T08:04:48Z</time>
      </trkpt>
      <trkpt lat="45.75805" lon="4.62966">
        <ele>704.09600830078</ele>
        <time>2011-11-11T08:04:51Z</time>
      </trkpt>
      <trkpt lat="45.75824" lon="4.62981">
        <ele>704.41302490234</ele>
        <time>2011-11-11T08:04:57Z</time>
      </trkpt>
      <trkpt lat="45.75841" lon="4.62992">
        <ele>705.41497802734</ele>
        <time>2011-11-11T08:05:03Z</time>
      </trkpt>
      <trkpt lat="45.75855" lon="4.63001">
        <ele>706.69897460938</ele>
        <time>2011-11-11T08:05:09Z</time>
      </trkpt>
      <trkpt lat="45.75861" lon="4.63007">
        <ele>707.5830078125</ele>
        <time>2011-11-11T08:05:12Z</time>
      </trkpt>
      <trkpt lat="45.75871" lon="4.63014">
        <ele>708.56597900391</ele>
        <time>2011-11-11T08:05:16Z</time>
      </trkpt>
      <trkpt lat="45.75883" lon="4.63021">
        <ele>709.76397705078</ele>
        <time>2011-11-11T08:05:22Z</time>
      </trkpt>
      <trkpt lat="45.75897" lon="4.6303">
        <ele>710.90997314453</ele>
        <time>2011-11-11T08:05:29Z</time>
      </trkpt>
      <trkpt lat="45.75906" lon="4.63039">
        <ele>711.54998779297</ele>
        <time>2011-11-11T08:05:34Z</time>
      </trkpt>
      <trkpt lat="45.75907" lon="4.63041">
        <ele>711.61401367188</ele>
        <time>2011-11-11T08:05:35Z</time>
      </trkpt>
      <trkpt lat="45.75924" lon="4.63058">
        <ele>711.56201171875</ele>
        <time>2011-11-11T08:05:42Z</time>
      </trkpt>
      <trkpt lat="45.75947" lon="4.63074">
        <ele>710.35900878906</ele>
        <time>2011-11-11T08:05:48Z</time>
      </trkpt>
      <trkpt lat="45.75969" lon="4.63083">
        <ele>708</ele>
        <time>2011-11-11T08:05:53Z</time>
      </trkpt>
      <trkpt lat="45.75994" lon="4.6308">
        <ele>705.56298828125</ele>
        <time>2011-11-11T08:05:59Z</time>
      </trkpt>
      <trkpt lat="45.76015" lon="4.63066">
        <ele>703.58502197266</ele>
        <time>2011-11-11T08:06:04Z</time>
      </trkpt>
      <trkpt lat="45.76028" lon="4.63044">
        <ele>702.04998779297</ele>
        <time>2011-11-11T08:06:09Z</time>
      </trkpt>
      <trkpt lat="45.76047" lon="4.63014">
        <ele>700.92797851562</ele>
        <time>2011-11-11T08:06:15Z</time>
      </trkpt>
      <trkpt lat="45.76056" lon="4.62995">
        <ele>700.34002685547</ele>
        <time>2011-11-11T08:06:20Z</time>
      </trkpt>
      <trkpt lat="45.76059" lon="4.62986">
        <ele>700.16101074219</ele>
        <time>2011-11-11T08:06:23Z</time>
      </trkpt>
      <trkpt lat="45.76068" lon="4.62965">
        <ele>699.77398681641</ele>
        <time>2011-11-11T08:06:28Z</time>
      </trkpt>
      <trkpt lat="45.76076" lon="4.62949">
        <ele>699.67498779297</ele>
        <time>2011-11-11T08:06:34Z</time>
      </trkpt>
      <trkpt lat="45.76078" lon="4.62931">
        <ele>700.0009765625</ele>
        <time>2011-11-11T08:06:39Z</time>
      </trkpt>
      <trkpt lat="45.76088" lon="4.62911">
        <ele>700.77099609375</ele>
        <time>2011-11-11T08:06:45Z</time>
      </trkpt>
      <trkpt lat="45.76103" lon="4.62899">
        <ele>702.0830078125</ele>
        <time>2011-11-11T08:06:50Z</time>
      </trkpt>
      <trkpt lat="45.76116" lon="4.6288">
        <ele>703.79302978516</ele>
        <time>2011-11-11T08:06:56Z</time>
      </trkpt>
      <trkpt lat="45.7612" lon="4.62866">
        <ele>704.70501708984</ele>
        <time>2011-11-11T08:07:01Z</time>
      </trkpt>
      <trkpt lat="45.76124" lon="4.6286">
        <ele>705.09301757812</ele>
        <time>2011-11-11T08:07:04Z</time>
      </trkpt>
      <trkpt lat="45.76126" lon="4.62858">
        <ele>705.50500488281</ele>
        <time>2011-11-11T08:07:06Z</time>
      </trkpt>
      <trkpt lat="45.7613" lon="4.6285">
        <ele>705.89599609375</ele>
        <time>2011-11-11T08:07:10Z</time>
      </trkpt>
      <trkpt lat="45.76143" lon="4.62844">
        <ele>706.58197021484</ele>
        <time>2011-11-11T08:07:17Z</time>
      </trkpt>
      <trkpt lat="45.76159" lon="4.62846">
        <ele>707.68298339844</ele>
        <time>2011-11-11T08:07:23Z</time>
      </trkpt>
      <trkpt lat="45.76164" lon="4.62847">
        <ele>708.15899658203</ele>
        <time>2011-11-11T08:07:25Z</time>
      </trkpt>
      <trkpt lat="45.76166" lon="4.62851">
        <ele>708.91302490234</ele>
        <time>2011-11-11T08:07:28Z</time>
      </trkpt>
      <trkpt lat="45.76177" lon="4.62854">
        <ele>711.40802001953</ele>
        <time>2011-11-11T08:07:34Z</time>
      </trkpt>
      <trkpt lat="45.76181" lon="4.62856">
        <ele>712.53198242188</ele>
        <time>2011-11-11T08:07:38Z</time>
      </trkpt>
      <trkpt lat="45.76184" lon="4.62858">
        <ele>713.15600585938</ele>
        <time>2011-11-11T08:07:42Z</time>
      </trkpt>
      <trkpt lat="45.76187" lon="4.62858">
        <ele>713.10498046875</ele>
        <time>2011-11-11T08:07:45Z</time>
      </trkpt>
      <trkpt lat="45.76202" lon="4.62863">
        <ele>712.84301757812</ele>
        <time>2011-11-11T08:07:53Z</time>
      </trkpt>
      <trkpt lat="45.76205" lon="4.62863">
        <ele>712.79699707031</ele>
        <time>2011-11-11T08:07:55Z</time>
      </trkpt>
      <trkpt lat="45.7622" lon="4.62864">
        <ele>712.24200439453</ele>
        <time>2011-11-11T08:08:01Z</time>
      </trkpt>
      <trkpt lat="45.76233" lon="4.62864">
        <ele>712.09002685547</ele>
        <time>2011-11-11T08:08:05Z</time>
      </trkpt>
      <trkpt lat="45.76248" lon="4.62864">
        <ele>711.90502929688</ele>
        <time>2011-11-11T08:08:10Z</time>
      </trkpt>
      <trkpt lat="45.76264" lon="4.62869">
        <ele>711.24700927734</ele>
        <time>2011-11-11T08:08:16Z</time>
      </trkpt>
      <trkpt lat="45.76266" lon="4.62874">
        <ele>710.92401123047</ele>
        <time>2011-11-11T08:08:21Z</time>
      </trkpt>
      <trkpt lat="45.7627" lon="4.62884">
        <ele>710.72601318359</ele>
        <time>2011-11-11T08:08:27Z</time>
      </trkpt>
      <trkpt lat="45.76271" lon="4.62886">
        <ele>710.71801757812</ele>
        <time>2011-11-11T08:08:28Z</time>
      </trkpt>
      <trkpt lat="45.76278" lon="4.62892">
        <ele>710.72302246094</ele>
        <time>2011-11-11T08:08:33Z</time>
      </trkpt>
      <trkpt lat="45.76278" lon="4.629">
        <ele>710.78399658203</ele>
        <time>2011-11-11T08:08:36Z</time>
      </trkpt>
      <trkpt lat="45.76284" lon="4.62915">
        <ele>711.11901855469</ele>
        <time>2011-11-11T08:08:42Z</time>
      </trkpt>
      <trkpt lat="45.76287" lon="4.62925">
        <ele>711.69598388672</ele>
        <time>2011-11-11T08:08:46Z</time>
      </trkpt>
      <trkpt lat="45.763" lon="4.62934">
        <ele>713.17901611328</ele>
        <time>2011-11-11T08:08:54Z</time>
      </trkpt>
      <trkpt lat="45.76302" lon="4.62936">
        <ele>713.38702392578</ele>
        <time>2011-11-11T08:08:55Z</time>
      </trkpt>
      <trkpt lat="45.76308" lon="4.62942">
        <ele>714.28302001953</ele>
        <time>2011-11-11T08:09:00Z</time>
      </trkpt>
      <trkpt lat="45.76318" lon="4.62951">
        <ele>715.48297119141</ele>
        <time>2011-11-11T08:09:07Z</time>
      </trkpt>
      <trkpt lat="45.76318" lon="4.62952">
        <ele>715.69897460938</ele>
        <time>2011-11-11T08:09:08Z</time>
      </trkpt>
      <trkpt lat="45.76324" lon="4.62957">
        <ele>716.73498535156</ele>
        <time>2011-11-11T08:09:13Z</time>
      </trkpt>
      <trkpt lat="45.76332" lon="4.62963">
        <ele>717.80902099609</ele>
        <time>2011-11-11T08:09:19Z</time>
      </trkpt>
      <trkpt lat="45.76341" lon="4.6297">
        <ele>718.86199951172</ele>
        <time>2011-11-11T08:09:25Z</time>
      </trkpt>
      <trkpt lat="45.7635" lon="4.62977">
        <ele>719.30902099609</ele>
        <time>2011-11-11T08:09:30Z</time>
      </trkpt>
      <trkpt lat="45.76362" lon="4.62988">
        <ele>719.91900634766</ele>
        <time>2011-11-11T08:09:37Z</time>
      </trkpt>
      <trkpt lat="45.76374" lon="4.62997">
        <ele>720.84802246094</ele>
        <time>2011-11-11T08:09:43Z</time>
      </trkpt>
      <trkpt lat="45.76383" lon="4.63006">
        <ele>721.66198730469</ele>
        <time>2011-11-11T08:09:48Z</time>
      </trkpt>
      <trkpt lat="45.76389" lon="4.63014">
        <ele>722.81500244141</ele>
        <time>2011-11-11T08:09:53Z</time>
      </trkpt>
      <trkpt lat="45.76394" lon="4.63021">
        <ele>723.60400390625</ele>
        <time>2011-11-11T08:09:58Z</time>
      </trkpt>
      <trkpt lat="45.76406" lon="4.63031">
        <ele>724.0009765625</ele>
        <time>2011-11-11T08:10:04Z</time>
      </trkpt>
      <trkpt lat="45.76413" lon="4.63039">
        <ele>724.12799072266</ele>
        <time>2011-11-11T08:10:09Z</time>
      </trkpt>
      <trkpt lat="45.76426" lon="4.63053">
        <ele>723.94500732422</ele>
        <time>2011-11-11T08:10:15Z</time>
      </trkpt>
      <trkpt lat="45.76446" lon="4.63061">
        <ele>723.75500488281</ele>
        <time>2011-11-11T08:10:22Z</time>
      </trkpt>
      <trkpt lat="45.76463" lon="4.63065">
        <ele>723.06896972656</ele>
        <time>2011-11-11T08:10:27Z</time>
      </trkpt>
      <trkpt lat="45.76487" lon="4.63067">
        <ele>722.35797119141</ele>
        <time>2011-11-11T08:10:32Z</time>
      </trkpt>
      <trkpt lat="45.76509" lon="4.63066">
        <ele>722.00201416016</ele>
        <time>2011-11-11T08:10:38Z</time>
      </trkpt>
      <trkpt lat="45.76523" lon="4.63066">
        <ele>721.73498535156</ele>
        <time>2011-11-11T08:10:42Z</time>
      </trkpt>
      <trkpt lat="45.76541" lon="4.63065">
        <ele>721.72601318359</ele>
        <time>2011-11-11T08:10:47Z</time>
      </trkpt>
      <trkpt lat="45.76555" lon="4.63061">
        <ele>721.88800048828</ele>
        <time>2011-11-11T08:10:52Z</time>
      </trkpt>
      <trkpt lat="45.76558" lon="4.6306">
        <ele>722.06097412109</ele>
        <time>2011-11-11T08:10:54Z</time>
      </trkpt>
      <trkpt lat="45.76576" lon="4.63059">
        <ele>722.84698486328</ele>
        <time>2011-11-11T08:11:02Z</time>
      </trkpt>
      <trkpt lat="45.76579" lon="4.63058">
        <ele>723.10198974609</ele>
        <time>2011-11-11T08:11:04Z</time>
      </trkpt>
      <trkpt lat="45.7659" lon="4.63049">
        <ele>724.46997070312</ele>
        <time>2011-11-11T08:11:10Z</time>
      </trkpt>
      <trkpt lat="45.76593" lon="4.63046">
        <ele>724.93902587891</ele>
        <time>2011-11-11T08:11:12Z</time>
      </trkpt>
      <trkpt lat="45.76602" lon="4.63038">
        <ele>725.54901123047</ele>
        <time>2011-11-11T08:11:17Z</time>
      </trkpt>
      <trkpt lat="45.76607" lon="4.63034">
        <ele>725.875</ele>
        <time>2011-11-11T08:11:19Z</time>
      </trkpt>
      <trkpt lat="45.76624" lon="4.6302">
        <ele>726.65802001953</ele>
        <time>2011-11-11T08:11:26Z</time>
      </trkpt>
      <trkpt lat="45.76633" lon="4.63013">
        <ele>726.83898925781</ele>
        <time>2011-11-11T08:11:30Z</time>
      </trkpt>
      <trkpt lat="45.76646" lon="4.62998">
        <ele>726.7509765625</ele>
        <time>2011-11-11T08:11:35Z</time>
      </trkpt>
      <trkpt lat="45.76649" lon="4.62996">
        <ele>726.72900390625</ele>
        <time>2011-11-11T08:11:36Z</time>
      </trkpt>
      <trkpt lat="45.76662" lon="4.63001">
        <ele>726.66400146484</ele>
        <time>2011-11-11T08:11:41Z</time>
      </trkpt>
      <trkpt lat="45.76667" lon="4.63001">
        <ele>726.64599609375</ele>
        <time>2011-11-11T08:11:42Z</time>
      </trkpt>
      <trkpt lat="45.76679" lon="4.63001">
        <ele>726.89099121094</ele>
        <time>2011-11-11T08:11:46Z</time>
      </trkpt>
      <trkpt lat="45.76693" lon="4.63012">
        <ele>727.73901367188</ele>
        <time>2011-11-11T08:11:51Z</time>
      </trkpt>
      <trkpt lat="45.76696" lon="4.63019">
        <ele>728.09399414062</ele>
        <time>2011-11-11T08:11:54Z</time>
      </trkpt>
      <trkpt lat="45.76701" lon="4.63035">
        <ele>729.46899414062</ele>
        <time>2011-11-11T08:12:01Z</time>
      </trkpt>
      <trkpt lat="45.76707" lon="4.63056">
        <ele>731.76501464844</ele>
        <time>2011-11-11T08:12:07Z</time>
      </trkpt>
      <trkpt lat="45.76715" lon="4.63074">
        <ele>733.65301513672</ele>
        <time>2011-11-11T08:12:12Z</time>
      </trkpt>
      <trkpt lat="45.76727" lon="4.63091">
        <ele>734.65698242188</ele>
        <time>2011-11-11T08:12:17Z</time>
      </trkpt>
      <trkpt lat="45.76736" lon="4.63109">
        <ele>734.94500732422</ele>
        <time>2011-11-11T08:12:22Z</time>
      </trkpt>
      <trkpt lat="45.76744" lon="4.63124">
        <ele>734.85302734375</ele>
        <time>2011-11-11T08:12:26Z</time>
      </trkpt>
      <trkpt lat="45.76757" lon="4.63139">
        <ele>734.70697021484</ele>
        <time>2011-11-11T08:12:30Z</time>
      </trkpt>
      <trkpt lat="45.76773" lon="4.63156">
        <ele>734.40197753906</ele>
        <time>2011-11-11T08:12:34Z</time>
      </trkpt>
      <trkpt lat="45.76775" lon="4.63158">
        <ele>734.15698242188</ele>
        <time>2011-11-11T08:12:35Z</time>
      </trkpt>
      <trkpt lat="45.76791" lon="4.63169">
        <ele>733.35400390625</ele>
        <time>2011-11-11T08:12:38Z</time>
      </trkpt>
      <trkpt lat="45.76799" lon="4.63182">
        <ele>732.71301269531</ele>
        <time>2011-11-11T08:12:40Z</time>
      </trkpt>
      <trkpt lat="45.76814" lon="4.632">
        <ele>731.88598632812</ele>
        <time>2011-11-11T08:12:43Z</time>
      </trkpt>
      <trkpt lat="45.76822" lon="4.6321">
        <ele>731.20300292969</ele>
        <time>2011-11-11T08:12:45Z</time>
      </trkpt>
      <trkpt lat="45.76852" lon="4.63221">
        <ele>729.34997558594</ele>
        <time>2011-11-11T08:12:51Z</time>
      </trkpt>
      <trkpt lat="45.76862" lon="4.63226">
        <ele>728.84100341797</ele>
        <time>2011-11-11T08:12:53Z</time>
      </trkpt>
      <trkpt lat="45.76891" lon="4.63247">
        <ele>727.22900390625</ele>
        <time>2011-11-11T08:12:59Z</time>
      </trkpt>
      <trkpt lat="45.76907" lon="4.63254">
        <ele>726.52301025391</ele>
        <time>2011-11-11T08:13:03Z</time>
      </trkpt>
      <trkpt lat="45.76921" lon="4.63255">
        <ele>726.09497070312</ele>
        <time>2011-11-11T08:13:06Z</time>
      </trkpt>
      <trkpt lat="45.76936" lon="4.63268">
        <ele>725.72802734375</ele>
        <time>2011-11-11T08:13:11Z</time>
      </trkpt>
      <trkpt lat="45.76943" lon="4.63268">
        <ele>725.59802246094</ele>
        <time>2011-11-11T08:13:17Z</time>
      </trkpt>
      <trkpt lat="45.76944" lon="4.6327">
        <ele>725.59100341797</ele>
        <time>2011-11-11T08:13:19Z</time>
      </trkpt>
      <trkpt lat="45.76949" lon="4.63277">
        <ele>726.18103027344</ele>
        <time>2011-11-11T08:13:24Z</time>
      </trkpt>
      <trkpt lat="45.76954" lon="4.63293">
        <ele>728.38702392578</ele>
        <time>2011-11-11T08:13:31Z</time>
      </trkpt>
      <trkpt lat="45.76955" lon="4.63296">
        <ele>728.67700195312</ele>
        <time>2011-11-11T08:13:32Z</time>
      </trkpt>
      <trkpt lat="45.76958" lon="4.63304">
        <ele>729.60198974609</ele>
        <time>2011-11-11T08:13:36Z</time>
      </trkpt>
      <trkpt lat="45.76962" lon="4.63311">
        <ele>730.97100830078</ele>
        <time>2011-11-11T08:13:41Z</time>
      </trkpt>
      <trkpt lat="45.76966" lon="4.63319">
        <ele>732.05401611328</ele>
        <time>2011-11-11T08:13:45Z</time>
      </trkpt>
      <trkpt lat="45.76977" lon="4.63331">
        <ele>733.32000732422</ele>
        <time>2011-11-11T08:13:52Z</time>
      </trkpt>
      <trkpt lat="45.76982" lon="4.63343">
        <ele>733.89001464844</ele>
        <time>2011-11-11T08:13:58Z</time>
      </trkpt>
      <trkpt lat="45.76988" lon="4.63352">
        <ele>734.48498535156</ele>
        <time>2011-11-11T08:14:04Z</time>
      </trkpt>
      <trkpt lat="45.7699" lon="4.63355">
        <ele>734.63702392578</ele>
        <time>2011-11-11T08:14:06Z</time>
      </trkpt>
      <trkpt lat="45.76995" lon="4.63366">
        <ele>735.05798339844</ele>
        <time>2011-11-11T08:14:11Z</time>
      </trkpt>
      <trkpt lat="45.77" lon="4.63381">
        <ele>736.17797851562</ele>
        <time>2011-11-11T08:14:18Z</time>
      </trkpt>
      <trkpt lat="45.77005" lon="4.63387">
        <ele>736.48498535156</ele>
        <time>2011-11-11T08:14:21Z</time>
      </trkpt>
      <trkpt lat="45.77013" lon="4.63403">
        <ele>737.17999267578</ele>
        <time>2011-11-11T08:14:28Z</time>
      </trkpt>
      <trkpt lat="45.77013" lon="4.63415">
        <ele>738.20098876953</ele>
        <time>2011-11-11T08:14:33Z</time>
      </trkpt>
      <trkpt lat="45.7702" lon="4.63429">
        <ele>739.26800537109</ele>
        <time>2011-11-11T08:14:40Z</time>
      </trkpt>
      <trkpt lat="45.77028" lon="4.63443">
        <ele>738.84100341797</ele>
        <time>2011-11-11T08:14:46Z</time>
      </trkpt>
      <trkpt lat="45.77035" lon="4.63449">
        <ele>738.44897460938</ele>
        <time>2011-11-11T08:14:51Z</time>
      </trkpt>
      <trkpt lat="45.77051" lon="4.63456">
        <ele>738.26898193359</ele>
        <time>2011-11-11T08:15:05Z</time>
      </trkpt>
      <trkpt lat="45.7706" lon="4.63444">
        <ele>737.13397216797</ele>
        <time>2011-11-11T08:15:10Z</time>
      </trkpt>
      <trkpt lat="45.77062" lon="4.63437">
        <ele>736.28601074219</ele>
        <time>2011-11-11T08:15:12Z</time>
      </trkpt>
      <trkpt lat="45.77071" lon="4.63436">
        <ele>734.84197998047</ele>
        <time>2011-11-11T08:15:16Z</time>
      </trkpt>
      <trkpt lat="45.77084" lon="4.63432">
        <ele>732.27801513672</ele>
        <time>2011-11-11T08:15:21Z</time>
      </trkpt>
      <trkpt lat="45.77097" lon="4.63431">
        <ele>730.53900146484</ele>
        <time>2011-11-11T08:15:24Z</time>
      </trkpt>
      <trkpt lat="45.7711" lon="4.63443">
        <ele>728.47198486328</ele>
        <time>2011-11-11T08:15:28Z</time>
      </trkpt>
      <trkpt lat="45.77122" lon="4.63451">
        <ele>726.66198730469</ele>
        <time>2011-11-11T08:15:32Z</time>
      </trkpt>
      <trkpt lat="45.77139" lon="4.63451">
        <ele>725.08502197266</ele>
        <time>2011-11-11T08:15:36Z</time>
      </trkpt>
      <trkpt lat="45.77145" lon="4.63449">
        <ele>723.71398925781</ele>
        <time>2011-11-11T08:15:39Z</time>
      </trkpt>
      <trkpt lat="45.77156" lon="4.63445">
        <ele>722.21002197266</ele>
        <time>2011-11-11T08:15:43Z</time>
      </trkpt>
      <trkpt lat="45.77167" lon="4.63454">
        <ele>719.94598388672</ele>
        <time>2011-11-11T08:15:47Z</time>
      </trkpt>
      <trkpt lat="45.77173" lon="4.63461">
        <ele>717.91302490234</ele>
        <time>2011-11-11T08:15:50Z</time>
      </trkpt>
      <trkpt lat="45.77179" lon="4.63462">
        <ele>714.57702636719</ele>
        <time>2011-11-11T08:15:54Z</time>
      </trkpt>
      <trkpt lat="45.77182" lon="4.63473">
        <ele>711.10498046875</ele>
        <time>2011-11-11T08:15:59Z</time>
      </trkpt>
      <trkpt lat="45.77185" lon="4.63477">
        <ele>710.11199951172</ele>
        <time>2011-11-11T08:16:24Z</time>
      </trkpt>
      <trkpt lat="45.77179" lon="4.63491">
        <ele>710.29901123047</ele>
        <time>2011-11-11T08:16:31Z</time>
      </trkpt>
      <trkpt lat="45.77171" lon="4.63517">
        <ele>710.03997802734</ele>
        <time>2011-11-11T08:16:37Z</time>
      </trkpt>
      <trkpt lat="45.77166" lon="4.63533">
        <ele>708.90197753906</ele>
        <time>2011-11-11T08:16:41Z</time>
      </trkpt>
      <trkpt lat="45.77171" lon="4.63542">
        <ele>707.34899902344</ele>
        <time>2011-11-11T08:16:45Z</time>
      </trkpt>
      <trkpt lat="45.77168" lon="4.6356">
        <ele>705.16198730469</ele>
        <time>2011-11-11T08:16:49Z</time>
      </trkpt>
      <trkpt lat="45.77171" lon="4.63569">
        <ele>703.02801513672</ele>
        <time>2011-11-11T08:16:52Z</time>
      </trkpt>
      <trkpt lat="45.77177" lon="4.63572">
        <ele>701.5419921875</ele>
        <time>2011-11-11T08:16:55Z</time>
      </trkpt>
      <trkpt lat="45.77183" lon="4.63578">
        <ele>698.83099365234</ele>
        <time>2011-11-11T08:17:00Z</time>
      </trkpt>
      <trkpt lat="45.77188" lon="4.6358">
        <ele>697.77899169922</ele>
        <time>2011-11-11T08:17:24Z</time>
      </trkpt>
      <trkpt lat="45.77191" lon="4.63587">
        <ele>695.93499755859</ele>
        <time>2011-11-11T08:17:28Z</time>
      </trkpt>
      <trkpt lat="45.77188" lon="4.63604">
        <ele>692.42102050781</ele>
        <time>2011-11-11T08:17:34Z</time>
      </trkpt>
      <trkpt lat="45.77182" lon="4.63618">
        <ele>691.21502685547</ele>
        <time>2011-11-11T08:17:38Z</time>
      </trkpt>
      <trkpt lat="45.7718" lon="4.63621">
        <ele>690.95697021484</ele>
        <time>2011-11-11T08:17:39Z</time>
      </trkpt>
      <trkpt lat="45.77184" lon="4.63639">
        <ele>688.16497802734</ele>
        <time>2011-11-11T08:17:45Z</time>
      </trkpt>
      <trkpt lat="45.77184" lon="4.63642">
        <ele>688.16497802734</ele>
        <time>2011-11-11T08:17:46Z</time>
      </trkpt>
      <trkpt lat="45.77187" lon="4.63656">
        <ele>684.44097900391</ele>
        <time>2011-11-11T08:17:50Z</time>
      </trkpt>
      <trkpt lat="45.77199" lon="4.63669">
        <ele>680.81500244141</ele>
        <time>2011-11-11T08:17:54Z</time>
      </trkpt>
      <trkpt lat="45.77202" lon="4.63671">
        <ele>680.07897949219</ele>
        <time>2011-11-11T08:17:55Z</time>
      </trkpt>
      <trkpt lat="45.77223" lon="4.6368">
        <ele>677.47900390625</ele>
        <time>2011-11-11T08:18:01Z</time>
      </trkpt>
      <trkpt lat="45.77234" lon="4.63681">
        <ele>676.90698242188</ele>
        <time>2011-11-11T08:18:14Z</time>
      </trkpt>
      <trkpt lat="45.77224" lon="4.63692">
        <ele>676.55102539062</ele>
        <time>2011-11-11T08:18:19Z</time>
      </trkpt>
      <trkpt lat="45.77219" lon="4.63709">
        <ele>675.11700439453</ele>
        <time>2011-11-11T08:18:23Z</time>
      </trkpt>
      <trkpt lat="45.77219" lon="4.63713">
        <ele>674.63098144531</ele>
        <time>2011-11-11T08:18:24Z</time>
      </trkpt>
      <trkpt lat="45.77214" lon="4.63733">
        <ele>671.36602783203</ele>
        <time>2011-11-11T08:18:31Z</time>
      </trkpt>
      <trkpt lat="45.77214" lon="4.63734">
        <ele>671.19598388672</ele>
        <time>2011-11-11T08:18:32Z</time>
      </trkpt>
      <trkpt lat="45.77212" lon="4.63738">
        <ele>670.87799072266</ele>
        <time>2011-11-11T08:18:34Z</time>
      </trkpt>
      <trkpt lat="45.77202" lon="4.63752">
        <ele>670.47198486328</ele>
        <time>2011-11-11T08:18:40Z</time>
      </trkpt>
      <trkpt lat="45.77197" lon="4.63771">
        <ele>669.39398193359</ele>
        <time>2011-11-11T08:18:45Z</time>
      </trkpt>
      <trkpt lat="45.77193" lon="4.63786">
        <ele>667.31597900391</ele>
        <time>2011-11-11T08:18:49Z</time>
      </trkpt>
      <trkpt lat="45.77197" lon="4.63798">
        <ele>664.77099609375</ele>
        <time>2011-11-11T08:18:53Z</time>
      </trkpt>
      <trkpt lat="45.7721" lon="4.63805">
        <ele>662.15197753906</ele>
        <time>2011-11-11T08:18:58Z</time>
      </trkpt>
      <trkpt lat="45.77219" lon="4.63814">
        <ele>661.25799560547</ele>
        <time>2011-11-11T08:19:02Z</time>
      </trkpt>
      <trkpt lat="45.77221" lon="4.63836">
        <ele>659.77001953125</ele>
        <time>2011-11-11T08:19:08Z</time>
      </trkpt>
      <trkpt lat="45.77215" lon="4.63852">
        <ele>657.09899902344</ele>
        <time>2011-11-11T08:19:13Z</time>
      </trkpt>
      <trkpt lat="45.77212" lon="4.63865">
        <ele>655.26202392578</ele>
        <time>2011-11-11T08:19:16Z</time>
      </trkpt>
      <trkpt lat="45.77217" lon="4.63887">
        <ele>652.91998291016</ele>
        <time>2011-11-11T08:19:20Z</time>
      </trkpt>
      <trkpt lat="45.7722" lon="4.63916">
        <ele>649.37701416016</ele>
        <time>2011-11-11T08:19:26Z</time>
      </trkpt>
      <trkpt lat="45.7722" lon="4.6392">
        <ele>649.39501953125</ele>
        <time>2011-11-11T08:19:27Z</time>
      </trkpt>
      <trkpt lat="45.77223" lon="4.63941">
        <ele>647.26599121094</ele>
        <time>2011-11-11T08:19:31Z</time>
      </trkpt>
      <trkpt lat="45.77224" lon="4.63959">
        <ele>644.70697021484</ele>
        <time>2011-11-11T08:19:35Z</time>
      </trkpt>
      <trkpt lat="45.77224" lon="4.6397">
        <ele>642.16900634766</ele>
        <time>2011-11-11T08:19:39Z</time>
      </trkpt>
      <trkpt lat="45.77219" lon="4.63972">
        <ele>640.78399658203</ele>
        <time>2011-11-11T08:19:42Z</time>
      </trkpt>
      <trkpt lat="45.77211" lon="4.63981">
        <ele>638.60998535156</ele>
        <time>2011-11-11T08:19:46Z</time>
      </trkpt>
      <trkpt lat="45.77203" lon="4.63996">
        <ele>635.78802490234</ele>
        <time>2011-11-11T08:19:51Z</time>
      </trkpt>
      <trkpt lat="45.77206" lon="4.64013">
        <ele>634.43701171875</ele>
        <time>2011-11-11T08:19:55Z</time>
      </trkpt>
      <trkpt lat="45.7721" lon="4.64039">
        <ele>632.1669921875</ele>
        <time>2011-11-11T08:20:00Z</time>
      </trkpt>
      <trkpt lat="45.77213" lon="4.64053">
        <ele>630.14599609375</ele>
        <time>2011-11-11T08:20:05Z</time>
      </trkpt>
      <trkpt lat="45.77221" lon="4.64054">
        <ele>629.58898925781</ele>
        <time>2011-11-11T08:20:44Z</time>
      </trkpt>
      <trkpt lat="45.77221" lon="4.64052">
        <ele>629.6259765625</ele>
        <time>2011-11-11T08:20:51Z</time>
      </trkpt>
      <trkpt lat="45.77228" lon="4.64051">
        <ele>629.65197753906</ele>
        <time>2011-11-11T08:21:15Z</time>
      </trkpt>
      <trkpt lat="45.77227" lon="4.64055">
        <ele>629.71099853516</ele>
        <time>2011-11-11T08:21:21Z</time>
      </trkpt>
      <trkpt lat="45.77226" lon="4.64053">
        <ele>629.74200439453</ele>
        <time>2011-11-11T08:21:36Z</time>
      </trkpt>
      <trkpt lat="45.77217" lon="4.64059">
        <ele>628.38702392578</ele>
        <time>2011-11-11T08:21:42Z</time>
      </trkpt>
      <trkpt lat="45.7721" lon="4.64067">
        <ele>625.40698242188</ele>
        <time>2011-11-11T08:21:47Z</time>
      </trkpt>
      <trkpt lat="45.77202" lon="4.64066">
        <ele>623.02398681641</ele>
        <time>2011-11-11T08:21:51Z</time>
      </trkpt>
      <trkpt lat="45.77189" lon="4.64072">
        <ele>619.63598632812</ele>
        <time>2011-11-11T08:21:57Z</time>
      </trkpt>
      <trkpt lat="45.77181" lon="4.64073">
        <ele>618.94396972656</ele>
        <time>2011-11-11T08:22:00Z</time>
      </trkpt>
      <trkpt lat="45.77169" lon="4.64086">
        <ele>618.50201416016</ele>
        <time>2011-11-11T08:22:05Z</time>
      </trkpt>
      <trkpt lat="45.77163" lon="4.64104">
        <ele>615.98101806641</ele>
        <time>2011-11-11T08:22:10Z</time>
      </trkpt>
      <trkpt lat="45.77158" lon="4.6411">
        <ele>613.76800537109</ele>
        <time>2011-11-11T08:22:13Z</time>
      </trkpt>
      <trkpt lat="45.77159" lon="4.64129">
        <ele>610.31402587891</ele>
        <time>2011-11-11T08:22:19Z</time>
      </trkpt>
      <trkpt lat="45.77161" lon="4.64133">
        <ele>609.84497070312</ele>
        <time>2011-11-11T08:22:20Z</time>
      </trkpt>
      <trkpt lat="45.77174" lon="4.64157">
        <ele>607.56201171875</ele>
        <time>2011-11-11T08:22:25Z</time>
      </trkpt>
      <trkpt lat="45.77189" lon="4.64173">
        <ele>605.17498779297</ele>
        <time>2011-11-11T08:22:30Z</time>
      </trkpt>
      <trkpt lat="45.77201" lon="4.6418">
        <ele>603.94201660156</ele>
        <time>2011-11-11T08:22:34Z</time>
      </trkpt>
      <trkpt lat="45.77203" lon="4.64181">
        <ele>603.30200195312</ele>
        <time>2011-11-11T08:22:40Z</time>
      </trkpt>
      <trkpt lat="45.77205" lon="4.64181">
        <ele>603.28698730469</ele>
        <time>2011-11-11T08:23:03Z</time>
      </trkpt>
      <trkpt lat="45.77208" lon="4.64182">
        <ele>603.31402587891</ele>
        <time>2011-11-11T08:23:12Z</time>
      </trkpt>
      <trkpt lat="45.7721" lon="4.64182">
        <ele>603.57800292969</ele>
        <time>2011-11-11T08:23:19Z</time>
      </trkpt>
      <trkpt lat="45.77212" lon="4.64181">
        <ele>603.88299560547</ele>
        <time>2011-11-11T08:23:27Z</time>
      </trkpt>
      <trkpt lat="45.77221" lon="4.64182">
        <ele>604</ele>
        <time>2011-11-11T08:23:33Z</time>
      </trkpt>
      <trkpt lat="45.77227" lon="4.64185">
        <ele>604.46002197266</ele>
        <time>2011-11-11T08:23:37Z</time>
      </trkpt>
      <trkpt lat="45.77244" lon="4.6419">
        <ele>605.17102050781</ele>
        <time>2011-11-11T08:23:44Z</time>
      </trkpt>
      <trkpt lat="45.77266" lon="4.64199">
        <ele>605.14898681641</ele>
        <time>2011-11-11T08:23:50Z</time>
      </trkpt>
      <trkpt lat="45.77278" lon="4.64203">
        <ele>604.89501953125</ele>
        <time>2011-11-11T08:23:54Z</time>
      </trkpt>
      <trkpt lat="45.77284" lon="4.64207">
        <ele>604.52899169922</ele>
        <time>2011-11-11T08:23:57Z</time>
      </trkpt>
      <trkpt lat="45.773" lon="4.64202">
        <ele>604.21600341797</ele>
        <time>2011-11-11T08:24:03Z</time>
      </trkpt>
      <trkpt lat="45.77316" lon="4.64189">
        <ele>604.19799804688</ele>
        <time>2011-11-11T08:24:08Z</time>
      </trkpt>
      <trkpt lat="45.77338" lon="4.64166">
        <ele>603.70202636719</ele>
        <time>2011-11-11T08:24:14Z</time>
      </trkpt>
      <trkpt lat="45.77354" lon="4.6414">
        <ele>603.96502685547</ele>
        <time>2011-11-11T08:24:20Z</time>
      </trkpt>
      <trkpt lat="45.77365" lon="4.64116">
        <ele>604.48699951172</ele>
        <time>2011-11-11T08:24:25Z</time>
      </trkpt>
      <trkpt lat="45.77379" lon="4.64089">
        <ele>604.67901611328</ele>
        <time>2011-11-11T08:24:30Z</time>
      </trkpt>
      <trkpt lat="45.77389" lon="4.64066">
        <ele>604.76800537109</ele>
        <time>2011-11-11T08:24:35Z</time>
      </trkpt>
      <trkpt lat="45.77401" lon="4.64038">
        <ele>604.64300537109</ele>
        <time>2011-11-11T08:24:40Z</time>
      </trkpt>
      <trkpt lat="45.77403" lon="4.64032">
        <ele>604.61999511719</ele>
        <time>2011-11-11T08:24:41Z</time>
      </trkpt>
      <trkpt lat="45.7742" lon="4.64">
        <ele>604.01202392578</ele>
        <time>2011-11-11T08:24:47Z</time>
      </trkpt>
      <trkpt lat="45.77437" lon="4.63979">
        <ele>603.07800292969</ele>
        <time>2011-11-11T08:24:51Z</time>
      </trkpt>
      <trkpt lat="45.7745" lon="4.63973">
        <ele>602.60302734375</ele>
        <time>2011-11-11T08:24:53Z</time>
      </trkpt>
      <trkpt lat="45.77469" lon="4.63968">
        <ele>601.76397705078</ele>
        <time>2011-11-11T08:24:56Z</time>
      </trkpt>
      <trkpt lat="45.77486" lon="4.63965">
        <ele>601.30297851562</ele>
        <time>2011-11-11T08:24:59Z</time>
      </trkpt>
      <trkpt lat="45.77505" lon="4.63958">
        <ele>600.10699462891</ele>
        <time>2011-11-11T08:25:04Z</time>
      </trkpt>
      <trkpt lat="45.77515" lon="4.63948">
        <ele>600.13897705078</ele>
        <time>2011-11-11T08:25:09Z</time>
      </trkpt>
      <trkpt lat="45.77526" lon="4.63937">
        <ele>600.96502685547</ele>
        <time>2011-11-11T08:25:13Z</time>
      </trkpt>
      <trkpt lat="45.77534" lon="4.63929">
        <ele>601.30999755859</ele>
        <time>2011-11-11T08:25:16Z</time>
      </trkpt>
      <trkpt lat="45.7754" lon="4.6392">
        <ele>601.77301025391</ele>
        <time>2011-11-11T08:25:19Z</time>
      </trkpt>
      <trkpt lat="45.77549" lon="4.63902">
        <ele>602.97497558594</ele>
        <time>2011-11-11T08:25:24Z</time>
      </trkpt>
      <trkpt lat="45.77563" lon="4.6388">
        <ele>604.34197998047</ele>
        <time>2011-11-11T08:25:30Z</time>
      </trkpt>
      <trkpt lat="45.77573" lon="4.63864">
        <ele>604.96801757812</ele>
        <time>2011-11-11T08:25:35Z</time>
      </trkpt>
      <trkpt lat="45.77579" lon="4.63856">
        <ele>605.49499511719</ele>
        <time>2011-11-11T08:25:40Z</time>
      </trkpt>
      <trkpt lat="45.77592" lon="4.63862">
        <ele>605.52001953125</ele>
        <time>2011-11-11T08:25:45Z</time>
      </trkpt>
      <trkpt lat="45.77607" lon="4.63872">
        <ele>605.46099853516</ele>
        <time>2011-11-11T08:25:50Z</time>
      </trkpt>
      <trkpt lat="45.77626" lon="4.63883">
        <ele>605.625</ele>
        <time>2011-11-11T08:25:56Z</time>
      </trkpt>
      <trkpt lat="45.77644" lon="4.63893">
        <ele>606.24798583984</ele>
        <time>2011-11-11T08:26:02Z</time>
      </trkpt>
      <trkpt lat="45.77663" lon="4.63903">
        <ele>607.29498291016</ele>
        <time>2011-11-11T08:26:09Z</time>
      </trkpt>
      <trkpt lat="45.77681" lon="4.63916">
        <ele>608.96301269531</ele>
        <time>2011-11-11T08:26:17Z</time>
      </trkpt>
      <trkpt lat="45.77699" lon="4.63927">
        <ele>609.41900634766</ele>
        <time>2011-11-11T08:26:23Z</time>
      </trkpt>
      <trkpt lat="45.77714" lon="4.63929">
        <ele>608.77600097656</ele>
        <time>2011-11-11T08:26:27Z</time>
      </trkpt>
      <trkpt lat="45.77729" lon="4.6393">
        <ele>607.92297363281</ele>
        <time>2011-11-11T08:26:32Z</time>
      </trkpt>
      <trkpt lat="45.77735" lon="4.63933">
        <ele>607.28002929688</ele>
        <time>2011-11-11T08:26:36Z</time>
      </trkpt>
      <trkpt lat="45.77745" lon="4.6394">
        <ele>606.416015625</ele>
        <time>2011-11-11T08:28:27Z</time>
      </trkpt>
      <trkpt lat="45.77758" lon="4.63954">
        <ele>605.82598876953</ele>
        <time>2011-11-11T08:28:33Z</time>
      </trkpt>
      <trkpt lat="45.77774" lon="4.63969">
        <ele>605.57800292969</ele>
        <time>2011-11-11T08:28:38Z</time>
      </trkpt>
      <trkpt lat="45.77785" lon="4.63984">
        <ele>605.44000244141</ele>
        <time>2011-11-11T08:28:44Z</time>
      </trkpt>
      <trkpt lat="45.77786" lon="4.63986">
        <ele>605.43798828125</ele>
        <time>2011-11-11T08:28:45Z</time>
      </trkpt>
      <trkpt lat="45.77793" lon="4.63996">
        <ele>604.458984375</ele>
        <time>2011-11-11T08:28:51Z</time>
      </trkpt>
      <trkpt lat="45.77795" lon="4.63998">
        <ele>604.40502929688</ele>
        <time>2011-11-11T08:28:52Z</time>
      </trkpt>
      <trkpt lat="45.77802" lon="4.64009">
        <ele>604.38000488281</ele>
        <time>2011-11-11T08:28:57Z</time>
      </trkpt>
      <trkpt lat="45.77803" lon="4.64025">
        <ele>603.73699951172</ele>
        <time>2011-11-11T08:29:02Z</time>
      </trkpt>
      <trkpt lat="45.77808" lon="4.6406">
        <ele>602.31597900391</ele>
        <time>2011-11-11T08:29:08Z</time>
      </trkpt>
      <trkpt lat="45.77808" lon="4.64088">
        <ele>600.85400390625</ele>
        <time>2011-11-11T08:29:12Z</time>
      </trkpt>
      <trkpt lat="45.77811" lon="4.6411">
        <ele>599.82598876953</ele>
        <time>2011-11-11T08:29:15Z</time>
      </trkpt>
      <trkpt lat="45.77816" lon="4.64151">
        <ele>599.07598876953</ele>
        <time>2011-11-11T08:29:21Z</time>
      </trkpt>
      <trkpt lat="45.77817" lon="4.64158">
        <ele>598.97900390625</ele>
        <time>2011-11-11T08:29:22Z</time>
      </trkpt>
      <trkpt lat="45.77819" lon="4.6418">
        <ele>598.84600830078</ele>
        <time>2011-11-11T08:29:25Z</time>
      </trkpt>
      <trkpt lat="45.77822" lon="4.64199">
        <ele>598.66900634766</ele>
        <time>2011-11-11T08:29:28Z</time>
      </trkpt>
      <trkpt lat="45.77832" lon="4.6423">
        <ele>598.56097412109</ele>
        <time>2011-11-11T08:29:34Z</time>
      </trkpt>
      <trkpt lat="45.77833" lon="4.64234">
        <ele>598.52899169922</ele>
        <time>2011-11-11T08:29:35Z</time>
      </trkpt>
      <trkpt lat="45.77825" lon="4.64255">
        <ele>598.63897705078</ele>
        <time>2011-11-11T08:29:40Z</time>
      </trkpt>
      <trkpt lat="45.77813" lon="4.64262">
        <ele>597.76501464844</ele>
        <time>2011-11-11T08:29:43Z</time>
      </trkpt>
      <trkpt lat="45.77806" lon="4.64263">
        <ele>596.61999511719</ele>
        <time>2011-11-11T08:29:45Z</time>
      </trkpt>
      <trkpt lat="45.77797" lon="4.64255">
        <ele>593.48699951172</ele>
        <time>2011-11-11T08:29:49Z</time>
      </trkpt>
      <trkpt lat="45.77788" lon="4.64268">
        <ele>589.91998291016</ele>
        <time>2011-11-11T08:29:54Z</time>
      </trkpt>
      <trkpt lat="45.77779" lon="4.64275">
        <ele>586.90600585938</ele>
        <time>2011-11-11T08:29:58Z</time>
      </trkpt>
      <trkpt lat="45.77774" lon="4.64287">
        <ele>585.24798583984</ele>
        <time>2011-11-11T08:30:01Z</time>
      </trkpt>
      <trkpt lat="45.77771" lon="4.6429">
        <ele>584.45599365234</ele>
        <time>2011-11-11T08:30:02Z</time>
      </trkpt>
      <trkpt lat="45.77764" lon="4.64302">
        <ele>581.67602539062</ele>
        <time>2011-11-11T08:30:06Z</time>
      </trkpt>
      <trkpt lat="45.77753" lon="4.64308">
        <ele>578.15698242188</ele>
        <time>2011-11-11T08:30:11Z</time>
      </trkpt>
      <trkpt lat="45.77751" lon="4.64311">
        <ele>575.98999023438</ele>
        <time>2011-11-11T08:30:14Z</time>
      </trkpt>
      <trkpt lat="45.77752" lon="4.64311">
        <ele>574.39801025391</ele>
        <time>2011-11-11T08:30:23Z</time>
      </trkpt>
      <trkpt lat="45.77757" lon="4.64309">
        <ele>574.98797607422</ele>
        <time>2011-11-11T08:30:29Z</time>
      </trkpt>
      <trkpt lat="45.77756" lon="4.64309">
        <ele>575.37701416016</ele>
        <time>2011-11-11T08:30:31Z</time>
      </trkpt>
      <trkpt lat="45.77751" lon="4.64318">
        <ele>575.05902099609</ele>
        <time>2011-11-11T08:30:36Z</time>
      </trkpt>
      <trkpt lat="45.77741" lon="4.64334">
        <ele>572.59997558594</ele>
        <time>2011-11-11T08:30:41Z</time>
      </trkpt>
      <trkpt lat="45.77728" lon="4.64348">
        <ele>568.91802978516</ele>
        <time>2011-11-11T08:30:46Z</time>
      </trkpt>
      <trkpt lat="45.77724" lon="4.64351">
        <ele>567.9990234375</ele>
        <time>2011-11-11T08:30:47Z</time>
      </trkpt>
      <trkpt lat="45.77718" lon="4.64358">
        <ele>567.06500244141</ele>
        <time>2011-11-11T08:30:49Z</time>
      </trkpt>
      <trkpt lat="45.77711" lon="4.64369">
        <ele>565.23297119141</ele>
        <time>2011-11-11T08:30:51Z</time>
      </trkpt>
      <trkpt lat="45.77698" lon="4.6439">
        <ele>561.61602783203</ele>
        <time>2011-11-11T08:30:55Z</time>
      </trkpt>
      <trkpt lat="45.77684" lon="4.64415">
        <ele>557.80401611328</ele>
        <time>2011-11-11T08:31:00Z</time>
      </trkpt>
      <trkpt lat="45.77681" lon="4.64419">
        <ele>557.10601806641</ele>
        <time>2011-11-11T08:31:01Z</time>
      </trkpt>
      <trkpt lat="45.77663" lon="4.64446">
        <ele>553.11401367188</ele>
        <time>2011-11-11T08:31:06Z</time>
      </trkpt>
      <trkpt lat="45.77652" lon="4.64472">
        <ele>549.60900878906</ele>
        <time>2011-11-11T08:31:11Z</time>
      </trkpt>
      <trkpt lat="45.77642" lon="4.64494">
        <ele>546.42199707031</ele>
        <time>2011-11-11T08:31:15Z</time>
      </trkpt>
      <trkpt lat="45.77639" lon="4.645">
        <ele>546.44097900391</ele>
        <time>2011-11-11T08:31:16Z</time>
      </trkpt>
      <trkpt lat="45.77634" lon="4.64511">
        <ele>544.56402587891</ele>
        <time>2011-11-11T08:31:18Z</time>
      </trkpt>
      <trkpt lat="45.77622" lon="4.64528">
        <ele>540.56500244141</ele>
        <time>2011-11-11T08:31:22Z</time>
      </trkpt>
      <trkpt lat="45.77613" lon="4.64537">
        <ele>537.33099365234</ele>
        <time>2011-11-11T08:31:25Z</time>
      </trkpt>
      <trkpt lat="45.77606" lon="4.64561">
        <ele>532.50701904297</ele>
        <time>2011-11-11T08:31:30Z</time>
      </trkpt>
      <trkpt lat="45.77608" lon="4.6457">
        <ele>530.98999023438</ele>
        <time>2011-11-11T08:31:32Z</time>
      </trkpt>
      <trkpt lat="45.7761" lon="4.64574">
        <ele>528.34002685547</ele>
        <time>2011-11-11T08:31:37Z</time>
      </trkpt>
      <trkpt lat="45.77615" lon="4.64574">
        <ele>527.90399169922</ele>
        <time>2011-11-11T08:31:54Z</time>
      </trkpt>
      <trkpt lat="45.77617" lon="4.64572">
        <ele>528.23101806641</ele>
        <time>2011-11-11T08:32:19Z</time>
      </trkpt>
      <trkpt lat="45.77614" lon="4.64572">
        <ele>528.25701904297</ele>
        <time>2011-11-11T08:32:56Z</time>
      </trkpt>
      <trkpt lat="45.77607" lon="4.64583">
        <ele>527.96398925781</ele>
        <time>2011-11-11T08:33:01Z</time>
      </trkpt>
      <trkpt lat="45.77604" lon="4.64587">
        <ele>527.72497558594</ele>
        <time>2011-11-11T08:33:02Z</time>
      </trkpt>
      <trkpt lat="45.77586" lon="4.64607">
        <ele>523.99298095703</ele>
        <time>2011-11-11T08:33:08Z</time>
      </trkpt>
      <trkpt lat="45.77578" lon="4.64612">
        <ele>522.35400390625</ele>
        <time>2011-11-11T08:33:10Z</time>
      </trkpt>
      <trkpt lat="45.77562" lon="4.6462">
        <ele>519.20001220703</ele>
        <time>2011-11-11T08:33:14Z</time>
      </trkpt>
      <trkpt lat="45.77547" lon="4.6462">
        <ele>515.57501220703</ele>
        <time>2011-11-11T08:33:18Z</time>
      </trkpt>
      <trkpt lat="45.77537" lon="4.64623">
        <ele>513.62097167969</ele>
        <time>2011-11-11T08:33:21Z</time>
      </trkpt>
      <trkpt lat="45.77535" lon="4.64622">
        <ele>512.68200683594</ele>
        <time>2011-11-11T08:33:22Z</time>
      </trkpt>
      <trkpt lat="45.77528" lon="4.64617">
        <ele>510.13101196289</ele>
        <time>2011-11-11T08:33:25Z</time>
      </trkpt>
      <trkpt lat="45.77525" lon="4.6461">
        <ele>508.39498901367</ele>
        <time>2011-11-11T08:33:28Z</time>
      </trkpt>
      <trkpt lat="45.77524" lon="4.64593">
        <ele>506.92599487305</ele>
        <time>2011-11-11T08:33:34Z</time>
      </trkpt>
      <trkpt lat="45.77527" lon="4.64577">
        <ele>507.37200927734</ele>
        <time>2011-11-11T08:33:39Z</time>
      </trkpt>
      <trkpt lat="45.77533" lon="4.64568">
        <ele>508.61898803711</ele>
        <time>2011-11-11T08:33:44Z</time>
      </trkpt>
      <trkpt lat="45.77537" lon="4.64556">
        <ele>509.89898681641</ele>
        <time>2011-11-11T08:33:50Z</time>
      </trkpt>
      <trkpt lat="45.7754" lon="4.64541">
        <ele>510.64999389648</ele>
        <time>2011-11-11T08:33:57Z</time>
      </trkpt>
      <trkpt lat="45.77542" lon="4.64527">
        <ele>511.35101318359</ele>
        <time>2011-11-11T08:34:03Z</time>
      </trkpt>
      <trkpt lat="45.77543" lon="4.64507">
        <ele>511.47198486328</ele>
        <time>2011-11-11T08:34:09Z</time>
      </trkpt>
      <trkpt lat="45.77542" lon="4.64503">
        <ele>511.49600219727</ele>
        <time>2011-11-11T08:34:10Z</time>
      </trkpt>
      <trkpt lat="45.77544" lon="4.64489">
        <ele>511.47799682617</ele>
        <time>2011-11-11T08:34:14Z</time>
      </trkpt>
      <trkpt lat="45.77546" lon="4.64468">
        <ele>511.98300170898</ele>
        <time>2011-11-11T08:34:20Z</time>
      </trkpt>
      <trkpt lat="45.77547" lon="4.64466">
        <ele>512.10498046875</ele>
        <time>2011-11-11T08:34:21Z</time>
      </trkpt>
      <trkpt lat="45.77556" lon="4.64452">
        <ele>513.99597167969</ele>
        <time>2011-11-11T08:34:28Z</time>
      </trkpt>
      <trkpt lat="45.77562" lon="4.64437">
        <ele>515.33599853516</ele>
        <time>2011-11-11T08:34:33Z</time>
      </trkpt>
      <trkpt lat="45.77563" lon="4.64416">
        <ele>515.18597412109</ele>
        <time>2011-11-11T08:34:38Z</time>
      </trkpt>
      <trkpt lat="45.77562" lon="4.64414">
        <ele>514.93200683594</ele>
        <time>2011-11-11T08:34:39Z</time>
      </trkpt>
      <trkpt lat="45.77565" lon="4.644">
        <ele>513.55499267578</ele>
        <time>2011-11-11T08:34:43Z</time>
      </trkpt>
      <trkpt lat="45.7757" lon="4.64385">
        <ele>512.40399169922</ele>
        <time>2011-11-11T08:34:50Z</time>
      </trkpt>
      <trkpt lat="45.77572" lon="4.64385">
        <ele>512.44500732422</ele>
        <time>2011-11-11T08:34:52Z</time>
      </trkpt>
      <trkpt lat="45.77562" lon="4.6438">
        <ele>512.14898681641</ele>
        <time>2011-11-11T08:34:57Z</time>
      </trkpt>
      <trkpt lat="45.77544" lon="4.64364">
        <ele>510.47601318359</ele>
        <time>2011-11-11T08:35:03Z</time>
      </trkpt>
      <trkpt lat="45.77527" lon="4.64359">
        <ele>508.79699707031</ele>
        <time>2011-11-11T08:35:07Z</time>
      </trkpt>
      <trkpt lat="45.77512" lon="4.64367">
        <ele>508.07998657227</ele>
        <time>2011-11-11T08:35:12Z</time>
      </trkpt>
      <trkpt lat="45.77496" lon="4.64377">
        <ele>508.0830078125</ele>
        <time>2011-11-11T08:35:18Z</time>
      </trkpt>
      <trkpt lat="45.77483" lon="4.64389">
        <ele>508.18798828125</ele>
        <time>2011-11-11T08:35:24Z</time>
      </trkpt>
      <trkpt lat="45.77473" lon="4.64402">
        <ele>509.92199707031</ele>
        <time>2011-11-11T08:35:30Z</time>
      </trkpt>
      <trkpt lat="45.77459" lon="4.64422">
        <ele>512.90600585938</ele>
        <time>2011-11-11T08:35:37Z</time>
      </trkpt>
      <trkpt lat="45.77446" lon="4.64432">
        <ele>514.33001708984</ele>
        <time>2011-11-11T08:35:43Z</time>
      </trkpt>
      <trkpt lat="45.77436" lon="4.64442">
        <ele>515.375</ele>
        <time>2011-11-11T08:35:47Z</time>
      </trkpt>
      <trkpt lat="45.77423" lon="4.64455">
        <ele>516.68499755859</ele>
        <time>2011-11-11T08:35:52Z</time>
      </trkpt>
      <trkpt lat="45.7741" lon="4.64469">
        <ele>517.34899902344</ele>
        <time>2011-11-11T08:35:57Z</time>
      </trkpt>
      <trkpt lat="45.77395" lon="4.64482">
        <ele>517.94201660156</ele>
        <time>2011-11-11T08:36:02Z</time>
      </trkpt>
      <trkpt lat="45.7738" lon="4.64504">
        <ele>517.94598388672</ele>
        <time>2011-11-11T08:36:07Z</time>
      </trkpt>
      <trkpt lat="45.77362" lon="4.64525">
        <ele>516.31896972656</ele>
        <time>2011-11-11T08:36:12Z</time>
      </trkpt>
      <trkpt lat="45.77347" lon="4.64533">
        <ele>513.98797607422</ele>
        <time>2011-11-11T08:36:16Z</time>
      </trkpt>
      <trkpt lat="45.7734" lon="4.64537">
        <ele>513.35601806641</ele>
        <time>2011-11-11T08:36:18Z</time>
      </trkpt>
      <trkpt lat="45.77331" lon="4.64539">
        <ele>511.51599121094</ele>
        <time>2011-11-11T08:36:21Z</time>
      </trkpt>
      <trkpt lat="45.77307" lon="4.64542">
        <ele>509.0830078125</ele>
        <time>2011-11-11T08:36:27Z</time>
      </trkpt>
      <trkpt lat="45.77294" lon="4.64541">
        <ele>508.85400390625</ele>
        <time>2011-11-11T08:36:32Z</time>
      </trkpt>
      <trkpt lat="45.77279" lon="4.64532">
        <ele>510.08700561523</ele>
        <time>2011-11-11T08:36:38Z</time>
      </trkpt>
      <trkpt lat="45.77269" lon="4.64524">
        <ele>510.49899291992</ele>
        <time>2011-11-11T08:36:43Z</time>
      </trkpt>
      <trkpt lat="45.77264" lon="4.6452">
        <ele>510.32400512695</ele>
        <time>2011-11-11T08:36:46Z</time>
      </trkpt>
      <trkpt lat="45.77258" lon="4.64521">
        <ele>509.72500610352</ele>
        <time>2011-11-11T08:36:49Z</time>
      </trkpt>
      <trkpt lat="45.77251" lon="4.6454">
        <ele>507.74700927734</ele>
        <time>2011-11-11T08:36:55Z</time>
      </trkpt>
      <trkpt lat="45.77254" lon="4.64549">
        <ele>507.38598632812</ele>
        <time>2011-11-11T08:36:57Z</time>
      </trkpt>
      <trkpt lat="45.77264" lon="4.64575">
        <ele>507.91198730469</ele>
        <time>2011-11-11T08:37:02Z</time>
      </trkpt>
      <trkpt lat="45.77267" lon="4.64598">
        <ele>509.0950012207</ele>
        <time>2011-11-11T08:37:06Z</time>
      </trkpt>
      <trkpt lat="45.77261" lon="4.6463">
        <ele>509.4469909668</ele>
        <time>2011-11-11T08:37:11Z</time>
      </trkpt>
      <trkpt lat="45.77259" lon="4.64642">
        <ele>509.28601074219</ele>
        <time>2011-11-11T08:37:13Z</time>
      </trkpt>
      <trkpt lat="45.77259" lon="4.64665">
        <ele>508.9700012207</ele>
        <time>2011-11-11T08:37:17Z</time>
      </trkpt>
      <trkpt lat="45.77251" lon="4.64692">
        <ele>509.13598632812</ele>
        <time>2011-11-11T08:37:22Z</time>
      </trkpt>
      <trkpt lat="45.77249" lon="4.64697">
        <ele>509.25698852539</ele>
        <time>2011-11-11T08:37:23Z</time>
      </trkpt>
      <trkpt lat="45.77241" lon="4.64717">
        <ele>509.44299316406</ele>
        <time>2011-11-11T08:37:26Z</time>
      </trkpt>
      <trkpt lat="45.77227" lon="4.64742">
        <ele>508.83700561523</ele>
        <time>2011-11-11T08:37:30Z</time>
      </trkpt>
      <trkpt lat="45.77219" lon="4.6475">
        <ele>508.00201416016</ele>
        <time>2011-11-11T08:37:32Z</time>
      </trkpt>
      <trkpt lat="45.772" lon="4.64766">
        <ele>506.19500732422</ele>
        <time>2011-11-11T08:37:36Z</time>
      </trkpt>
      <trkpt lat="45.77187" lon="4.64771">
        <ele>504.97100830078</ele>
        <time>2011-11-11T08:37:38Z</time>
      </trkpt>
      <trkpt lat="45.77165" lon="4.64765">
        <ele>502.90100097656</ele>
        <time>2011-11-11T08:37:42Z</time>
      </trkpt>
      <trkpt lat="45.7714" lon="4.6475">
        <ele>501.01501464844</ele>
        <time>2011-11-11T08:37:47Z</time>
      </trkpt>
      <trkpt lat="45.77126" lon="4.64743">
        <ele>500.45300292969</ele>
        <time>2011-11-11T08:37:50Z</time>
      </trkpt>
      <trkpt lat="45.77102" lon="4.64749">
        <ele>500.85400390625</ele>
        <time>2011-11-11T08:37:55Z</time>
      </trkpt>
      <trkpt lat="45.77094" lon="4.6476">
        <ele>501.75</ele>
        <time>2011-11-11T08:37:59Z</time>
      </trkpt>
      <trkpt lat="45.77089" lon="4.64771">
        <ele>502.39300537109</ele>
        <time>2011-11-11T08:38:02Z</time>
      </trkpt>
      <trkpt lat="45.77078" lon="4.64798">
        <ele>504.76699829102</ele>
        <time>2011-11-11T08:38:09Z</time>
      </trkpt>
      <trkpt lat="45.77074" lon="4.64812">
        <ele>505.81100463867</ele>
        <time>2011-11-11T08:38:13Z</time>
      </trkpt>
      <trkpt lat="45.77072" lon="4.6483">
        <ele>506.90899658203</ele>
        <time>2011-11-11T08:38:17Z</time>
      </trkpt>
      <trkpt lat="45.77069" lon="4.64849">
        <ele>508.38598632812</ele>
        <time>2011-11-11T08:38:22Z</time>
      </trkpt>
      <trkpt lat="45.77063" lon="4.64866">
        <ele>508.81900024414</ele>
        <time>2011-11-11T08:38:26Z</time>
      </trkpt>
      <trkpt lat="45.77057" lon="4.64891">
        <ele>509.125</ele>
        <time>2011-11-11T08:38:31Z</time>
      </trkpt>
      <trkpt lat="45.77053" lon="4.64927">
        <ele>509.1969909668</ele>
        <time>2011-11-11T08:38:37Z</time>
      </trkpt>
      <trkpt lat="45.77051" lon="4.64932">
        <ele>509.19100952148</ele>
        <time>2011-11-11T08:38:38Z</time>
      </trkpt>
      <trkpt lat="45.77039" lon="4.64959">
        <ele>508.92199707031</ele>
        <time>2011-11-11T08:38:43Z</time>
      </trkpt>
      <trkpt lat="45.77016" lon="4.64994">
        <ele>508.27099609375</ele>
        <time>2011-11-11T08:38:51Z</time>
      </trkpt>
      <trkpt lat="45.77006" lon="4.64996">
        <ele>508.04501342773</ele>
        <time>2011-11-11T08:38:55Z</time>
      </trkpt>
      <trkpt lat="45.77001" lon="4.64987">
        <ele>508.44400024414</ele>
        <time>2011-11-11T08:39:00Z</time>
      </trkpt>
      <trkpt lat="45.77" lon="4.64986">
        <ele>508.67401123047</ele>
        <time>2011-11-11T08:39:01Z</time>
      </trkpt>
      <trkpt lat="45.76994" lon="4.64971">
        <ele>510.45700073242</ele>
        <time>2011-11-11T08:39:09Z</time>
      </trkpt>
      <trkpt lat="45.7699" lon="4.64959">
        <ele>511.88000488281</ele>
        <time>2011-11-11T08:39:16Z</time>
      </trkpt>
      <trkpt lat="45.76986" lon="4.64943">
        <ele>513.25</ele>
        <time>2011-11-11T08:39:24Z</time>
      </trkpt>
      <trkpt lat="45.76982" lon="4.64925">
        <ele>514.40399169922</ele>
        <time>2011-11-11T08:39:31Z</time>
      </trkpt>
      <trkpt lat="45.76978" lon="4.6491">
        <ele>516.09997558594</ele>
        <time>2011-11-11T08:39:37Z</time>
      </trkpt>
      <trkpt lat="45.76975" lon="4.64895">
        <ele>517.79797363281</ele>
        <time>2011-11-11T08:39:43Z</time>
      </trkpt>
      <trkpt lat="45.76975" lon="4.64892">
        <ele>518.18798828125</ele>
        <time>2011-11-11T08:39:44Z</time>
      </trkpt>
      <trkpt lat="45.76971" lon="4.64883">
        <ele>519.82299804688</ele>
        <time>2011-11-11T08:39:49Z</time>
      </trkpt>
      <trkpt lat="45.76967" lon="4.64874">
        <ele>520.27001953125</ele>
        <time>2011-11-11T08:39:53Z</time>
      </trkpt>
      <trkpt lat="45.7696" lon="4.64866">
        <ele>521.14202880859</ele>
        <time>2011-11-11T08:39:58Z</time>
      </trkpt>
      <trkpt lat="45.76954" lon="4.64856">
        <ele>522.72100830078</ele>
        <time>2011-11-11T08:40:03Z</time>
      </trkpt>
      <trkpt lat="45.76948" lon="4.6485">
        <ele>523.81799316406</ele>
        <time>2011-11-11T08:40:08Z</time>
      </trkpt>
      <trkpt lat="45.76947" lon="4.64844">
        <ele>524.68103027344</ele>
        <time>2011-11-11T08:40:11Z</time>
      </trkpt>
      <trkpt lat="45.76946" lon="4.64836">
        <ele>525.33898925781</ele>
        <time>2011-11-11T08:40:14Z</time>
      </trkpt>
      <trkpt lat="45.76942" lon="4.64826">
        <ele>527.04998779297</ele>
        <time>2011-11-11T08:40:20Z</time>
      </trkpt>
      <trkpt lat="45.76942" lon="4.6482">
        <ele>527.84301757812</ele>
        <time>2011-11-11T08:40:23Z</time>
      </trkpt>
      <trkpt lat="45.76938" lon="4.64815">
        <ele>528.98199462891</ele>
        <time>2011-11-11T08:40:27Z</time>
      </trkpt>
      <trkpt lat="45.76937" lon="4.64805">
        <ele>530.14001464844</ele>
        <time>2011-11-11T08:40:33Z</time>
      </trkpt>
      <trkpt lat="45.76934" lon="4.64793">
        <ele>531.91998291016</ele>
        <time>2011-11-11T08:40:41Z</time>
      </trkpt>
      <trkpt lat="45.76934" lon="4.64791">
        <ele>532.083984375</ele>
        <time>2011-11-11T08:40:42Z</time>
      </trkpt>
      <trkpt lat="45.76935" lon="4.64785">
        <ele>532.7080078125</ele>
        <time>2011-11-11T08:40:45Z</time>
      </trkpt>
      <trkpt lat="45.76936" lon="4.64774">
        <ele>534.0830078125</ele>
        <time>2011-11-11T08:40:51Z</time>
      </trkpt>
      <trkpt lat="45.76939" lon="4.64763">
        <ele>535.09399414062</ele>
        <time>2011-11-11T08:40:56Z</time>
      </trkpt>
      <trkpt lat="45.76944" lon="4.64755">
        <ele>536.00598144531</ele>
        <time>2011-11-11T08:41:01Z</time>
      </trkpt>
      <trkpt lat="45.76947" lon="4.64747">
        <ele>536.70697021484</ele>
        <time>2011-11-11T08:41:05Z</time>
      </trkpt>
      <trkpt lat="45.76954" lon="4.64734">
        <ele>537.88201904297</ele>
        <time>2011-11-11T08:41:11Z</time>
      </trkpt>
      <trkpt lat="45.76959" lon="4.64721">
        <ele>539.17999267578</ele>
        <time>2011-11-11T08:41:17Z</time>
      </trkpt>
      <trkpt lat="45.76963" lon="4.64712">
        <ele>540.16302490234</ele>
        <time>2011-11-11T08:41:22Z</time>
      </trkpt>
      <trkpt lat="45.76967" lon="4.64697">
        <ele>540.98297119141</ele>
        <time>2011-11-11T08:41:29Z</time>
      </trkpt>
      <trkpt lat="45.76971" lon="4.64688">
        <ele>541.99102783203</ele>
        <time>2011-11-11T08:41:35Z</time>
      </trkpt>
      <trkpt lat="45.76975" lon="4.64677">
        <ele>543.07098388672</ele>
        <time>2011-11-11T08:41:42Z</time>
      </trkpt>
      <trkpt lat="45.76978" lon="4.64671">
        <ele>543.63299560547</ele>
        <time>2011-11-11T08:41:45Z</time>
      </trkpt>
      <trkpt lat="45.76984" lon="4.6466">
        <ele>544.61401367188</ele>
        <time>2011-11-11T08:41:52Z</time>
      </trkpt>
      <trkpt lat="45.76991" lon="4.64646">
        <ele>545.67297363281</ele>
        <time>2011-11-11T08:42:00Z</time>
      </trkpt>
      <trkpt lat="45.76997" lon="4.64635">
        <ele>547.14801025391</ele>
        <time>2011-11-11T08:42:07Z</time>
      </trkpt>
      <trkpt lat="45.76999" lon="4.64633">
        <ele>547.36199951172</ele>
        <time>2011-11-11T08:42:08Z</time>
      </trkpt>
      <trkpt lat="45.77005" lon="4.64622">
        <ele>548.58197021484</ele>
        <time>2011-11-11T08:42:15Z</time>
      </trkpt>
      <trkpt lat="45.77012" lon="4.64612">
        <ele>549.97399902344</ele>
        <time>2011-11-11T08:42:23Z</time>
      </trkpt>
      <trkpt lat="45.77016" lon="4.64607">
        <ele>550.81597900391</ele>
        <time>2011-11-11T08:42:27Z</time>
      </trkpt>
      <trkpt lat="45.77021" lon="4.64604">
        <ele>551.85400390625</ele>
        <time>2011-11-11T08:42:32Z</time>
      </trkpt>
      <trkpt lat="45.77023" lon="4.64596">
        <ele>552.8759765625</ele>
        <time>2011-11-11T08:42:37Z</time>
      </trkpt>
      <trkpt lat="45.77032" lon="4.64581">
        <ele>554.71502685547</ele>
        <time>2011-11-11T08:42:46Z</time>
      </trkpt>
      <trkpt lat="45.77036" lon="4.64576">
        <ele>555.65997314453</ele>
        <time>2011-11-11T08:42:50Z</time>
      </trkpt>
      <trkpt lat="45.77039" lon="4.6457">
        <ele>556.43597412109</ele>
        <time>2011-11-11T08:42:54Z</time>
      </trkpt>
      <trkpt lat="45.77044" lon="4.64559">
        <ele>558.21997070312</ele>
        <time>2011-11-11T08:43:02Z</time>
      </trkpt>
      <trkpt lat="45.77047" lon="4.64554">
        <ele>558.48101806641</ele>
        <time>2011-11-11T08:43:05Z</time>
      </trkpt>
      <trkpt lat="45.77052" lon="4.64542">
        <ele>560.44299316406</ele>
        <time>2011-11-11T08:43:12Z</time>
      </trkpt>
      <trkpt lat="45.77053" lon="4.64541">
        <ele>560.80102539062</ele>
        <time>2011-11-11T08:43:13Z</time>
      </trkpt>
      <trkpt lat="45.77058" lon="4.64535">
        <ele>562.37200927734</ele>
        <time>2011-11-11T08:43:18Z</time>
      </trkpt>
      <trkpt lat="45.77061" lon="4.6453">
        <ele>563.99200439453</ele>
        <time>2011-11-11T08:43:23Z</time>
      </trkpt>
      <trkpt lat="45.77062" lon="4.64524">
        <ele>564.98699951172</ele>
        <time>2011-11-11T08:43:27Z</time>
      </trkpt>
      <trkpt lat="45.77066" lon="4.6452">
        <ele>566.22497558594</ele>
        <time>2011-11-11T08:43:34Z</time>
      </trkpt>
      <trkpt lat="45.77068" lon="4.64518">
        <ele>566.63397216797</ele>
        <time>2011-11-11T08:43:36Z</time>
      </trkpt>
      <trkpt lat="45.77075" lon="4.64515">
        <ele>567.50897216797</ele>
        <time>2011-11-11T08:43:41Z</time>
      </trkpt>
      <trkpt lat="45.77081" lon="4.64502">
        <ele>568.85302734375</ele>
        <time>2011-11-11T08:43:48Z</time>
      </trkpt>
      <trkpt lat="45.77083" lon="4.645">
        <ele>569.12097167969</ele>
        <time>2011-11-11T08:43:50Z</time>
      </trkpt>
      <trkpt lat="45.77088" lon="4.64489">
        <ele>570.11297607422</ele>
        <time>2011-11-11T08:43:56Z</time>
      </trkpt>
      <trkpt lat="45.77092" lon="4.64476">
        <ele>572.29998779297</ele>
        <time>2011-11-11T08:44:04Z</time>
      </trkpt>
      <trkpt lat="45.77095" lon="4.64469">
        <ele>573.65399169922</ele>
        <time>2011-11-11T08:44:11Z</time>
      </trkpt>
      <trkpt lat="45.77086" lon="4.64467">
        <ele>573.94702148438</ele>
        <time>2011-11-11T08:45:02Z</time>
      </trkpt>
      <trkpt lat="45.77088" lon="4.64463">
        <ele>574.12799072266</ele>
        <time>2011-11-11T08:45:08Z</time>
      </trkpt>
      <trkpt lat="45.77088" lon="4.64461">
        <ele>574.17797851562</ele>
        <time>2011-11-11T08:45:10Z</time>
      </trkpt>
      <trkpt lat="45.77089" lon="4.64455">
        <ele>574.68499755859</ele>
        <time>2011-11-11T08:45:17Z</time>
      </trkpt>
      <trkpt lat="45.77086" lon="4.64448">
        <ele>574.79699707031</ele>
        <time>2011-11-11T08:45:36Z</time>
      </trkpt>
      <trkpt lat="45.77087" lon="4.64444">
        <ele>574.88201904297</ele>
        <time>2011-11-11T08:45:38Z</time>
      </trkpt>
      <trkpt lat="45.77091" lon="4.64431">
        <ele>575.79602050781</ele>
        <time>2011-11-11T08:45:44Z</time>
      </trkpt>
      <trkpt lat="45.77091" lon="4.64429">
        <ele>575.98999023438</ele>
        <time>2011-11-11T08:45:45Z</time>
      </trkpt>
      <trkpt lat="45.77096" lon="4.64415">
        <ele>577.21301269531</ele>
        <time>2011-11-11T08:45:51Z</time>
      </trkpt>
      <trkpt lat="45.77098" lon="4.64402">
        <ele>578.35198974609</ele>
        <time>2011-11-11T08:45:57Z</time>
      </trkpt>
      <trkpt lat="45.77099" lon="4.64388">
        <ele>579.03302001953</ele>
        <time>2011-11-11T08:46:02Z</time>
      </trkpt>
      <trkpt lat="45.77097" lon="4.64365">
        <ele>579.73999023438</ele>
        <time>2011-11-11T08:46:09Z</time>
      </trkpt>
      <trkpt lat="45.77097" lon="4.64359">
        <ele>580.05603027344</ele>
        <time>2011-11-11T08:46:11Z</time>
      </trkpt>
      <trkpt lat="45.77097" lon="4.64338">
        <ele>581.28002929688</ele>
        <time>2011-11-11T08:46:17Z</time>
      </trkpt>
      <trkpt lat="45.77097" lon="4.64319">
        <ele>582.42498779297</ele>
        <time>2011-11-11T08:46:23Z</time>
      </trkpt>
      <trkpt lat="45.77095" lon="4.64295">
        <ele>584.2919921875</ele>
        <time>2011-11-11T08:46:31Z</time>
      </trkpt>
      <trkpt lat="45.77092" lon="4.64284">
        <ele>585.74499511719</ele>
        <time>2011-11-11T08:46:36Z</time>
      </trkpt>
      <trkpt lat="45.77092" lon="4.64267">
        <ele>587.85797119141</ele>
        <time>2011-11-11T08:46:43Z</time>
      </trkpt>
      <trkpt lat="45.77094" lon="4.64252">
        <ele>589.41802978516</ele>
        <time>2011-11-11T08:46:49Z</time>
      </trkpt>
      <trkpt lat="45.77095" lon="4.64243">
        <ele>590.02398681641</ele>
        <time>2011-11-11T08:46:53Z</time>
      </trkpt>
      <trkpt lat="45.77095" lon="4.64225">
        <ele>591.33197021484</ele>
        <time>2011-11-11T08:47:00Z</time>
      </trkpt>
      <trkpt lat="45.77097" lon="4.64208">
        <ele>592.26202392578</ele>
        <time>2011-11-11T08:47:06Z</time>
      </trkpt>
      <trkpt lat="45.77102" lon="4.64195">
        <ele>592.86999511719</ele>
        <time>2011-11-11T08:47:11Z</time>
      </trkpt>
      <trkpt lat="45.77111" lon="4.64177">
        <ele>593.25598144531</ele>
        <time>2011-11-11T08:47:17Z</time>
      </trkpt>
      <trkpt lat="45.77113" lon="4.64167">
        <ele>593.16998291016</ele>
        <time>2011-11-11T08:47:20Z</time>
      </trkpt>
      <trkpt lat="45.77121" lon="4.64155">
        <ele>593.40899658203</ele>
        <time>2011-11-11T08:47:25Z</time>
      </trkpt>
      <trkpt lat="45.77132" lon="4.64154">
        <ele>594.14001464844</ele>
        <time>2011-11-11T08:47:31Z</time>
      </trkpt>
      <trkpt lat="45.77134" lon="4.64154">
        <ele>594.29797363281</ele>
        <time>2011-11-11T08:47:32Z</time>
      </trkpt>
      <trkpt lat="45.7715" lon="4.64162">
        <ele>596.06597900391</ele>
        <time>2011-11-11T08:47:38Z</time>
      </trkpt>
      <trkpt lat="45.77162" lon="4.64166">
        <ele>597.40197753906</ele>
        <time>2011-11-11T08:47:42Z</time>
      </trkpt>
      <trkpt lat="45.77172" lon="4.64172">
        <ele>598.40197753906</ele>
        <time>2011-11-11T08:47:47Z</time>
      </trkpt>
      <trkpt lat="45.77187" lon="4.64177">
        <ele>600.02099609375</ele>
        <time>2011-11-11T08:47:54Z</time>
      </trkpt>
      <trkpt lat="45.77195" lon="4.64181">
        <ele>601.36602783203</ele>
        <time>2011-11-11T08:48:00Z</time>
      </trkpt>
      <trkpt lat="45.77198" lon="4.64181">
        <ele>601.63397216797</ele>
        <time>2011-11-11T08:48:02Z</time>
      </trkpt>
      <trkpt lat="45.77206" lon="4.64184">
        <ele>601.41497802734</ele>
        <time>2011-11-11T08:48:10Z</time>
      </trkpt>
      <trkpt lat="45.77209" lon="4.64183">
        <ele>601.58599853516</ele>
        <time>2011-11-11T08:48:12Z</time>
      </trkpt>
      <trkpt lat="45.77216" lon="4.64185">
        <ele>602.2490234375</ele>
        <time>2011-11-11T08:48:17Z</time>
      </trkpt>
      <trkpt lat="45.77226" lon="4.64186">
        <ele>603.18597412109</ele>
        <time>2011-11-11T08:48:25Z</time>
      </trkpt>
      <trkpt lat="45.77235" lon="4.64186">
        <ele>604.12902832031</ele>
        <time>2011-11-11T08:48:32Z</time>
      </trkpt>
      <trkpt lat="45.77243" lon="4.64188">
        <ele>604.61102294922</ele>
        <time>2011-11-11T08:48:37Z</time>
      </trkpt>
      <trkpt lat="45.77251" lon="4.64191">
        <ele>604.34002685547</ele>
        <time>2011-11-11T08:48:42Z</time>
      </trkpt>
      <trkpt lat="45.77261" lon="4.64195">
        <ele>604.13800048828</ele>
        <time>2011-11-11T08:48:46Z</time>
      </trkpt>
      <trkpt lat="45.77277" lon="4.64204">
        <ele>603.62701416016</ele>
        <time>2011-11-11T08:48:53Z</time>
      </trkpt>
      <trkpt lat="45.77287" lon="4.64209">
        <ele>603.61102294922</ele>
        <time>2011-11-11T08:48:58Z</time>
      </trkpt>
      <trkpt lat="45.77296" lon="4.6421">
        <ele>603.73901367188</ele>
        <time>2011-11-11T08:49:03Z</time>
      </trkpt>
      <trkpt lat="45.77307" lon="4.64203">
        <ele>603.77697753906</ele>
        <time>2011-11-11T08:49:08Z</time>
      </trkpt>
      <trkpt lat="45.77321" lon="4.64192">
        <ele>603.34600830078</ele>
        <time>2011-11-11T08:49:13Z</time>
      </trkpt>
      <trkpt lat="45.77337" lon="4.64174">
        <ele>603.02600097656</ele>
        <time>2011-11-11T08:49:17Z</time>
      </trkpt>
      <trkpt lat="45.77353" lon="4.64152">
        <ele>603.30297851562</ele>
        <time>2011-11-11T08:49:22Z</time>
      </trkpt>
      <trkpt lat="45.77366" lon="4.64131">
        <ele>603.77600097656</ele>
        <time>2011-11-11T08:49:27Z</time>
      </trkpt>
      <trkpt lat="45.77378" lon="4.64105">
        <ele>604.07000732422</ele>
        <time>2011-11-11T08:49:33Z</time>
      </trkpt>
      <trkpt lat="45.77386" lon="4.64087">
        <ele>604.05798339844</ele>
        <time>2011-11-11T08:49:37Z</time>
      </trkpt>
      <trkpt lat="45.77396" lon="4.64065">
        <ele>604.17401123047</ele>
        <time>2011-11-11T08:49:42Z</time>
      </trkpt>
      <trkpt lat="45.7741" lon="4.64037">
        <ele>604.08197021484</ele>
        <time>2011-11-11T08:49:47Z</time>
      </trkpt>
      <trkpt lat="45.77427" lon="4.64007">
        <ele>603.82202148438</ele>
        <time>2011-11-11T08:49:52Z</time>
      </trkpt>
      <trkpt lat="45.7745" lon="4.63978">
        <ele>603.12701416016</ele>
        <time>2011-11-11T08:49:57Z</time>
      </trkpt>
      <trkpt lat="45.77462" lon="4.63971">
        <ele>602.64599609375</ele>
        <time>2011-11-11T08:49:59Z</time>
      </trkpt>
      <trkpt lat="45.77501" lon="4.63961">
        <ele>601.35900878906</ele>
        <time>2011-11-11T08:50:05Z</time>
      </trkpt>
      <trkpt lat="45.7752" lon="4.63948">
        <ele>600.58898925781</ele>
        <time>2011-11-11T08:50:10Z</time>
      </trkpt>
      <trkpt lat="45.77538" lon="4.63932">
        <ele>600.90600585938</ele>
        <time>2011-11-11T08:50:15Z</time>
      </trkpt>
      <trkpt lat="45.77551" lon="4.63915">
        <ele>601.66302490234</ele>
        <time>2011-11-11T08:50:19Z</time>
      </trkpt>
      <trkpt lat="45.77567" lon="4.63894">
        <ele>603.20501708984</ele>
        <time>2011-11-11T08:50:24Z</time>
      </trkpt>
      <trkpt lat="45.77573" lon="4.63887">
        <ele>603.75500488281</ele>
        <time>2011-11-11T08:50:26Z</time>
      </trkpt>
      <trkpt lat="45.77583" lon="4.63862">
        <ele>604.94201660156</ele>
        <time>2011-11-11T08:50:33Z</time>
      </trkpt>
      <trkpt lat="45.77584" lon="4.63845">
        <ele>605.89001464844</ele>
        <time>2011-11-11T08:50:39Z</time>
      </trkpt>
      <trkpt lat="45.77581" lon="4.63839">
        <ele>606.19201660156</ele>
        <time>2011-11-11T08:50:44Z</time>
      </trkpt>
      <trkpt lat="45.77581" lon="4.63837">
        <ele>606.67700195312</ele>
        <time>2011-11-11T08:50:53Z</time>
      </trkpt>
      <trkpt lat="45.77581" lon="4.63845">
        <ele>605.09600830078</ele>
        <time>2011-11-11T08:55:10Z</time>
      </trkpt>
      <trkpt lat="45.77582" lon="4.63843">
        <ele>604.91497802734</ele>
        <time>2011-11-11T08:56:00Z</time>
      </trkpt>
      <trkpt lat="45.77583" lon="4.63828">
        <ele>604.73602294922</ele>
        <time>2011-11-11T08:56:05Z</time>
      </trkpt>
      <trkpt lat="45.77579" lon="4.63814">
        <ele>604.46697998047</ele>
        <time>2011-11-11T08:56:08Z</time>
      </trkpt>
      <trkpt lat="45.77572" lon="4.63786">
        <ele>603.52801513672</ele>
        <time>2011-11-11T08:56:14Z</time>
      </trkpt>
      <trkpt lat="45.7757" lon="4.63781">
        <ele>601.73297119141</ele>
        <time>2011-11-11T08:56:28Z</time>
      </trkpt>
      <trkpt lat="45.77565" lon="4.63765">
        <ele>601.32000732422</ele>
        <time>2011-11-11T08:56:33Z</time>
      </trkpt>
      <trkpt lat="45.77562" lon="4.63749">
        <ele>600.94097900391</ele>
        <time>2011-11-11T08:56:36Z</time>
      </trkpt>
      <trkpt lat="45.77556" lon="4.6372">
        <ele>599.85900878906</ele>
        <time>2011-11-11T08:56:40Z</time>
      </trkpt>
      <trkpt lat="45.77552" lon="4.63697">
        <ele>599.01702880859</ele>
        <time>2011-11-11T08:56:43Z</time>
      </trkpt>
      <trkpt lat="45.77539" lon="4.63648">
        <ele>597.21600341797</ele>
        <time>2011-11-11T08:56:48Z</time>
      </trkpt>
      <trkpt lat="45.77528" lon="4.63596">
        <ele>594.78601074219</ele>
        <time>2011-11-11T08:56:53Z</time>
      </trkpt>
      <trkpt lat="45.77513" lon="4.63547">
        <ele>592.70300292969</ele>
        <time>2011-11-11T08:56:58Z</time>
      </trkpt>
      <trkpt lat="45.77508" lon="4.63518">
        <ele>591.92401123047</ele>
        <time>2011-11-11T08:57:01Z</time>
      </trkpt>
      <trkpt lat="45.77501" lon="4.63477">
        <ele>590.13098144531</ele>
        <time>2011-11-11T08:57:05Z</time>
      </trkpt>
      <trkpt lat="45.77493" lon="4.63446">
        <ele>588.70599365234</ele>
        <time>2011-11-11T08:57:08Z</time>
      </trkpt>
      <trkpt lat="45.77511" lon="4.63408">
        <ele>587.04602050781</ele>
        <time>2011-11-11T08:57:12Z</time>
      </trkpt>
      <trkpt lat="45.7752" lon="4.63401">
        <ele>586.25897216797</ele>
        <time>2011-11-11T08:57:14Z</time>
      </trkpt>
      <trkpt lat="45.77551" lon="4.63376">
        <ele>584.18499755859</ele>
        <time>2011-11-11T08:57:20Z</time>
      </trkpt>
      <trkpt lat="45.77581" lon="4.63363">
        <ele>582.09802246094</ele>
        <time>2011-11-11T08:57:25Z</time>
      </trkpt>
      <trkpt lat="45.77596" lon="4.63358">
        <ele>580.84600830078</ele>
        <time>2011-11-11T08:57:27Z</time>
      </trkpt>
      <trkpt lat="45.77643" lon="4.63325">
        <ele>576.99102783203</ele>
        <time>2011-11-11T08:57:32Z</time>
      </trkpt>
      <trkpt lat="45.77672" lon="4.63295">
        <ele>575.15301513672</ele>
        <time>2011-11-11T08:57:36Z</time>
      </trkpt>
      <trkpt lat="45.77701" lon="4.63261">
        <ele>575.16302490234</ele>
        <time>2011-11-11T08:57:41Z</time>
      </trkpt>
      <trkpt lat="45.7771" lon="4.63245">
        <ele>574.9990234375</ele>
        <time>2011-11-11T08:57:43Z</time>
      </trkpt>
      <trkpt lat="45.77718" lon="4.63216">
        <ele>573.86901855469</ele>
        <time>2011-11-11T08:57:46Z</time>
      </trkpt>
      <trkpt lat="45.77715" lon="4.63169">
        <ele>571.26800537109</ele>
        <time>2011-11-11T08:57:51Z</time>
      </trkpt>
      <trkpt lat="45.77711" lon="4.63154">
        <ele>570.48199462891</ele>
        <time>2011-11-11T08:57:52Z</time>
      </trkpt>
      <trkpt lat="45.77712" lon="4.63132">
        <ele>569.02197265625</ele>
        <time>2011-11-11T08:57:54Z</time>
      </trkpt>
      <trkpt lat="45.77705" lon="4.63094">
        <ele>565.32598876953</ele>
        <time>2011-11-11T08:57:58Z</time>
      </trkpt>
      <trkpt lat="45.77701" lon="4.63067">
        <ele>561.99200439453</ele>
        <time>2011-11-11T08:58:01Z</time>
      </trkpt>
      <trkpt lat="45.77681" lon="4.63011">
        <ele>554.69097900391</ele>
        <time>2011-11-11T08:58:07Z</time>
      </trkpt>
      <trkpt lat="45.77674" lon="4.62996">
        <ele>552.05102539062</ele>
        <time>2011-11-11T08:58:09Z</time>
      </trkpt>
      <trkpt lat="45.77655" lon="4.62944">
        <ele>544.57098388672</ele>
        <time>2011-11-11T08:58:15Z</time>
      </trkpt>
      <trkpt lat="45.77652" lon="4.62934">
        <ele>544.56201171875</ele>
        <time>2011-11-11T08:58:16Z</time>
      </trkpt>
      <trkpt lat="45.77642" lon="4.62909">
        <ele>541.42199707031</ele>
        <time>2011-11-11T08:58:19Z</time>
      </trkpt>
      <trkpt lat="45.77638" lon="4.6289">
        <ele>539.51599121094</ele>
        <time>2011-11-11T08:58:21Z</time>
      </trkpt>
      <trkpt lat="45.77634" lon="4.62858">
        <ele>536.86102294922</ele>
        <time>2011-11-11T08:58:24Z</time>
      </trkpt>
      <trkpt lat="45.77635" lon="4.6284">
        <ele>535.14801025391</ele>
        <time>2011-11-11T08:58:26Z</time>
      </trkpt>
      <trkpt lat="45.77645" lon="4.62814">
        <ele>532.89099121094</ele>
        <time>2011-11-11T08:58:29Z</time>
      </trkpt>
      <trkpt lat="45.77667" lon="4.62778">
        <ele>530.16101074219</ele>
        <time>2011-11-11T08:58:33Z</time>
      </trkpt>
      <trkpt lat="45.77704" lon="4.62744">
        <ele>526.69897460938</ele>
        <time>2011-11-11T08:58:38Z</time>
      </trkpt>
      <trkpt lat="45.77725" lon="4.62718">
        <ele>525.45001220703</ele>
        <time>2011-11-11T08:58:41Z</time>
      </trkpt>
      <trkpt lat="45.7774" lon="4.62701">
        <ele>523.90698242188</ele>
        <time>2011-11-11T08:58:44Z</time>
      </trkpt>
      <trkpt lat="45.77742" lon="4.62696">
        <ele>522.90698242188</ele>
        <time>2011-11-11T08:58:47Z</time>
      </trkpt>
      <trkpt lat="45.77745" lon="4.62689">
        <ele>522.09899902344</ele>
        <time>2011-11-11T08:59:02Z</time>
      </trkpt>
      <trkpt lat="45.7775" lon="4.62685">
        <ele>522.31097412109</ele>
        <time>2011-11-11T08:59:07Z</time>
      </trkpt>
      <trkpt lat="45.77755" lon="4.62677">
        <ele>522.69097900391</ele>
        <time>2011-11-11T08:59:11Z</time>
      </trkpt>
      <trkpt lat="45.77758" lon="4.62663">
        <ele>524.36999511719</ele>
        <time>2011-11-11T08:59:17Z</time>
      </trkpt>
      <trkpt lat="45.77753" lon="4.62643">
        <ele>526.59497070312</ele>
        <time>2011-11-11T08:59:24Z</time>
      </trkpt>
      <trkpt lat="45.77744" lon="4.62626">
        <ele>528.20098876953</ele>
        <time>2011-11-11T08:59:30Z</time>
      </trkpt>
      <trkpt lat="45.77736" lon="4.62613">
        <ele>528.93798828125</ele>
        <time>2011-11-11T08:59:35Z</time>
      </trkpt>
      <trkpt lat="45.77723" lon="4.62593">
        <ele>529.70397949219</ele>
        <time>2011-11-11T08:59:43Z</time>
      </trkpt>
      <trkpt lat="45.77711" lon="4.62581">
        <ele>530.13000488281</ele>
        <time>2011-11-11T08:59:50Z</time>
      </trkpt>
      <trkpt lat="45.77702" lon="4.62571">
        <ele>530.58898925781</ele>
        <time>2011-11-11T08:59:56Z</time>
      </trkpt>
      <trkpt lat="45.7769" lon="4.62558">
        <ele>530.90100097656</ele>
        <time>2011-11-11T09:00:02Z</time>
      </trkpt>
      <trkpt lat="45.7768" lon="4.62546">
        <ele>530.92199707031</ele>
        <time>2011-11-11T09:00:07Z</time>
      </trkpt>
      <trkpt lat="45.77667" lon="4.62529">
        <ele>530.46600341797</ele>
        <time>2011-11-11T09:00:13Z</time>
      </trkpt>
      <trkpt lat="45.77655" lon="4.62512">
        <ele>530.375</ele>
        <time>2011-11-11T09:00:18Z</time>
      </trkpt>
      <trkpt lat="45.7764" lon="4.62494">
        <ele>530.19396972656</ele>
        <time>2011-11-11T09:00:23Z</time>
      </trkpt>
      <trkpt lat="45.77628" lon="4.6248">
        <ele>529.99597167969</ele>
        <time>2011-11-11T09:00:28Z</time>
      </trkpt>
      <trkpt lat="45.77605" lon="4.62459">
        <ele>529.72100830078</ele>
        <time>2011-11-11T09:00:33Z</time>
      </trkpt>
      <trkpt lat="45.77569" lon="4.62429">
        <ele>528.82702636719</ele>
        <time>2011-11-11T09:00:41Z</time>
      </trkpt>
      <trkpt lat="45.77565" lon="4.62426">
        <ele>528.75701904297</ele>
        <time>2011-11-11T09:00:42Z</time>
      </trkpt>
      <trkpt lat="45.77527" lon="4.62406">
        <ele>528.26898193359</ele>
        <time>2011-11-11T09:00:49Z</time>
      </trkpt>
      <trkpt lat="45.77522" lon="4.62404">
        <ele>528.03399658203</ele>
        <time>2011-11-11T09:00:50Z</time>
      </trkpt>
      <trkpt lat="45.77507" lon="4.62402">
        <ele>527.40197753906</ele>
        <time>2011-11-11T09:00:53Z</time>
      </trkpt>
      <trkpt lat="45.77497" lon="4.62399">
        <ele>527.06298828125</ele>
        <time>2011-11-11T09:00:55Z</time>
      </trkpt>
      <trkpt lat="45.77486" lon="4.62385">
        <ele>526.86102294922</ele>
        <time>2011-11-11T09:00:59Z</time>
      </trkpt>
      <trkpt lat="45.77485" lon="4.6237">
        <ele>527.21002197266</ele>
        <time>2011-11-11T09:01:03Z</time>
      </trkpt>
      <trkpt lat="45.77483" lon="4.62338">
        <ele>526.12097167969</ele>
        <time>2011-11-11T09:01:10Z</time>
      </trkpt>
      <trkpt lat="45.77484" lon="4.62325">
        <ele>525.07000732422</ele>
        <time>2011-11-11T09:01:12Z</time>
      </trkpt>
      <trkpt lat="45.7749" lon="4.6229">
        <ele>523.03198242188</ele>
        <time>2011-11-11T09:01:16Z</time>
      </trkpt>
      <trkpt lat="45.77504" lon="4.62236">
        <ele>518.60302734375</ele>
        <time>2011-11-11T09:01:22Z</time>
      </trkpt>
      <trkpt lat="45.77507" lon="4.62219">
        <ele>517.10797119141</ele>
        <time>2011-11-11T09:01:24Z</time>
      </trkpt>
      <trkpt lat="45.77509" lon="4.62196">
        <ele>514.36901855469</ele>
        <time>2011-11-11T09:01:28Z</time>
      </trkpt>
      <trkpt lat="45.77517" lon="4.62168">
        <ele>510.05200195312</ele>
        <time>2011-11-11T09:01:34Z</time>
      </trkpt>
      <trkpt lat="45.77521" lon="4.62157">
        <ele>508.46200561523</ele>
        <time>2011-11-11T09:01:36Z</time>
      </trkpt>
      <trkpt lat="45.77533" lon="4.62135">
        <ele>507.08898925781</ele>
        <time>2011-11-11T09:01:39Z</time>
      </trkpt>
      <trkpt lat="45.77554" lon="4.62106">
        <ele>505.25500488281</ele>
        <time>2011-11-11T09:01:43Z</time>
      </trkpt>
      <trkpt lat="45.77564" lon="4.6209">
        <ele>504.80899047852</ele>
        <time>2011-11-11T09:01:45Z</time>
      </trkpt>
      <trkpt lat="45.77574" lon="4.62052">
        <ele>504.03399658203</ele>
        <time>2011-11-11T09:01:50Z</time>
      </trkpt>
      <trkpt lat="45.77568" lon="4.62025">
        <ele>503.0299987793</ele>
        <time>2011-11-11T09:01:54Z</time>
      </trkpt>
      <trkpt lat="45.77565" lon="4.62019">
        <ele>502.55099487305</ele>
        <time>2011-11-11T09:01:55Z</time>
      </trkpt>
      <trkpt lat="45.77554" lon="4.62001">
        <ele>499.93099975586</ele>
        <time>2011-11-11T09:02:00Z</time>
      </trkpt>
      <trkpt lat="45.77548" lon="4.6199">
        <ele>498.50201416016</ele>
        <time>2011-11-11T09:02:04Z</time>
      </trkpt>
      <trkpt lat="45.77546" lon="4.61988">
        <ele>497.83200073242</ele>
        <time>2011-11-11T09:02:06Z</time>
      </trkpt>
      <trkpt lat="45.77547" lon="4.61992">
        <ele>497.11099243164</ele>
        <time>2011-11-11T09:02:11Z</time>
      </trkpt>
      <trkpt lat="45.77547" lon="4.61996">
        <ele>497.57299804688</ele>
        <time>2011-11-11T09:02:17Z</time>
      </trkpt>
      <trkpt lat="45.77547" lon="4.61996">
        <ele>497.88101196289</ele>
        <time>2011-11-11T09:02:25Z</time>
      </trkpt>
      <trkpt lat="45.77547" lon="4.61996">
        <ele>497.76599121094</ele>
        <time>2011-11-11T09:02:57Z</time>
      </trkpt>
      <trkpt lat="45.77542" lon="4.61996">
        <ele>497.8030090332</ele>
        <time>2011-11-11T09:03:01Z</time>
      </trkpt>
      <trkpt lat="45.77536" lon="4.61998">
        <ele>498.52801513672</ele>
        <time>2011-11-11T09:03:07Z</time>
      </trkpt>
      <trkpt lat="45.77526" lon="4.61999">
        <ele>499.87399291992</ele>
        <time>2011-11-11T09:03:16Z</time>
      </trkpt>
      <trkpt lat="45.77516" lon="4.61995">
        <ele>501.25698852539</ele>
        <time>2011-11-11T09:03:24Z</time>
      </trkpt>
      <trkpt lat="45.77506" lon="4.61993">
        <ele>502.97198486328</ele>
        <time>2011-11-11T09:03:32Z</time>
      </trkpt>
      <trkpt lat="45.775" lon="4.61989">
        <ele>504.96398925781</ele>
        <time>2011-11-11T09:03:39Z</time>
      </trkpt>
      <trkpt lat="45.77489" lon="4.61985">
        <ele>506.79800415039</ele>
        <time>2011-11-11T09:03:49Z</time>
      </trkpt>
      <trkpt lat="45.77487" lon="4.61984">
        <ele>507.20401000977</ele>
        <time>2011-11-11T09:03:51Z</time>
      </trkpt>
      <trkpt lat="45.77478" lon="4.61985">
        <ele>508.76599121094</ele>
        <time>2011-11-11T09:03:59Z</time>
      </trkpt>
      <trkpt lat="45.77471" lon="4.61987">
        <ele>510.00500488281</ele>
        <time>2011-11-11T09:04:06Z</time>
      </trkpt>
      <trkpt lat="45.77468" lon="4.61987">
        <ele>510.9880065918</ele>
        <time>2011-11-11T09:04:10Z</time>
      </trkpt>
      <trkpt lat="45.77466" lon="4.61986">
        <ele>511.39898681641</ele>
        <time>2011-11-11T09:04:13Z</time>
      </trkpt>
      <trkpt lat="45.77461" lon="4.61984">
        <ele>512.51300048828</ele>
        <time>2011-11-11T09:04:18Z</time>
      </trkpt>
      <trkpt lat="45.77454" lon="4.61987">
        <ele>513.86199951172</ele>
        <time>2011-11-11T09:04:24Z</time>
      </trkpt>
      <trkpt lat="45.77448" lon="4.61986">
        <ele>515.27502441406</ele>
        <time>2011-11-11T09:04:30Z</time>
      </trkpt>
      <trkpt lat="45.77441" lon="4.6199">
        <ele>516.87097167969</ele>
        <time>2011-11-11T09:04:37Z</time>
      </trkpt>
      <trkpt lat="45.77435" lon="4.61991">
        <ele>518.38598632812</ele>
        <time>2011-11-11T09:04:42Z</time>
      </trkpt>
      <trkpt lat="45.7743" lon="4.61991">
        <ele>520.04797363281</ele>
        <time>2011-11-11T09:04:49Z</time>
      </trkpt>
      <trkpt lat="45.77424" lon="4.6199">
        <ele>520.60400390625</ele>
        <time>2011-11-11T09:05:11Z</time>
      </trkpt>
      <trkpt lat="45.77424" lon="4.61989">
        <ele>521.76300048828</ele>
        <time>2011-11-11T09:05:19Z</time>
      </trkpt>
      <trkpt lat="45.77423" lon="4.61986">
        <ele>522.10198974609</ele>
        <time>2011-11-11T09:05:41Z</time>
      </trkpt>
      <trkpt lat="45.7742" lon="4.61984">
        <ele>522.28002929688</ele>
        <time>2011-11-11T09:05:44Z</time>
      </trkpt>
      <trkpt lat="45.77412" lon="4.61984">
        <ele>523.44897460938</ele>
        <time>2011-11-11T09:05:52Z</time>
      </trkpt>
      <trkpt lat="45.77404" lon="4.6198">
        <ele>524.93298339844</ele>
        <time>2011-11-11T09:05:59Z</time>
      </trkpt>
      <trkpt lat="45.77398" lon="4.61981">
        <ele>526.40997314453</ele>
        <time>2011-11-11T09:06:05Z</time>
      </trkpt>
      <trkpt lat="45.77393" lon="4.61979">
        <ele>527.70001220703</ele>
        <time>2011-11-11T09:06:10Z</time>
      </trkpt>
      <trkpt lat="45.77388" lon="4.61975">
        <ele>529.22497558594</ele>
        <time>2011-11-11T09:06:17Z</time>
      </trkpt>
      <trkpt lat="45.77379" lon="4.61966">
        <ele>531.15197753906</ele>
        <time>2011-11-11T09:06:27Z</time>
      </trkpt>
      <trkpt lat="45.77377" lon="4.61962">
        <ele>531.98297119141</ele>
        <time>2011-11-11T09:06:31Z</time>
      </trkpt>
      <trkpt lat="45.77366" lon="4.61955">
        <ele>533.89501953125</ele>
        <time>2011-11-11T09:06:40Z</time>
      </trkpt>
      <trkpt lat="45.7736" lon="4.61948">
        <ele>535.25201416016</ele>
        <time>2011-11-11T09:06:48Z</time>
      </trkpt>
      <trkpt lat="45.77354" lon="4.61944">
        <ele>536.72399902344</ele>
        <time>2011-11-11T09:06:54Z</time>
      </trkpt>
      <trkpt lat="45.77353" lon="4.61943">
        <ele>537.00701904297</ele>
        <time>2011-11-11T09:06:55Z</time>
      </trkpt>
      <trkpt lat="45.77346" lon="4.61938">
        <ele>538.70697021484</ele>
        <time>2011-11-11T09:07:01Z</time>
      </trkpt>
      <trkpt lat="45.7734" lon="4.61931">
        <ele>539.98602294922</ele>
        <time>2011-11-11T09:07:09Z</time>
      </trkpt>
      <trkpt lat="45.77335" lon="4.61923">
        <ele>540.42498779297</ele>
        <time>2011-11-11T09:07:16Z</time>
      </trkpt>
      <trkpt lat="45.7733" lon="4.61918">
        <ele>540.88800048828</ele>
        <time>2011-11-11T09:07:22Z</time>
      </trkpt>
      <trkpt lat="45.77322" lon="4.61909">
        <ele>541.91998291016</ele>
        <time>2011-11-11T09:07:30Z</time>
      </trkpt>
      <trkpt lat="45.77314" lon="4.61903">
        <ele>543.52899169922</ele>
        <time>2011-11-11T09:07:37Z</time>
      </trkpt>
      <trkpt lat="45.7731" lon="4.61899">
        <ele>544.22497558594</ele>
        <time>2011-11-11T09:07:41Z</time>
      </trkpt>
      <trkpt lat="45.77303" lon="4.6189">
        <ele>545.52801513672</ele>
        <time>2011-11-11T09:07:50Z</time>
      </trkpt>
      <trkpt lat="45.77301" lon="4.61886">
        <ele>546.31500244141</ele>
        <time>2011-11-11T09:07:53Z</time>
      </trkpt>
      <trkpt lat="45.773" lon="4.61882">
        <ele>547.02600097656</ele>
        <time>2011-11-11T09:07:56Z</time>
      </trkpt>
      <trkpt lat="45.77292" lon="4.61871">
        <ele>548.15100097656</ele>
        <time>2011-11-11T09:08:03Z</time>
      </trkpt>
      <trkpt lat="45.7729" lon="4.61865">
        <ele>548.94799804688</ele>
        <time>2011-11-11T09:08:07Z</time>
      </trkpt>
      <trkpt lat="45.77286" lon="4.61852">
        <ele>549.88201904297</ele>
        <time>2011-11-11T09:08:14Z</time>
      </trkpt>
      <trkpt lat="45.77284" lon="4.61848">
        <ele>549.99298095703</ele>
        <time>2011-11-11T09:08:16Z</time>
      </trkpt>
      <trkpt lat="45.77277" lon="4.61834">
        <ele>550.13598632812</ele>
        <time>2011-11-11T09:08:24Z</time>
      </trkpt>
      <trkpt lat="45.77268" lon="4.61818">
        <ele>550.48498535156</ele>
        <time>2011-11-11T09:08:32Z</time>
      </trkpt>
      <trkpt lat="45.77261" lon="4.61811">
        <ele>550.916015625</ele>
        <time>2011-11-11T09:08:38Z</time>
      </trkpt>
      <trkpt lat="45.77248" lon="4.618">
        <ele>551.90100097656</ele>
        <time>2011-11-11T09:08:48Z</time>
      </trkpt>
      <trkpt lat="45.77239" lon="4.61795">
        <ele>552.27301025391</ele>
        <time>2011-11-11T09:08:55Z</time>
      </trkpt>
      <trkpt lat="45.7723" lon="4.61793">
        <ele>552.82202148438</ele>
        <time>2011-11-11T09:09:02Z</time>
      </trkpt>
      <trkpt lat="45.77222" lon="4.61794">
        <ele>553.31896972656</ele>
        <time>2011-11-11T09:09:08Z</time>
      </trkpt>
      <trkpt lat="45.77216" lon="4.61797">
        <ele>553.81701660156</ele>
        <time>2011-11-11T09:09:13Z</time>
      </trkpt>
      <trkpt lat="45.77202" lon="4.61798">
        <ele>555.04602050781</ele>
        <time>2011-11-11T09:09:22Z</time>
      </trkpt>
      <trkpt lat="45.77195" lon="4.618">
        <ele>555.47802734375</ele>
        <time>2011-11-11T09:09:28Z</time>
      </trkpt>
      <trkpt lat="45.77185" lon="4.61808">
        <ele>555.56500244141</ele>
        <time>2011-11-11T09:09:34Z</time>
      </trkpt>
      <trkpt lat="45.77172" lon="4.61826">
        <ele>556.06896972656</ele>
        <time>2011-11-11T09:09:43Z</time>
      </trkpt>
      <trkpt lat="45.77161" lon="4.61848">
        <ele>556.42999267578</ele>
        <time>2011-11-11T09:09:50Z</time>
      </trkpt>
      <trkpt lat="45.77156" lon="4.61869">
        <ele>557.27197265625</ele>
        <time>2011-11-11T09:09:59Z</time>
      </trkpt>
      <trkpt lat="45.77155" lon="4.61871">
        <ele>557.34197998047</ele>
        <time>2011-11-11T09:10:00Z</time>
      </trkpt>
      <trkpt lat="45.77151" lon="4.61886">
        <ele>557.77197265625</ele>
        <time>2011-11-11T09:10:06Z</time>
      </trkpt>
      <trkpt lat="45.77149" lon="4.61898">
        <ele>558.49499511719</ele>
        <time>2011-11-11T09:10:11Z</time>
      </trkpt>
      <trkpt lat="45.77148" lon="4.61918">
        <ele>560.23797607422</ele>
        <time>2011-11-11T09:10:20Z</time>
      </trkpt>
      <trkpt lat="45.77147" lon="4.61922">
        <ele>560.54901123047</ele>
        <time>2011-11-11T09:10:22Z</time>
      </trkpt>
      <trkpt lat="45.77137" lon="4.61937">
        <ele>561.50402832031</ele>
        <time>2011-11-11T09:10:29Z</time>
      </trkpt>
      <trkpt lat="45.77134" lon="4.6194">
        <ele>561.73498535156</ele>
        <time>2011-11-11T09:10:31Z</time>
      </trkpt>
      <trkpt lat="45.77127" lon="4.61951">
        <ele>562.95397949219</ele>
        <time>2011-11-11T09:10:37Z</time>
      </trkpt>
      <trkpt lat="45.77124" lon="4.61954">
        <ele>563.82098388672</ele>
        <time>2011-11-11T09:10:41Z</time>
      </trkpt>
      <trkpt lat="45.77114" lon="4.61965">
        <ele>565.27801513672</ele>
        <time>2011-11-11T09:10:49Z</time>
      </trkpt>
      <trkpt lat="45.7711" lon="4.61971">
        <ele>565.97900390625</ele>
        <time>2011-11-11T09:10:55Z</time>
      </trkpt>
      <trkpt lat="45.77108" lon="4.61977">
        <ele>566.80401611328</ele>
        <time>2011-11-11T09:11:00Z</time>
      </trkpt>
      <trkpt lat="45.77102" lon="4.61988">
        <ele>568.30401611328</ele>
        <time>2011-11-11T09:11:08Z</time>
      </trkpt>
      <trkpt lat="45.77101" lon="4.61989">
        <ele>568.46502685547</ele>
        <time>2011-11-11T09:11:09Z</time>
      </trkpt>
      <trkpt lat="45.77092" lon="4.61996">
        <ele>570.07299804688</ele>
        <time>2011-11-11T09:11:17Z</time>
      </trkpt>
      <trkpt lat="45.77079" lon="4.62001">
        <ele>571.125</ele>
        <time>2011-11-11T09:11:25Z</time>
      </trkpt>
      <trkpt lat="45.77074" lon="4.62003">
        <ele>571.42297363281</ele>
        <time>2011-11-11T09:11:29Z</time>
      </trkpt>
      <trkpt lat="45.7707" lon="4.62006">
        <ele>571.96197509766</ele>
        <time>2011-11-11T09:11:33Z</time>
      </trkpt>
      <trkpt lat="45.77065" lon="4.62013">
        <ele>572.99200439453</ele>
        <time>2011-11-11T09:11:39Z</time>
      </trkpt>
      <trkpt lat="45.77055" lon="4.62021">
        <ele>574.52697753906</ele>
        <time>2011-11-11T09:11:48Z</time>
      </trkpt>
      <trkpt lat="45.7705" lon="4.62027">
        <ele>575.35601806641</ele>
        <time>2011-11-11T09:11:55Z</time>
      </trkpt>
      <trkpt lat="45.77049" lon="4.62029">
        <ele>575.50402832031</ele>
        <time>2011-11-11T09:11:57Z</time>
      </trkpt>
      <trkpt lat="45.77039" lon="4.62048">
        <ele>577.77001953125</ele>
        <time>2011-11-11T09:12:07Z</time>
      </trkpt>
      <trkpt lat="45.77029" lon="4.62058">
        <ele>579.86297607422</ele>
        <time>2011-11-11T09:12:14Z</time>
      </trkpt>
      <trkpt lat="45.77022" lon="4.62065">
        <ele>581.78698730469</ele>
        <time>2011-11-11T09:12:19Z</time>
      </trkpt>
      <trkpt lat="45.77016" lon="4.62071">
        <ele>583.56201171875</ele>
        <time>2011-11-11T09:12:25Z</time>
      </trkpt>
      <trkpt lat="45.7701" lon="4.62081">
        <ele>584.36798095703</ele>
        <time>2011-11-11T09:12:31Z</time>
      </trkpt>
      <trkpt lat="45.77005" lon="4.6209">
        <ele>585</ele>
        <time>2011-11-11T09:12:39Z</time>
      </trkpt>
      <trkpt lat="45.77001" lon="4.62094">
        <ele>585.54797363281</ele>
        <time>2011-11-11T09:12:45Z</time>
      </trkpt>
      <trkpt lat="45.76998" lon="4.62098">
        <ele>585.84899902344</ele>
        <time>2011-11-11T09:12:50Z</time>
      </trkpt>
      <trkpt lat="45.76997" lon="4.62106">
        <ele>586.19299316406</ele>
        <time>2011-11-11T09:12:57Z</time>
      </trkpt>
      <trkpt lat="45.76994" lon="4.62117">
        <ele>586.55297851562</ele>
        <time>2011-11-11T09:13:04Z</time>
      </trkpt>
      <trkpt lat="45.76992" lon="4.62125">
        <ele>587.12701416016</ele>
        <time>2011-11-11T09:13:08Z</time>
      </trkpt>
      <trkpt lat="45.76988" lon="4.62147">
        <ele>588.06298828125</ele>
        <time>2011-11-11T09:13:16Z</time>
      </trkpt>
      <trkpt lat="45.76986" lon="4.62164">
        <ele>588.97198486328</ele>
        <time>2011-11-11T09:13:24Z</time>
      </trkpt>
      <trkpt lat="45.76983" lon="4.62182">
        <ele>589.61199951172</ele>
        <time>2011-11-11T09:13:29Z</time>
      </trkpt>
      <trkpt lat="45.76982" lon="4.62185">
        <ele>589.77600097656</ele>
        <time>2011-11-11T09:13:30Z</time>
      </trkpt>
      <trkpt lat="45.7698" lon="4.62205">
        <ele>590.98602294922</ele>
        <time>2011-11-11T09:13:37Z</time>
      </trkpt>
      <trkpt lat="45.7698" lon="4.6221">
        <ele>591.27197265625</ele>
        <time>2011-11-11T09:13:39Z</time>
      </trkpt>
      <trkpt lat="45.76978" lon="4.62223">
        <ele>591.83502197266</ele>
        <time>2011-11-11T09:13:44Z</time>
      </trkpt>
      <trkpt lat="45.76978" lon="4.62234">
        <ele>592.57501220703</ele>
        <time>2011-11-11T09:13:50Z</time>
      </trkpt>
      <trkpt lat="45.76979" lon="4.62238">
        <ele>592.71697998047</ele>
        <time>2011-11-11T09:13:52Z</time>
      </trkpt>
      <trkpt lat="45.76979" lon="4.62251">
        <ele>593.17498779297</ele>
        <time>2011-11-11T09:13:58Z</time>
      </trkpt>
      <trkpt lat="45.76978" lon="4.62259">
        <ele>593.45501708984</ele>
        <time>2011-11-11T09:14:01Z</time>
      </trkpt>
      <trkpt lat="45.76976" lon="4.62283">
        <ele>594.17901611328</ele>
        <time>2011-11-11T09:14:10Z</time>
      </trkpt>
      <trkpt lat="45.76973" lon="4.623">
        <ele>594.82098388672</ele>
        <time>2011-11-11T09:14:16Z</time>
      </trkpt>
      <trkpt lat="45.76969" lon="4.62318">
        <ele>595.27001953125</ele>
        <time>2011-11-11T09:14:22Z</time>
      </trkpt>
      <trkpt lat="45.76964" lon="4.62329">
        <ele>595.99200439453</ele>
        <time>2011-11-11T09:14:27Z</time>
      </trkpt>
      <trkpt lat="45.76958" lon="4.62346">
        <ele>595.9580078125</ele>
        <time>2011-11-11T09:14:34Z</time>
      </trkpt>
      <trkpt lat="45.76949" lon="4.62363">
        <ele>596.38397216797</ele>
        <time>2011-11-11T09:14:41Z</time>
      </trkpt>
      <trkpt lat="45.76941" lon="4.6238">
        <ele>596.78997802734</ele>
        <time>2011-11-11T09:14:48Z</time>
      </trkpt>
      <trkpt lat="45.76935" lon="4.62392">
        <ele>597.32897949219</ele>
        <time>2011-11-11T09:14:54Z</time>
      </trkpt>
      <trkpt lat="45.7693" lon="4.62404">
        <ele>598.90399169922</ele>
        <time>2011-11-11T09:15:00Z</time>
      </trkpt>
      <trkpt lat="45.76917" lon="4.62419">
        <ele>601.25799560547</ele>
        <time>2011-11-11T09:15:07Z</time>
      </trkpt>
      <trkpt lat="45.76907" lon="4.62424">
        <ele>602.86798095703</ele>
        <time>2011-11-11T09:15:12Z</time>
      </trkpt>
      <trkpt lat="45.76896" lon="4.6243">
        <ele>604.86297607422</ele>
        <time>2011-11-11T09:15:18Z</time>
      </trkpt>
      <trkpt lat="45.76886" lon="4.62443">
        <ele>606.81402587891</ele>
        <time>2011-11-11T09:15:25Z</time>
      </trkpt>
      <trkpt lat="45.76874" lon="4.62454">
        <ele>608.89099121094</ele>
        <time>2011-11-11T09:15:33Z</time>
      </trkpt>
      <trkpt lat="45.76862" lon="4.62462">
        <ele>610.51300048828</ele>
        <time>2011-11-11T09:15:41Z</time>
      </trkpt>
      <trkpt lat="45.76852" lon="4.62468">
        <ele>611.54302978516</ele>
        <time>2011-11-11T09:15:47Z</time>
      </trkpt>
      <trkpt lat="45.7684" lon="4.62478">
        <ele>612.66998291016</ele>
        <time>2011-11-11T09:15:54Z</time>
      </trkpt>
      <trkpt lat="45.76825" lon="4.62488">
        <ele>613.75402832031</ele>
        <time>2011-11-11T09:16:02Z</time>
      </trkpt>
      <trkpt lat="45.76817" lon="4.62493">
        <ele>614.92102050781</ele>
        <time>2011-11-11T09:16:09Z</time>
      </trkpt>
      <trkpt lat="45.7681" lon="4.62496">
        <ele>615.94201660156</ele>
        <time>2011-11-11T09:16:15Z</time>
      </trkpt>
      <trkpt lat="45.76801" lon="4.62499">
        <ele>617.33801269531</ele>
        <time>2011-11-11T09:16:22Z</time>
      </trkpt>
      <trkpt lat="45.76789" lon="4.625">
        <ele>618.7490234375</ele>
        <time>2011-11-11T09:16:30Z</time>
      </trkpt>
      <trkpt lat="45.7678" lon="4.62504">
        <ele>619.52600097656</ele>
        <time>2011-11-11T09:16:36Z</time>
      </trkpt>
      <trkpt lat="45.76778" lon="4.62505">
        <ele>619.63098144531</ele>
        <time>2011-11-11T09:16:37Z</time>
      </trkpt>
      <trkpt lat="45.76769" lon="4.62509">
        <ele>620.78198242188</ele>
        <time>2011-11-11T09:16:44Z</time>
      </trkpt>
      <trkpt lat="45.7676" lon="4.62513">
        <ele>621.81201171875</ele>
        <time>2011-11-11T09:16:50Z</time>
      </trkpt>
      <trkpt lat="45.76749" lon="4.62518">
        <ele>622.39697265625</ele>
        <time>2011-11-11T09:16:56Z</time>
      </trkpt>
      <trkpt lat="45.76736" lon="4.62522">
        <ele>623.82702636719</ele>
        <time>2011-11-11T09:17:05Z</time>
      </trkpt>
      <trkpt lat="45.76729" lon="4.62524">
        <ele>625.60302734375</ele>
        <time>2011-11-11T09:17:12Z</time>
      </trkpt>
      <trkpt lat="45.76719" lon="4.62531">
        <ele>627.28601074219</ele>
        <time>2011-11-11T09:17:19Z</time>
      </trkpt>
      <trkpt lat="45.7671" lon="4.62536">
        <ele>629.35797119141</ele>
        <time>2011-11-11T09:17:26Z</time>
      </trkpt>
      <trkpt lat="45.767" lon="4.62542">
        <ele>631.32299804688</ele>
        <time>2011-11-11T09:17:34Z</time>
      </trkpt>
      <trkpt lat="45.76688" lon="4.62547">
        <ele>633.27600097656</ele>
        <time>2011-11-11T09:17:43Z</time>
      </trkpt>
      <trkpt lat="45.76679" lon="4.62549">
        <ele>634.71002197266</ele>
        <time>2011-11-11T09:17:50Z</time>
      </trkpt>
      <trkpt lat="45.76669" lon="4.62553">
        <ele>636.25299072266</ele>
        <time>2011-11-11T09:17:58Z</time>
      </trkpt>
      <trkpt lat="45.76661" lon="4.62558">
        <ele>637.80499267578</ele>
        <time>2011-11-11T09:18:05Z</time>
      </trkpt>
      <trkpt lat="45.76656" lon="4.62562">
        <ele>638.47601318359</ele>
        <time>2011-11-11T09:18:09Z</time>
      </trkpt>
      <trkpt lat="45.76646" lon="4.6257">
        <ele>640.04498291016</ele>
        <time>2011-11-11T09:18:17Z</time>
      </trkpt>
      <trkpt lat="45.76635" lon="4.62578">
        <ele>642.25</ele>
        <time>2011-11-11T09:18:26Z</time>
      </trkpt>
      <trkpt lat="45.76627" lon="4.62582">
        <ele>644.14398193359</ele>
        <time>2011-11-11T09:18:34Z</time>
      </trkpt>
      <trkpt lat="45.76615" lon="4.62591">
        <ele>646.7919921875</ele>
        <time>2011-11-11T09:18:43Z</time>
      </trkpt>
      <trkpt lat="45.76606" lon="4.62595">
        <ele>648.54602050781</ele>
        <time>2011-11-11T09:18:49Z</time>
      </trkpt>
      <trkpt lat="45.76597" lon="4.62598">
        <ele>650.36901855469</ele>
        <time>2011-11-11T09:18:55Z</time>
      </trkpt>
      <trkpt lat="45.7659" lon="4.62598">
        <ele>651.39501953125</ele>
        <time>2011-11-11T09:19:02Z</time>
      </trkpt>
      <trkpt lat="45.7658" lon="4.62601">
        <ele>652.67297363281</ele>
        <time>2011-11-11T09:19:10Z</time>
      </trkpt>
      <trkpt lat="45.76572" lon="4.62604">
        <ele>654.07098388672</ele>
        <time>2011-11-11T09:19:17Z</time>
      </trkpt>
      <trkpt lat="45.76562" lon="4.62607">
        <ele>655.19598388672</ele>
        <time>2011-11-11T09:19:25Z</time>
      </trkpt>
      <trkpt lat="45.76554" lon="4.6261">
        <ele>656.33898925781</ele>
        <time>2011-11-11T09:19:33Z</time>
      </trkpt>
      <trkpt lat="45.76548" lon="4.62612">
        <ele>657.02801513672</ele>
        <time>2011-11-11T09:19:37Z</time>
      </trkpt>
      <trkpt lat="45.76545" lon="4.62613">
        <ele>657.45599365234</ele>
        <time>2011-11-11T09:19:39Z</time>
      </trkpt>
      <trkpt lat="45.76533" lon="4.62616">
        <ele>658.83001708984</ele>
        <time>2011-11-11T09:19:47Z</time>
      </trkpt>
      <trkpt lat="45.7652" lon="4.62624">
        <ele>660.18402099609</ele>
        <time>2011-11-11T09:19:55Z</time>
      </trkpt>
      <trkpt lat="45.76514" lon="4.6263">
        <ele>661.37799072266</ele>
        <time>2011-11-11T09:20:00Z</time>
      </trkpt>
      <trkpt lat="45.76513" lon="4.62632">
        <ele>662.125</ele>
        <time>2011-11-11T09:20:03Z</time>
      </trkpt>
      <trkpt lat="45.76511" lon="4.62637">
        <ele>663.43798828125</ele>
        <time>2011-11-11T09:20:09Z</time>
      </trkpt>
      <trkpt lat="45.76511" lon="4.62638">
        <ele>663.68798828125</ele>
        <time>2011-11-11T09:20:10Z</time>
      </trkpt>
      <trkpt lat="45.76503" lon="4.62648">
        <ele>665.73297119141</ele>
        <time>2011-11-11T09:20:18Z</time>
      </trkpt>
      <trkpt lat="45.76497" lon="4.62653">
        <ele>666.95001220703</ele>
        <time>2011-11-11T09:20:23Z</time>
      </trkpt>
      <trkpt lat="45.76485" lon="4.62656">
        <ele>668.35601806641</ele>
        <time>2011-11-11T09:20:30Z</time>
      </trkpt>
      <trkpt lat="45.76477" lon="4.62659">
        <ele>669.18200683594</ele>
        <time>2011-11-11T09:20:36Z</time>
      </trkpt>
      <trkpt lat="45.76469" lon="4.62665">
        <ele>669.78802490234</ele>
        <time>2011-11-11T09:20:43Z</time>
      </trkpt>
      <trkpt lat="45.76464" lon="4.62672">
        <ele>670.51898193359</ele>
        <time>2011-11-11T09:20:50Z</time>
      </trkpt>
      <trkpt lat="45.76463" lon="4.62673">
        <ele>670.69201660156</ele>
        <time>2011-11-11T09:20:51Z</time>
      </trkpt>
      <trkpt lat="45.76456" lon="4.62675">
        <ele>671.87902832031</ele>
        <time>2011-11-11T09:20:58Z</time>
      </trkpt>
      <trkpt lat="45.76447" lon="4.62687">
        <ele>672.95001220703</ele>
        <time>2011-11-11T09:21:06Z</time>
      </trkpt>
      <trkpt lat="45.76445" lon="4.62691">
        <ele>673.28698730469</ele>
        <time>2011-11-11T09:21:08Z</time>
      </trkpt>
      <trkpt lat="45.76439" lon="4.62696">
        <ele>674.20501708984</ele>
        <time>2011-11-11T09:21:12Z</time>
      </trkpt>
      <trkpt lat="45.76432" lon="4.62705">
        <ele>675.833984375</ele>
        <time>2011-11-11T09:21:20Z</time>
      </trkpt>
      <trkpt lat="45.76426" lon="4.6271">
        <ele>677.45599365234</ele>
        <time>2011-11-11T09:21:26Z</time>
      </trkpt>
      <trkpt lat="45.76418" lon="4.62717">
        <ele>679.45501708984</ele>
        <time>2011-11-11T09:21:34Z</time>
      </trkpt>
      <trkpt lat="45.76413" lon="4.62727">
        <ele>681.30798339844</ele>
        <time>2011-11-11T09:21:41Z</time>
      </trkpt>
      <trkpt lat="45.76409" lon="4.6274">
        <ele>682.708984375</ele>
        <time>2011-11-11T09:21:46Z</time>
      </trkpt>
      <trkpt lat="45.76408" lon="4.62755">
        <ele>684.57897949219</ele>
        <time>2011-11-11T09:21:53Z</time>
      </trkpt>
      <trkpt lat="45.76402" lon="4.62773">
        <ele>686.24298095703</ele>
        <time>2011-11-11T09:22:01Z</time>
      </trkpt>
      <trkpt lat="45.7639" lon="4.62786">
        <ele>688.50701904297</ele>
        <time>2011-11-11T09:22:08Z</time>
      </trkpt>
      <trkpt lat="45.76382" lon="4.62795">
        <ele>690.72802734375</ele>
        <time>2011-11-11T09:22:14Z</time>
      </trkpt>
      <trkpt lat="45.76374" lon="4.62804">
        <ele>692.55603027344</ele>
        <time>2011-11-11T09:22:20Z</time>
      </trkpt>
      <trkpt lat="45.76366" lon="4.62814">
        <ele>693.88397216797</ele>
        <time>2011-11-11T09:22:26Z</time>
      </trkpt>
      <trkpt lat="45.76353" lon="4.62817">
        <ele>696.05902099609</ele>
        <time>2011-11-11T09:22:34Z</time>
      </trkpt>
      <trkpt lat="45.7635" lon="4.62814">
        <ele>696.92602539062</ele>
        <time>2011-11-11T09:22:37Z</time>
      </trkpt>
      <trkpt lat="45.76347" lon="4.628">
        <ele>699.01000976562</ele>
        <time>2011-11-11T09:22:46Z</time>
      </trkpt>
      <trkpt lat="45.76346" lon="4.6279">
        <ele>700.46502685547</ele>
        <time>2011-11-11T09:22:52Z</time>
      </trkpt>
      <trkpt lat="45.76347" lon="4.62787">
        <ele>700.96301269531</ele>
        <time>2011-11-11T09:22:54Z</time>
      </trkpt>
      <trkpt lat="45.76342" lon="4.62782">
        <ele>702.38702392578</ele>
        <time>2011-11-11T09:22:59Z</time>
      </trkpt>
      <trkpt lat="45.76339" lon="4.62786">
        <ele>703.5009765625</ele>
        <time>2011-11-11T09:23:05Z</time>
      </trkpt>
      <trkpt lat="45.76337" lon="4.62794">
        <ele>704.05200195312</ele>
        <time>2011-11-11T09:23:10Z</time>
      </trkpt>
      <trkpt lat="45.76334" lon="4.62804">
        <ele>704.43103027344</ele>
        <time>2011-11-11T09:23:16Z</time>
      </trkpt>
      <trkpt lat="45.76326" lon="4.62821">
        <ele>705.36297607422</ele>
        <time>2011-11-11T09:23:25Z</time>
      </trkpt>
      <trkpt lat="45.76323" lon="4.62831">
        <ele>706.02801513672</ele>
        <time>2011-11-11T09:23:31Z</time>
      </trkpt>
      <trkpt lat="45.76318" lon="4.62841">
        <ele>706.58599853516</ele>
        <time>2011-11-11T09:23:36Z</time>
      </trkpt>
      <trkpt lat="45.76314" lon="4.62851">
        <ele>707.09301757812</ele>
        <time>2011-11-11T09:23:41Z</time>
      </trkpt>
      <trkpt lat="45.76303" lon="4.62868">
        <ele>708.17602539062</ele>
        <time>2011-11-11T09:23:49Z</time>
      </trkpt>
      <trkpt lat="45.76292" lon="4.62876">
        <ele>709.03100585938</ele>
        <time>2011-11-11T09:23:56Z</time>
      </trkpt>
      <trkpt lat="45.76287" lon="4.62876">
        <ele>709.15899658203</ele>
        <time>2011-11-11T09:23:59Z</time>
      </trkpt>
      <trkpt lat="45.76281" lon="4.62882">
        <ele>709.22198486328</ele>
        <time>2011-11-11T09:24:03Z</time>
      </trkpt>
      <trkpt lat="45.76278" lon="4.6289">
        <ele>708.90802001953</ele>
        <time>2011-11-11T09:24:09Z</time>
      </trkpt>
      <trkpt lat="45.76282" lon="4.6289">
        <ele>710.42498779297</ele>
        <time>2011-11-11T09:27:58Z</time>
      </trkpt>
      <trkpt lat="45.76283" lon="4.62887">
        <ele>710.47698974609</ele>
        <time>2011-11-11T09:28:02Z</time>
      </trkpt>
      <trkpt lat="45.76278" lon="4.62882">
        <ele>710.75500488281</ele>
        <time>2011-11-11T09:28:08Z</time>
      </trkpt>
      <trkpt lat="45.76277" lon="4.62881">
        <ele>710.79699707031</ele>
        <time>2011-11-11T09:28:09Z</time>
      </trkpt>
      <trkpt lat="45.76271" lon="4.62876">
        <ele>710.82800292969</ele>
        <time>2011-11-11T09:28:14Z</time>
      </trkpt>
      <trkpt lat="45.76264" lon="4.62871">
        <ele>710.77899169922</ele>
        <time>2011-11-11T09:28:20Z</time>
      </trkpt>
      <trkpt lat="45.76258" lon="4.62871">
        <ele>710.96899414062</ele>
        <time>2011-11-11T09:28:24Z</time>
      </trkpt>
      <trkpt lat="45.76245" lon="4.62871">
        <ele>711.05798339844</ele>
        <time>2011-11-11T09:28:31Z</time>
      </trkpt>
      <trkpt lat="45.7623" lon="4.62872">
        <ele>711.58697509766</ele>
        <time>2011-11-11T09:28:38Z</time>
      </trkpt>
      <trkpt lat="45.76214" lon="4.62871">
        <ele>712.05700683594</ele>
        <time>2011-11-11T09:28:46Z</time>
      </trkpt>
      <trkpt lat="45.76195" lon="4.62863">
        <ele>713.00201416016</ele>
        <time>2011-11-11T09:28:56Z</time>
      </trkpt>
      <trkpt lat="45.76187" lon="4.62853">
        <ele>713.33599853516</ele>
        <time>2011-11-11T09:29:02Z</time>
      </trkpt>
      <trkpt lat="45.76176" lon="4.62839">
        <ele>713.58099365234</ele>
        <time>2011-11-11T09:29:07Z</time>
      </trkpt>
      <trkpt lat="45.76171" lon="4.62829">
        <ele>713.9580078125</ele>
        <time>2011-11-11T09:29:12Z</time>
      </trkpt>
      <trkpt lat="45.76161" lon="4.62816">
        <ele>714.79400634766</ele>
        <time>2011-11-11T09:29:18Z</time>
      </trkpt>
      <trkpt lat="45.76155" lon="4.62808">
        <ele>715.31597900391</ele>
        <time>2011-11-11T09:29:23Z</time>
      </trkpt>
      <trkpt lat="45.76152" lon="4.62802">
        <ele>715.61102294922</ele>
        <time>2011-11-11T09:29:26Z</time>
      </trkpt>
      <trkpt lat="45.76151" lon="4.62794">
        <ele>715.93298339844</ele>
        <time>2011-11-11T09:29:29Z</time>
      </trkpt>
      <trkpt lat="45.76142" lon="4.62778">
        <ele>716.8740234375</ele>
        <time>2011-11-11T09:29:37Z</time>
      </trkpt>
      <trkpt lat="45.76131" lon="4.62769">
        <ele>717.82299804688</ele>
        <time>2011-11-11T09:29:43Z</time>
      </trkpt>
      <trkpt lat="45.76122" lon="4.62764">
        <ele>718.46997070312</ele>
        <time>2011-11-11T09:29:48Z</time>
      </trkpt>
      <trkpt lat="45.76109" lon="4.62767">
        <ele>719.36999511719</ele>
        <time>2011-11-11T09:29:56Z</time>
      </trkpt>
      <trkpt lat="45.76102" lon="4.62778">
        <ele>720.19396972656</ele>
        <time>2011-11-11T09:30:03Z</time>
      </trkpt>
      <trkpt lat="45.76095" lon="4.62793">
        <ele>721.23699951172</ele>
        <time>2011-11-11T09:30:09Z</time>
      </trkpt>
      <trkpt lat="45.76089" lon="4.62803">
        <ele>722.06799316406</ele>
        <time>2011-11-11T09:30:16Z</time>
      </trkpt>
      <trkpt lat="45.76082" lon="4.62814">
        <ele>722.46697998047</ele>
        <time>2011-11-11T09:30:22Z</time>
      </trkpt>
      <trkpt lat="45.76074" lon="4.62826">
        <ele>723.03900146484</ele>
        <time>2011-11-11T09:30:29Z</time>
      </trkpt>
      <trkpt lat="45.76065" lon="4.62836">
        <ele>723.66101074219</ele>
        <time>2011-11-11T09:30:35Z</time>
      </trkpt>
      <trkpt lat="45.76057" lon="4.62845">
        <ele>724.35900878906</ele>
        <time>2011-11-11T09:30:41Z</time>
      </trkpt>
      <trkpt lat="45.76048" lon="4.62842">
        <ele>725.40997314453</ele>
        <time>2011-11-11T09:30:47Z</time>
      </trkpt>
      <trkpt lat="45.76048" lon="4.6284">
        <ele>725.40899658203</ele>
        <time>2011-11-11T09:30:48Z</time>
      </trkpt>
      <trkpt lat="45.76048" lon="4.62832">
        <ele>725.96197509766</ele>
        <time>2011-11-11T09:30:53Z</time>
      </trkpt>
      <trkpt lat="45.76047" lon="4.62832">
        <ele>726.09899902344</ele>
        <time>2011-11-11T09:30:55Z</time>
      </trkpt>
      <trkpt lat="45.76049" lon="4.62832">
        <ele>726.19396972656</ele>
        <time>2011-11-11T09:30:57Z</time>
      </trkpt>
      <trkpt lat="45.76055" lon="4.62827">
        <ele>726.67901611328</ele>
        <time>2011-11-11T09:31:02Z</time>
      </trkpt>
      <trkpt lat="45.76059" lon="4.62818">
        <ele>727.10302734375</ele>
        <time>2011-11-11T09:31:09Z</time>
      </trkpt>
      <trkpt lat="45.76063" lon="4.62808">
        <ele>727.65600585938</ele>
        <time>2011-11-11T09:31:15Z</time>
      </trkpt>
      <trkpt lat="45.76067" lon="4.62795">
        <ele>727.93597412109</ele>
        <time>2011-11-11T09:31:22Z</time>
      </trkpt>
      <trkpt lat="45.76067" lon="4.62789">
        <ele>728.22900390625</ele>
        <time>2011-11-11T09:31:25Z</time>
      </trkpt>
      <trkpt lat="45.76067" lon="4.6277">
        <ele>728.99200439453</ele>
        <time>2011-11-11T09:31:34Z</time>
      </trkpt>
      <trkpt lat="45.76063" lon="4.62758">
        <ele>729.60900878906</ele>
        <time>2011-11-11T09:31:40Z</time>
      </trkpt>
      <trkpt lat="45.76064" lon="4.62756">
        <ele>729.75201416016</ele>
        <time>2011-11-11T09:31:41Z</time>
      </trkpt>
      <trkpt lat="45.76062" lon="4.62746">
        <ele>730.31201171875</ele>
        <time>2011-11-11T09:31:45Z</time>
      </trkpt>
      <trkpt lat="45.76065" lon="4.62728">
        <ele>731.29998779297</ele>
        <time>2011-11-11T09:31:52Z</time>
      </trkpt>
      <trkpt lat="45.76067" lon="4.62712">
        <ele>732.18103027344</ele>
        <time>2011-11-11T09:31:59Z</time>
      </trkpt>
      <trkpt lat="45.76068" lon="4.6271">
        <ele>732.27801513672</ele>
        <time>2011-11-11T09:32:00Z</time>
      </trkpt>
      <trkpt lat="45.76075" lon="4.62703">
        <ele>732.48297119141</ele>
        <time>2011-11-11T09:32:04Z</time>
      </trkpt>
      <trkpt lat="45.76091" lon="4.62694">
        <ele>733.70202636719</ele>
        <time>2011-11-11T09:32:12Z</time>
      </trkpt>
      <trkpt lat="45.76105" lon="4.62686">
        <ele>734.44299316406</ele>
        <time>2011-11-11T09:32:18Z</time>
      </trkpt>
      <trkpt lat="45.76115" lon="4.62683">
        <ele>735.13598632812</ele>
        <time>2011-11-11T09:32:23Z</time>
      </trkpt>
      <trkpt lat="45.76131" lon="4.6268">
        <ele>735.88000488281</ele>
        <time>2011-11-11T09:32:30Z</time>
      </trkpt>
      <trkpt lat="45.76133" lon="4.62679">
        <ele>735.98400878906</ele>
        <time>2011-11-11T09:32:31Z</time>
      </trkpt>
      <trkpt lat="45.76138" lon="4.6267">
        <ele>736.21197509766</ele>
        <time>2011-11-11T09:32:36Z</time>
      </trkpt>
      <trkpt lat="45.76134" lon="4.62667">
        <ele>736.63500976562</ele>
        <time>2011-11-11T09:32:40Z</time>
      </trkpt>
      <trkpt lat="45.76123" lon="4.62668">
        <ele>737.80297851562</ele>
        <time>2011-11-11T09:32:48Z</time>
      </trkpt>
      <trkpt lat="45.76112" lon="4.62669">
        <ele>738.21398925781</ele>
        <time>2011-11-11T09:32:54Z</time>
      </trkpt>
      <trkpt lat="45.76101" lon="4.62669">
        <ele>738.51800537109</ele>
        <time>2011-11-11T09:33:00Z</time>
      </trkpt>
      <trkpt lat="45.76098" lon="4.6267">
        <ele>738.68402099609</ele>
        <time>2011-11-11T09:33:02Z</time>
      </trkpt>
      <trkpt lat="45.76087" lon="4.62669">
        <ele>739.81097412109</ele>
        <time>2011-11-11T09:33:10Z</time>
      </trkpt>
      <trkpt lat="45.76085" lon="4.62669">
        <ele>739.88397216797</ele>
        <time>2011-11-11T09:33:11Z</time>
      </trkpt>
      <trkpt lat="45.76072" lon="4.62664">
        <ele>740.48901367188</ele>
        <time>2011-11-11T09:33:18Z</time>
      </trkpt>
      <trkpt lat="45.76061" lon="4.62658">
        <ele>741.14501953125</ele>
        <time>2011-11-11T09:33:24Z</time>
      </trkpt>
      <trkpt lat="45.7605" lon="4.62657">
        <ele>741.81298828125</ele>
        <time>2011-11-11T09:33:30Z</time>
      </trkpt>
      <trkpt lat="45.76043" lon="4.62664">
        <ele>742.53997802734</ele>
        <time>2011-11-11T09:33:35Z</time>
      </trkpt>
      <trkpt lat="45.7604" lon="4.62668">
        <ele>742.72399902344</ele>
        <time>2011-11-11T09:33:37Z</time>
      </trkpt>
      <trkpt lat="45.7603" lon="4.6268">
        <ele>743.49200439453</ele>
        <time>2011-11-11T09:33:44Z</time>
      </trkpt>
      <trkpt lat="45.76021" lon="4.62691">
        <ele>743.92901611328</ele>
        <time>2011-11-11T09:33:49Z</time>
      </trkpt>
      <trkpt lat="45.76012" lon="4.62705">
        <ele>744.67401123047</ele>
        <time>2011-11-11T09:33:55Z</time>
      </trkpt>
      <trkpt lat="45.76004" lon="4.62723">
        <ele>745.25</ele>
        <time>2011-11-11T09:34:02Z</time>
      </trkpt>
      <trkpt lat="45.76002" lon="4.62736">
        <ele>745.71002197266</ele>
        <time>2011-11-11T09:34:07Z</time>
      </trkpt>
      <trkpt lat="45.75998" lon="4.62751">
        <ele>746.04699707031</ele>
        <time>2011-11-11T09:34:14Z</time>
      </trkpt>
      <trkpt lat="45.7599" lon="4.62754">
        <ele>746.39300537109</ele>
        <time>2011-11-11T09:34:19Z</time>
      </trkpt>
      <trkpt lat="45.75988" lon="4.6275">
        <ele>746.61499023438</ele>
        <time>2011-11-11T09:34:21Z</time>
      </trkpt>
      <trkpt lat="45.75988" lon="4.62743">
        <ele>746.90502929688</ele>
        <time>2011-11-11T09:34:26Z</time>
      </trkpt>
      <trkpt lat="45.75993" lon="4.62727">
        <ele>747.6259765625</ele>
        <time>2011-11-11T09:34:33Z</time>
      </trkpt>
      <trkpt lat="45.75999" lon="4.62715">
        <ele>748.02197265625</ele>
        <time>2011-11-11T09:34:39Z</time>
      </trkpt>
      <trkpt lat="45.76004" lon="4.62695">
        <ele>748.34698486328</ele>
        <time>2011-11-11T09:34:45Z</time>
      </trkpt>
      <trkpt lat="45.76005" lon="4.62692">
        <ele>748.51098632812</ele>
        <time>2011-11-11T09:34:46Z</time>
      </trkpt>
      <trkpt lat="45.76006" lon="4.62669">
        <ele>749.42199707031</ele>
        <time>2011-11-11T09:34:54Z</time>
      </trkpt>
      <trkpt lat="45.76007" lon="4.62653">
        <ele>750.02398681641</ele>
        <time>2011-11-11T09:35:01Z</time>
      </trkpt>
      <trkpt lat="45.76011" lon="4.62631">
        <ele>750.96600341797</ele>
        <time>2011-11-11T09:35:08Z</time>
      </trkpt>
      <trkpt lat="45.76012" lon="4.62622">
        <ele>751.375</ele>
        <time>2011-11-11T09:35:12Z</time>
      </trkpt>
      <trkpt lat="45.76018" lon="4.62602">
        <ele>752.01397705078</ele>
        <time>2011-11-11T09:35:18Z</time>
      </trkpt>
      <trkpt lat="45.76013" lon="4.62591">
        <ele>752.86999511719</ele>
        <time>2011-11-11T09:35:24Z</time>
      </trkpt>
      <trkpt lat="45.76004" lon="4.62584">
        <ele>754.03302001953</ele>
        <time>2011-11-11T09:35:31Z</time>
      </trkpt>
      <trkpt lat="45.75996" lon="4.62583">
        <ele>754.91101074219</ele>
        <time>2011-11-11T09:35:37Z</time>
      </trkpt>
      <trkpt lat="45.75991" lon="4.62583">
        <ele>755.81799316406</ele>
        <time>2011-11-11T09:35:41Z</time>
      </trkpt>
      <trkpt lat="45.75987" lon="4.62586">
        <ele>756.42901611328</ele>
        <time>2011-11-11T09:35:44Z</time>
      </trkpt>
      <trkpt lat="45.75974" lon="4.62585">
        <ele>757.94201660156</ele>
        <time>2011-11-11T09:35:52Z</time>
      </trkpt>
      <trkpt lat="45.75965" lon="4.62579">
        <ele>760.17999267578</ele>
        <time>2011-11-11T09:35:59Z</time>
      </trkpt>
      <trkpt lat="45.7596" lon="4.62575">
        <ele>761.23797607422</ele>
        <time>2011-11-11T09:36:04Z</time>
      </trkpt>
      <trkpt lat="45.75957" lon="4.62565">
        <ele>762.10498046875</ele>
        <time>2011-11-11T09:36:11Z</time>
      </trkpt>
      <trkpt lat="45.75956" lon="4.62557">
        <ele>762.87097167969</ele>
        <time>2011-11-11T09:36:17Z</time>
      </trkpt>
      <trkpt lat="45.7596" lon="4.62558">
        <ele>763.01599121094</ele>
        <time>2011-11-11T09:36:21Z</time>
      </trkpt>
      <trkpt lat="45.75963" lon="4.62567">
        <ele>762.71002197266</ele>
        <time>2011-11-11T09:36:24Z</time>
      </trkpt>
      <trkpt lat="45.75964" lon="4.6259">
        <ele>761.64501953125</ele>
        <time>2011-11-11T09:36:31Z</time>
      </trkpt>
      <trkpt lat="45.75967" lon="4.62605">
        <ele>760.82897949219</ele>
        <time>2011-11-11T09:36:36Z</time>
      </trkpt>
      <trkpt lat="45.75968" lon="4.62611">
        <ele>760.08898925781</ele>
        <time>2011-11-11T09:36:39Z</time>
      </trkpt>
      <trkpt lat="45.75961" lon="4.62618">
        <ele>759.55499267578</ele>
        <time>2011-11-11T09:36:45Z</time>
      </trkpt>
      <trkpt lat="45.75953" lon="4.62617">
        <ele>760.74401855469</ele>
        <time>2011-11-11T09:36:51Z</time>
      </trkpt>
      <trkpt lat="45.75949" lon="4.62613">
        <ele>762.54998779297</ele>
        <time>2011-11-11T09:36:57Z</time>
      </trkpt>
      <trkpt lat="45.75943" lon="4.62611">
        <ele>763.86199951172</ele>
        <time>2011-11-11T09:37:01Z</time>
      </trkpt>
      <trkpt lat="45.75941" lon="4.6261">
        <ele>764.39202880859</ele>
        <time>2011-11-11T09:37:03Z</time>
      </trkpt>
      <trkpt lat="45.75934" lon="4.62607">
        <ele>765.55102539062</ele>
        <time>2011-11-11T09:37:08Z</time>
      </trkpt>
      <trkpt lat="45.75925" lon="4.62602">
        <ele>767.45697021484</ele>
        <time>2011-11-11T09:37:15Z</time>
      </trkpt>
      <trkpt lat="45.75918" lon="4.62599">
        <ele>769.06701660156</ele>
        <time>2011-11-11T09:37:21Z</time>
      </trkpt>
      <trkpt lat="45.75909" lon="4.62593">
        <ele>770.42102050781</ele>
        <time>2011-11-11T09:37:27Z</time>
      </trkpt>
      <trkpt lat="45.759" lon="4.62587">
        <ele>771.92602539062</ele>
        <time>2011-11-11T09:37:33Z</time>
      </trkpt>
      <trkpt lat="45.75892" lon="4.62583">
        <ele>773.22399902344</ele>
        <time>2011-11-11T09:37:39Z</time>
      </trkpt>
      <trkpt lat="45.75882" lon="4.62577">
        <ele>775.27197265625</ele>
        <time>2011-11-11T09:37:48Z</time>
      </trkpt>
      <trkpt lat="45.75871" lon="4.62575">
        <ele>776.57299804688</ele>
        <time>2011-11-11T09:37:55Z</time>
      </trkpt>
      <trkpt lat="45.7587" lon="4.62574">
        <ele>776.69299316406</ele>
        <time>2011-11-11T09:37:56Z</time>
      </trkpt>
      <trkpt lat="45.75866" lon="4.62572">
        <ele>777.02801513672</ele>
        <time>2011-11-11T09:37:59Z</time>
      </trkpt>
      <trkpt lat="45.75859" lon="4.62567">
        <ele>778.25897216797</ele>
        <time>2011-11-11T09:38:06Z</time>
      </trkpt>
      <trkpt lat="45.75849" lon="4.62561">
        <ele>779.47302246094</ele>
        <time>2011-11-11T09:38:14Z</time>
      </trkpt>
      <trkpt lat="45.75838" lon="4.62559">
        <ele>780.07897949219</ele>
        <time>2011-11-11T09:38:20Z</time>
      </trkpt>
      <trkpt lat="45.75837" lon="4.62557">
        <ele>780.11999511719</ele>
        <time>2011-11-11T09:38:21Z</time>
      </trkpt>
      <trkpt lat="45.7583" lon="4.6254">
        <ele>780.32202148438</ele>
        <time>2011-11-11T09:38:28Z</time>
      </trkpt>
      <trkpt lat="45.75829" lon="4.62522">
        <ele>779.75</ele>
        <time>2011-11-11T09:38:34Z</time>
      </trkpt>
      <trkpt lat="45.75831" lon="4.62504">
        <ele>779.48101806641</ele>
        <time>2011-11-11T09:38:40Z</time>
      </trkpt>
      <trkpt lat="45.75833" lon="4.62486">
        <ele>779.40301513672</ele>
        <time>2011-11-11T09:38:46Z</time>
      </trkpt>
      <trkpt lat="45.75834" lon="4.62482">
        <ele>779.33801269531</ele>
        <time>2011-11-11T09:38:49Z</time>
      </trkpt>
      <trkpt lat="45.75832" lon="4.62481">
        <ele>779.29498291016</ele>
        <time>2011-11-11T09:38:51Z</time>
      </trkpt>
      <trkpt lat="45.75828" lon="4.62477">
        <ele>779.25897216797</ele>
        <time>2011-11-11T09:38:57Z</time>
      </trkpt>
      <trkpt lat="45.75828" lon="4.62476">
        <ele>778.87902832031</ele>
        <time>2011-11-11T09:39:04Z</time>
      </trkpt>
      <trkpt lat="45.75831" lon="4.62471">
        <ele>779.35302734375</ele>
        <time>2011-11-11T09:39:11Z</time>
      </trkpt>
      <trkpt lat="45.75835" lon="4.62469">
        <ele>779.59698486328</ele>
        <time>2011-11-11T09:39:17Z</time>
      </trkpt>
      <trkpt lat="45.75841" lon="4.62465">
        <ele>779.51501464844</ele>
        <time>2011-11-11T09:39:22Z</time>
      </trkpt>
      <trkpt lat="45.75843" lon="4.6246">
        <ele>779.86798095703</ele>
        <time>2011-11-11T09:39:29Z</time>
      </trkpt>
      <trkpt lat="45.75841" lon="4.62454">
        <ele>779.56500244141</ele>
        <time>2011-11-11T09:39:36Z</time>
      </trkpt>
      <trkpt lat="45.7584" lon="4.62451">
        <ele>779.25897216797</ele>
        <time>2011-11-11T09:39:41Z</time>
      </trkpt>
      <trkpt lat="45.75844" lon="4.62434">
        <ele>778.96002197266</ele>
        <time>2011-11-11T09:39:47Z</time>
      </trkpt>
      <trkpt lat="45.7584" lon="4.62419">
        <ele>778.1240234375</ele>
        <time>2011-11-11T09:39:52Z</time>
      </trkpt>
      <trkpt lat="45.75834" lon="4.62405">
        <ele>776.91802978516</ele>
        <time>2011-11-11T09:39:57Z</time>
      </trkpt>
      <trkpt lat="45.75827" lon="4.62388">
        <ele>775.71502685547</ele>
        <time>2011-11-11T09:40:02Z</time>
      </trkpt>
      <trkpt lat="45.75816" lon="4.62371">
        <ele>774.69799804688</ele>
        <time>2011-11-11T09:40:09Z</time>
      </trkpt>
      <trkpt lat="45.75801" lon="4.62351">
        <ele>773.94000244141</ele>
        <time>2011-11-11T09:40:15Z</time>
      </trkpt>
      <trkpt lat="45.75786" lon="4.6234">
        <ele>772.92700195312</ele>
        <time>2011-11-11T09:40:19Z</time>
      </trkpt>
      <trkpt lat="45.75767" lon="4.62335">
        <ele>771.30999755859</ele>
        <time>2011-11-11T09:40:23Z</time>
      </trkpt>
      <trkpt lat="45.75757" lon="4.62333">
        <ele>770.10797119141</ele>
        <time>2011-11-11T09:40:25Z</time>
      </trkpt>
      <trkpt lat="45.7574" lon="4.62312">
        <ele>767.08697509766</ele>
        <time>2011-11-11T09:40:29Z</time>
      </trkpt>
      <trkpt lat="45.75737" lon="4.62297">
        <ele>766.40698242188</ele>
        <time>2011-11-11T09:40:31Z</time>
      </trkpt>
      <trkpt lat="45.75735" lon="4.62289">
        <ele>765.708984375</ele>
        <time>2011-11-11T09:40:32Z</time>
      </trkpt>
      <trkpt lat="45.7572" lon="4.62246">
        <ele>763.75299072266</ele>
        <time>2011-11-11T09:40:38Z</time>
      </trkpt>
      <trkpt lat="45.75705" lon="4.62201">
        <ele>762.59399414062</ele>
        <time>2011-11-11T09:40:45Z</time>
      </trkpt>
      <trkpt lat="45.75693" lon="4.62177">
        <ele>761.47302246094</ele>
        <time>2011-11-11T09:40:50Z</time>
      </trkpt>
      <trkpt lat="45.75684" lon="4.62154">
        <ele>759.88702392578</ele>
        <time>2011-11-11T09:40:54Z</time>
      </trkpt>
      <trkpt lat="45.75682" lon="4.6213">
        <ele>758.51202392578</ele>
        <time>2011-11-11T09:40:59Z</time>
      </trkpt>
      <trkpt lat="45.75682" lon="4.62111">
        <ele>758.07702636719</ele>
        <time>2011-11-11T09:41:04Z</time>
      </trkpt>
      <trkpt lat="45.75679" lon="4.62097">
        <ele>757.96600341797</ele>
        <time>2011-11-11T09:41:09Z</time>
      </trkpt>
      <trkpt lat="45.75679" lon="4.62079">
        <ele>757.99798583984</ele>
        <time>2011-11-11T09:41:13Z</time>
      </trkpt>
      <trkpt lat="45.75682" lon="4.62051">
        <ele>757.97497558594</ele>
        <time>2011-11-11T09:41:18Z</time>
      </trkpt>
      <trkpt lat="45.75681" lon="4.6202">
        <ele>758.00799560547</ele>
        <time>2011-11-11T09:41:23Z</time>
      </trkpt>
      <trkpt lat="45.75676" lon="4.61994">
        <ele>757.90802001953</ele>
        <time>2011-11-11T09:41:27Z</time>
      </trkpt>
      <trkpt lat="45.75669" lon="4.61953">
        <ele>757.31896972656</ele>
        <time>2011-11-11T09:41:33Z</time>
      </trkpt>
      <trkpt lat="45.75668" lon="4.61938">
        <ele>757.20001220703</ele>
        <time>2011-11-11T09:41:35Z</time>
      </trkpt>
      <trkpt lat="45.7566" lon="4.61909">
        <ele>756.90197753906</ele>
        <time>2011-11-11T09:41:39Z</time>
      </trkpt>
      <trkpt lat="45.75648" lon="4.61881">
        <ele>755.80102539062</ele>
        <time>2011-11-11T09:41:44Z</time>
      </trkpt>
      <trkpt lat="45.75637" lon="4.61859">
        <ele>754.89202880859</ele>
        <time>2011-11-11T09:41:49Z</time>
      </trkpt>
      <trkpt lat="45.75632" lon="4.61834">
        <ele>753.94396972656</ele>
        <time>2011-11-11T09:41:53Z</time>
      </trkpt>
      <trkpt lat="45.75626" lon="4.6181">
        <ele>752.25897216797</ele>
        <time>2011-11-11T09:41:58Z</time>
      </trkpt>
      <trkpt lat="45.75625" lon="4.61791">
        <ele>750.97601318359</ele>
        <time>2011-11-11T09:42:02Z</time>
      </trkpt>
      <trkpt lat="45.75624" lon="4.61771">
        <ele>750.34399414062</ele>
        <time>2011-11-11T09:42:06Z</time>
      </trkpt>
      <trkpt lat="45.75623" lon="4.61729">
        <ele>750.19299316406</ele>
        <time>2011-11-11T09:42:13Z</time>
      </trkpt>
      <trkpt lat="45.75626" lon="4.61705">
        <ele>750.15899658203</ele>
        <time>2011-11-11T09:42:19Z</time>
      </trkpt>
      <trkpt lat="45.75637" lon="4.61678">
        <ele>749.82598876953</ele>
        <time>2011-11-11T09:42:25Z</time>
      </trkpt>
      <trkpt lat="45.7564" lon="4.61651">
        <ele>748.81597900391</ele>
        <time>2011-11-11T09:42:29Z</time>
      </trkpt>
      <trkpt lat="45.75646" lon="4.61619">
        <ele>747.31097412109</ele>
        <time>2011-11-11T09:42:33Z</time>
      </trkpt>
      <trkpt lat="45.75647" lon="4.61579">
        <ele>745.5419921875</ele>
        <time>2011-11-11T09:42:38Z</time>
      </trkpt>
      <trkpt lat="45.7564" lon="4.61554">
        <ele>744.67498779297</ele>
        <time>2011-11-11T09:42:42Z</time>
      </trkpt>
      <trkpt lat="45.75636" lon="4.61529">
        <ele>744.60900878906</ele>
        <time>2011-11-11T09:42:46Z</time>
      </trkpt>
      <trkpt lat="45.75627" lon="4.61479">
        <ele>743.36199951172</ele>
        <time>2011-11-11T09:42:54Z</time>
      </trkpt>
      <trkpt lat="45.75615" lon="4.61441">
        <ele>743.28100585938</ele>
        <time>2011-11-11T09:43:02Z</time>
      </trkpt>
      <trkpt lat="45.75615" lon="4.61415">
        <ele>742.72802734375</ele>
        <time>2011-11-11T09:43:06Z</time>
      </trkpt>
      <trkpt lat="45.75606" lon="4.61396">
        <ele>741.23901367188</ele>
        <time>2011-11-11T09:43:10Z</time>
      </trkpt>
      <trkpt lat="45.75596" lon="4.61391">
        <ele>740.52899169922</ele>
        <time>2011-11-11T09:43:14Z</time>
      </trkpt>
      <trkpt lat="45.75593" lon="4.61392">
        <ele>740.63098144531</ele>
        <time>2011-11-11T09:43:15Z</time>
      </trkpt>
      <trkpt lat="45.75582" lon="4.61395">
        <ele>742.28997802734</ele>
        <time>2011-11-11T09:43:19Z</time>
      </trkpt>
      <trkpt lat="45.75577" lon="4.61394">
        <ele>743.21997070312</ele>
        <time>2011-11-11T09:43:21Z</time>
      </trkpt>
      <trkpt lat="45.75567" lon="4.61374">
        <ele>743.90502929688</ele>
        <time>2011-11-11T09:43:28Z</time>
      </trkpt>
      <trkpt lat="45.75556" lon="4.6135">
        <ele>742.71899414062</ele>
        <time>2011-11-11T09:43:33Z</time>
      </trkpt>
      <trkpt lat="45.75546" lon="4.61325">
        <ele>740.55902099609</ele>
        <time>2011-11-11T09:43:37Z</time>
      </trkpt>
      <trkpt lat="45.75543" lon="4.61291">
        <ele>735.90802001953</ele>
        <time>2011-11-11T09:43:42Z</time>
      </trkpt>
      <trkpt lat="45.75545" lon="4.61278">
        <ele>733.58898925781</ele>
        <time>2011-11-11T09:43:44Z</time>
      </trkpt>
      <trkpt lat="45.75545" lon="4.61256">
        <ele>728.70001220703</ele>
        <time>2011-11-11T09:43:48Z</time>
      </trkpt>
      <trkpt lat="45.75536" lon="4.61233">
        <ele>724.40002441406</ele>
        <time>2011-11-11T09:43:52Z</time>
      </trkpt>
      <trkpt lat="45.75531" lon="4.6123">
        <ele>723.47601318359</ele>
        <time>2011-11-11T09:43:53Z</time>
      </trkpt>
      <trkpt lat="45.75506" lon="4.61221">
        <ele>721.31097412109</ele>
        <time>2011-11-11T09:43:58Z</time>
      </trkpt>
      <trkpt lat="45.75497" lon="4.61221">
        <ele>720.81201171875</ele>
        <time>2011-11-11T09:44:00Z</time>
      </trkpt>
      <trkpt lat="45.75479" lon="4.61214">
        <ele>720.41101074219</ele>
        <time>2011-11-11T09:44:04Z</time>
      </trkpt>
      <trkpt lat="45.75449" lon="4.612">
        <ele>719.79498291016</ele>
        <time>2011-11-11T09:44:10Z</time>
      </trkpt>
      <trkpt lat="45.75431" lon="4.61188">
        <ele>719.27502441406</ele>
        <time>2011-11-11T09:44:15Z</time>
      </trkpt>
      <trkpt lat="45.75417" lon="4.61181">
        <ele>719.23901367188</ele>
        <time>2011-11-11T09:44:18Z</time>
      </trkpt>
      <trkpt lat="45.75395" lon="4.61162">
        <ele>718.85797119141</ele>
        <time>2011-11-11T09:44:23Z</time>
      </trkpt>
      <trkpt lat="45.7539" lon="4.61158">
        <ele>718.73101806641</ele>
        <time>2011-11-11T09:44:24Z</time>
      </trkpt>
      <trkpt lat="45.75368" lon="4.61138">
        <ele>718.10101318359</ele>
        <time>2011-11-11T09:44:29Z</time>
      </trkpt>
      <trkpt lat="45.7535" lon="4.6112">
        <ele>717.58502197266</ele>
        <time>2011-11-11T09:44:33Z</time>
      </trkpt>
      <trkpt lat="45.7534" lon="4.6111">
        <ele>717.40002441406</ele>
        <time>2011-11-11T09:44:35Z</time>
      </trkpt>
      <trkpt lat="45.75325" lon="4.611">
        <ele>717.23400878906</ele>
        <time>2011-11-11T09:44:40Z</time>
      </trkpt>
      <trkpt lat="45.75316" lon="4.61096">
        <ele>717.73199462891</ele>
        <time>2011-11-11T09:44:46Z</time>
      </trkpt>
      <trkpt lat="45.75311" lon="4.61088">
        <ele>718.52899169922</ele>
        <time>2011-11-11T09:44:50Z</time>
      </trkpt>
      <trkpt lat="45.753" lon="4.61067">
        <ele>719.27600097656</ele>
        <time>2011-11-11T09:44:56Z</time>
      </trkpt>
      <trkpt lat="45.75298" lon="4.61064">
        <ele>719.26300048828</ele>
        <time>2011-11-11T09:44:57Z</time>
      </trkpt>
      <trkpt lat="45.75283" lon="4.61049">
        <ele>719.09899902344</ele>
        <time>2011-11-11T09:45:04Z</time>
      </trkpt>
      <trkpt lat="45.75278" lon="4.61045">
        <ele>719.72198486328</ele>
        <time>2011-11-11T09:45:07Z</time>
      </trkpt>
      <trkpt lat="45.75272" lon="4.61041">
        <ele>720.58001708984</ele>
        <time>2011-11-11T09:45:12Z</time>
      </trkpt>
      <trkpt lat="45.75262" lon="4.61033">
        <ele>721.62097167969</ele>
        <time>2011-11-11T09:45:19Z</time>
      </trkpt>
      <trkpt lat="45.75256" lon="4.61027">
        <ele>722.22497558594</ele>
        <time>2011-11-11T09:45:24Z</time>
      </trkpt>
      <trkpt lat="45.75248" lon="4.61025">
        <ele>723.32098388672</ele>
        <time>2011-11-11T09:45:30Z</time>
      </trkpt>
      <trkpt lat="45.7524" lon="4.61019">
        <ele>724.96099853516</ele>
        <time>2011-11-11T09:45:37Z</time>
      </trkpt>
      <trkpt lat="45.75237" lon="4.61019">
        <ele>725.49200439453</ele>
        <time>2011-11-11T09:45:39Z</time>
      </trkpt>
      <trkpt lat="45.75231" lon="4.6101">
        <ele>726.46899414062</ele>
        <time>2011-11-11T09:45:45Z</time>
      </trkpt>
      <trkpt lat="45.75222" lon="4.61005">
        <ele>727.30999755859</ele>
        <time>2011-11-11T09:45:52Z</time>
      </trkpt>
      <trkpt lat="45.7521" lon="4.60992">
        <ele>727.72497558594</ele>
        <time>2011-11-11T09:46:24Z</time>
      </trkpt>
      <trkpt lat="45.75204" lon="4.60982">
        <ele>727.54699707031</ele>
        <time>2011-11-11T09:46:30Z</time>
      </trkpt>
      <trkpt lat="45.75203" lon="4.60977">
        <ele>727.23999023438</ele>
        <time>2011-11-11T09:46:33Z</time>
      </trkpt>
      <trkpt lat="45.75205" lon="4.6096">
        <ele>726.0419921875</ele>
        <time>2011-11-11T09:46:38Z</time>
      </trkpt>
      <trkpt lat="45.75202" lon="4.60944">
        <ele>723.35498046875</ele>
        <time>2011-11-11T09:46:43Z</time>
      </trkpt>
      <trkpt lat="45.75198" lon="4.60926">
        <ele>720.79498291016</ele>
        <time>2011-11-11T09:46:48Z</time>
      </trkpt>
      <trkpt lat="45.75198" lon="4.60913">
        <ele>718.86602783203</ele>
        <time>2011-11-11T09:46:51Z</time>
      </trkpt>
      <trkpt lat="45.75188" lon="4.60897">
        <ele>716.2080078125</ele>
        <time>2011-11-11T09:46:56Z</time>
      </trkpt>
      <trkpt lat="45.75185" lon="4.60897">
        <ele>715.54602050781</ele>
        <time>2011-11-11T09:46:57Z</time>
      </trkpt>
      <trkpt lat="45.7518" lon="4.60897">
        <ele>714.78601074219</ele>
        <time>2011-11-11T09:46:59Z</time>
      </trkpt>
      <trkpt lat="45.7517" lon="4.60897">
        <ele>714.51702880859</ele>
        <time>2011-11-11T09:47:04Z</time>
      </trkpt>
      <trkpt lat="45.75155" lon="4.60892">
        <ele>713.97998046875</ele>
        <time>2011-11-11T09:47:08Z</time>
      </trkpt>
      <trkpt lat="45.75151" lon="4.60891">
        <ele>713.55700683594</ele>
        <time>2011-11-11T09:47:09Z</time>
      </trkpt>
      <trkpt lat="45.75131" lon="4.60897">
        <ele>711.34997558594</ele>
        <time>2011-11-11T09:47:15Z</time>
      </trkpt>
      <trkpt lat="45.75125" lon="4.609">
        <ele>710.92901611328</ele>
        <time>2011-11-11T09:47:18Z</time>
      </trkpt>
      <trkpt lat="45.75118" lon="4.60892">
        <ele>709.42199707031</ele>
        <time>2011-11-11T09:47:22Z</time>
      </trkpt>
      <trkpt lat="45.75109" lon="4.60888">
        <ele>707.50897216797</ele>
        <time>2011-11-11T09:47:25Z</time>
      </trkpt>
      <trkpt lat="45.75109" lon="4.6088">
        <ele>705.86401367188</ele>
        <time>2011-11-11T09:47:27Z</time>
      </trkpt>
      <trkpt lat="45.75108" lon="4.60871">
        <ele>704.19799804688</ele>
        <time>2011-11-11T09:47:29Z</time>
      </trkpt>
      <trkpt lat="45.75098" lon="4.6087">
        <ele>701.09600830078</ele>
        <time>2011-11-11T09:47:33Z</time>
      </trkpt>
      <trkpt lat="45.75094" lon="4.60867">
        <ele>700.43597412109</ele>
        <time>2011-11-11T09:47:34Z</time>
      </trkpt>
      <trkpt lat="45.7508" lon="4.60869">
        <ele>698.84497070312</ele>
        <time>2011-11-11T09:47:40Z</time>
      </trkpt>
      <trkpt lat="45.75069" lon="4.60875">
        <ele>699.11499023438</ele>
        <time>2011-11-11T09:47:46Z</time>
      </trkpt>
      <trkpt lat="45.75058" lon="4.60875">
        <ele>700.18597412109</ele>
        <time>2011-11-11T09:47:52Z</time>
      </trkpt>
      <trkpt lat="45.75051" lon="4.60871">
        <ele>699.81298828125</ele>
        <time>2011-11-11T09:47:57Z</time>
      </trkpt>
      <trkpt lat="45.75047" lon="4.60867">
        <ele>698.97399902344</ele>
        <time>2011-11-11T09:48:12Z</time>
      </trkpt>
      <trkpt lat="45.75045" lon="4.60863">
        <ele>698.58898925781</ele>
        <time>2011-11-11T09:48:18Z</time>
      </trkpt>
      <trkpt lat="45.75043" lon="4.60859">
        <ele>698.09197998047</ele>
        <time>2011-11-11T09:48:27Z</time>
      </trkpt>
      <trkpt lat="45.75042" lon="4.60856">
        <ele>697.42602539062</ele>
        <time>2011-11-11T09:48:31Z</time>
      </trkpt>
      <trkpt lat="45.75038" lon="4.60851">
        <ele>696.43298339844</ele>
        <time>2011-11-11T09:48:38Z</time>
      </trkpt>
      <trkpt lat="45.75036" lon="4.60848">
        <ele>696.17199707031</ele>
        <time>2011-11-11T09:48:45Z</time>
      </trkpt>
      <trkpt lat="45.75035" lon="4.60848">
        <ele>696.10998535156</ele>
        <time>2011-11-11T09:48:50Z</time>
      </trkpt>
      <trkpt lat="45.7503" lon="4.60847">
        <ele>696.21899414062</ele>
        <time>2011-11-11T09:48:54Z</time>
      </trkpt>
      <trkpt lat="45.75016" lon="4.60842">
        <ele>696.47900390625</ele>
        <time>2011-11-11T09:49:01Z</time>
      </trkpt>
      <trkpt lat="45.75003" lon="4.6083">
        <ele>695.61102294922</ele>
        <time>2011-11-11T09:49:06Z</time>
      </trkpt>
      <trkpt lat="45.74995" lon="4.60838">
        <ele>694.85900878906</ele>
        <time>2011-11-11T09:49:11Z</time>
      </trkpt>
      <trkpt lat="45.74993" lon="4.6084">
        <ele>695.01501464844</ele>
        <time>2011-11-11T09:49:12Z</time>
      </trkpt>
      <trkpt lat="45.74981" lon="4.60844">
        <ele>697.06896972656</ele>
        <time>2011-11-11T09:49:19Z</time>
      </trkpt>
      <trkpt lat="45.7497" lon="4.60844">
        <ele>698.49597167969</ele>
        <time>2011-11-11T09:49:27Z</time>
      </trkpt>
      <trkpt lat="45.7496" lon="4.60847">
        <ele>699.96801757812</ele>
        <time>2011-11-11T09:49:33Z</time>
      </trkpt>
      <trkpt lat="45.74949" lon="4.60847">
        <ele>702.23199462891</ele>
        <time>2011-11-11T09:49:42Z</time>
      </trkpt>
      <trkpt lat="45.74943" lon="4.60851">
        <ele>703.02301025391</ele>
        <time>2011-11-11T09:49:47Z</time>
      </trkpt>
      <trkpt lat="45.74941" lon="4.60853">
        <ele>703.18597412109</ele>
        <time>2011-11-11T09:49:49Z</time>
      </trkpt>
      <trkpt lat="45.74932" lon="4.6086">
        <ele>704.29901123047</ele>
        <time>2011-11-11T09:49:56Z</time>
      </trkpt>
      <trkpt lat="45.74923" lon="4.6087">
        <ele>704.64697265625</ele>
        <time>2011-11-11T09:50:02Z</time>
      </trkpt>
      <trkpt lat="45.7492" lon="4.60874">
        <ele>704.81402587891</ele>
        <time>2011-11-11T09:50:05Z</time>
      </trkpt>
      <trkpt lat="45.74908" lon="4.60882">
        <ele>705.03100585938</ele>
        <time>2011-11-11T09:50:11Z</time>
      </trkpt>
      <trkpt lat="45.74891" lon="4.60879">
        <ele>703.21301269531</ele>
        <time>2011-11-11T09:50:17Z</time>
      </trkpt>
      <trkpt lat="45.74881" lon="4.60883">
        <ele>699.60601806641</ele>
        <time>2011-11-11T09:50:21Z</time>
      </trkpt>
      <trkpt lat="45.74879" lon="4.60887">
        <ele>698.15698242188</ele>
        <time>2011-11-11T09:50:23Z</time>
      </trkpt>
      <trkpt lat="45.74878" lon="4.60891">
        <ele>697.50500488281</ele>
        <time>2011-11-11T09:50:25Z</time>
      </trkpt>
      <trkpt lat="45.74874" lon="4.60903">
        <ele>698.58099365234</ele>
        <time>2011-11-11T09:50:31Z</time>
      </trkpt>
      <trkpt lat="45.74871" lon="4.60913">
        <ele>699.48498535156</ele>
        <time>2011-11-11T09:50:36Z</time>
      </trkpt>
      <trkpt lat="45.74866" lon="4.60929">
        <ele>700.82501220703</ele>
        <time>2011-11-11T09:50:43Z</time>
      </trkpt>
      <trkpt lat="45.7486" lon="4.60939">
        <ele>701.98400878906</ele>
        <time>2011-11-11T09:50:49Z</time>
      </trkpt>
      <trkpt lat="45.74857" lon="4.60945">
        <ele>702.84997558594</ele>
        <time>2011-11-11T09:50:54Z</time>
      </trkpt>
      <trkpt lat="45.74852" lon="4.60951">
        <ele>703.65997314453</ele>
        <time>2011-11-11T09:50:59Z</time>
      </trkpt>
      <trkpt lat="45.74847" lon="4.6096">
        <ele>704.68103027344</ele>
        <time>2011-11-11T09:51:06Z</time>
      </trkpt>
      <trkpt lat="45.74844" lon="4.60965">
        <ele>705.3740234375</ele>
        <time>2011-11-11T09:51:10Z</time>
      </trkpt>
      <trkpt lat="45.7484" lon="4.60971">
        <ele>706.31597900391</ele>
        <time>2011-11-11T09:51:17Z</time>
      </trkpt>
      <trkpt lat="45.74846" lon="4.60974">
        <ele>706.87200927734</ele>
        <time>2011-11-11T09:51:29Z</time>
      </trkpt>
      <trkpt lat="45.74842" lon="4.60983">
        <ele>707.28399658203</ele>
        <time>2011-11-11T09:51:35Z</time>
      </trkpt>
      <trkpt lat="45.74837" lon="4.60991">
        <ele>708.25897216797</ele>
        <time>2011-11-11T09:51:41Z</time>
      </trkpt>
      <trkpt lat="45.74833" lon="4.61002">
        <ele>709.52001953125</ele>
        <time>2011-11-11T09:51:47Z</time>
      </trkpt>
      <trkpt lat="45.7483" lon="4.61006">
        <ele>710.11499023438</ele>
        <time>2011-11-11T09:51:50Z</time>
      </trkpt>
      <trkpt lat="45.74828" lon="4.61008">
        <ele>710.64001464844</ele>
        <time>2011-11-11T09:51:52Z</time>
      </trkpt>
      <trkpt lat="45.74824" lon="4.61023">
        <ele>712.30603027344</ele>
        <time>2011-11-11T09:52:00Z</time>
      </trkpt>
      <trkpt lat="45.74821" lon="4.61036">
        <ele>713.82598876953</ele>
        <time>2011-11-11T09:52:06Z</time>
      </trkpt>
      <trkpt lat="45.74816" lon="4.61051">
        <ele>715.36700439453</ele>
        <time>2011-11-11T09:52:13Z</time>
      </trkpt>
      <trkpt lat="45.74814" lon="4.61054">
        <ele>715.88000488281</ele>
        <time>2011-11-11T09:52:15Z</time>
      </trkpt>
      <trkpt lat="45.74811" lon="4.61064">
        <ele>716.82800292969</ele>
        <time>2011-11-11T09:52:20Z</time>
      </trkpt>
      <trkpt lat="45.74811" lon="4.61066">
        <ele>717.04602050781</ele>
        <time>2011-11-11T09:52:21Z</time>
      </trkpt>
      <trkpt lat="45.74807" lon="4.61074">
        <ele>717.84399414062</ele>
        <time>2011-11-11T09:52:25Z</time>
      </trkpt>
      <trkpt lat="45.74804" lon="4.61082">
        <ele>718.96600341797</ele>
        <time>2011-11-11T09:52:29Z</time>
      </trkpt>
      <trkpt lat="45.748" lon="4.61095">
        <ele>720.27001953125</ele>
        <time>2011-11-11T09:52:36Z</time>
      </trkpt>
      <trkpt lat="45.74795" lon="4.61104">
        <ele>720.54302978516</ele>
        <time>2011-11-11T09:52:43Z</time>
      </trkpt>
      <trkpt lat="45.74792" lon="4.61107">
        <ele>720.68402099609</ele>
        <time>2011-11-11T09:52:46Z</time>
      </trkpt>
      <trkpt lat="45.7479" lon="4.61109">
        <ele>720.79901123047</ele>
        <time>2011-11-11T09:52:48Z</time>
      </trkpt>
      <trkpt lat="45.74784" lon="4.61121">
        <ele>721.26000976562</ele>
        <time>2011-11-11T09:52:57Z</time>
      </trkpt>
      <trkpt lat="45.7478" lon="4.61122">
        <ele>721.22698974609</ele>
        <time>2011-11-11T09:53:01Z</time>
      </trkpt>
      <trkpt lat="45.74775" lon="4.61128">
        <ele>721.73101806641</ele>
        <time>2011-11-11T09:53:09Z</time>
      </trkpt>
      <trkpt lat="45.74774" lon="4.6113">
        <ele>721.77001953125</ele>
        <time>2011-11-11T09:53:11Z</time>
      </trkpt>
      <trkpt lat="45.74769" lon="4.61135">
        <ele>722.02600097656</ele>
        <time>2011-11-11T09:53:17Z</time>
      </trkpt>
      <trkpt lat="45.74767" lon="4.61138">
        <ele>722.44396972656</ele>
        <time>2011-11-11T09:53:23Z</time>
      </trkpt>
      <trkpt lat="45.74768" lon="4.61142">
        <ele>722.52502441406</ele>
        <time>2011-11-11T09:53:40Z</time>
      </trkpt>
      <trkpt lat="45.74763" lon="4.61135">
        <ele>722.32098388672</ele>
        <time>2011-11-11T09:53:45Z</time>
      </trkpt>
      <trkpt lat="45.74757" lon="4.61126">
        <ele>721.93298339844</ele>
        <time>2011-11-11T09:53:51Z</time>
      </trkpt>
      <trkpt lat="45.74744" lon="4.61115">
        <ele>721.01898193359</ele>
        <time>2011-11-11T09:53:59Z</time>
      </trkpt>
      <trkpt lat="45.74727" lon="4.61097">
        <ele>720.40399169922</ele>
        <time>2011-11-11T09:54:06Z</time>
      </trkpt>
      <trkpt lat="45.74703" lon="4.61071">
        <ele>718.25299072266</ele>
        <time>2011-11-11T09:54:15Z</time>
      </trkpt>
      <trkpt lat="45.74681" lon="4.61048">
        <ele>716.65997314453</ele>
        <time>2011-11-11T09:54:22Z</time>
      </trkpt>
      <trkpt lat="45.74654" lon="4.61009">
        <ele>714.70599365234</ele>
        <time>2011-11-11T09:54:30Z</time>
      </trkpt>
      <trkpt lat="45.74633" lon="4.6097">
        <ele>712.19702148438</ele>
        <time>2011-11-11T09:54:38Z</time>
      </trkpt>
      <trkpt lat="45.74616" lon="4.60932">
        <ele>710.55200195312</ele>
        <time>2011-11-11T09:54:44Z</time>
      </trkpt>
      <trkpt lat="45.74613" lon="4.60924">
        <ele>710.34600830078</ele>
        <time>2011-11-11T09:54:45Z</time>
      </trkpt>
      <trkpt lat="45.74598" lon="4.60899">
        <ele>709.52502441406</ele>
        <time>2011-11-11T09:54:49Z</time>
      </trkpt>
      <trkpt lat="45.74586" lon="4.60875">
        <ele>709.01300048828</ele>
        <time>2011-11-11T09:54:55Z</time>
      </trkpt>
      <trkpt lat="45.74582" lon="4.60862">
        <ele>709.19299316406</ele>
        <time>2011-11-11T09:54:59Z</time>
      </trkpt>
      <trkpt lat="45.74574" lon="4.60844">
        <ele>710.12298583984</ele>
        <time>2011-11-11T09:55:06Z</time>
      </trkpt>
      <trkpt lat="45.74569" lon="4.60832">
        <ele>710.96697998047</ele>
        <time>2011-11-11T09:55:11Z</time>
      </trkpt>
      <trkpt lat="45.74559" lon="4.6082">
        <ele>711.80798339844</ele>
        <time>2011-11-11T09:55:16Z</time>
      </trkpt>
      <trkpt lat="45.74552" lon="4.60803">
        <ele>712.5009765625</ele>
        <time>2011-11-11T09:55:22Z</time>
      </trkpt>
      <trkpt lat="45.74546" lon="4.60785">
        <ele>713.12097167969</ele>
        <time>2011-11-11T09:55:28Z</time>
      </trkpt>
      <trkpt lat="45.74545" lon="4.6078">
        <ele>713.42498779297</ele>
        <time>2011-11-11T09:55:30Z</time>
      </trkpt>
      <trkpt lat="45.74535" lon="4.60762">
        <ele>714.541015625</ele>
        <time>2011-11-11T09:55:37Z</time>
      </trkpt>
      <trkpt lat="45.74534" lon="4.6076">
        <ele>714.73699951172</ele>
        <time>2011-11-11T09:55:38Z</time>
      </trkpt>
      <trkpt lat="45.74526" lon="4.60754">
        <ele>715.54302978516</ele>
        <time>2011-11-11T09:55:44Z</time>
      </trkpt>
      <trkpt lat="45.74525" lon="4.60753">
        <ele>715.73797607422</ele>
        <time>2011-11-11T09:55:45Z</time>
      </trkpt>
      <trkpt lat="45.74518" lon="4.60741">
        <ele>717.65399169922</ele>
        <time>2011-11-11T09:55:52Z</time>
      </trkpt>
      <trkpt lat="45.7451" lon="4.60734">
        <ele>719.26898193359</ele>
        <time>2011-11-11T09:55:59Z</time>
      </trkpt>
      <trkpt lat="45.74503" lon="4.60725">
        <ele>720.45697021484</ele>
        <time>2011-11-11T09:56:05Z</time>
      </trkpt>
      <trkpt lat="45.74498" lon="4.60718">
        <ele>721.59002685547</ele>
        <time>2011-11-11T09:56:12Z</time>
      </trkpt>
      <trkpt lat="45.74494" lon="4.60714">
        <ele>722.83801269531</ele>
        <time>2011-11-11T09:56:18Z</time>
      </trkpt>
      <trkpt lat="45.74491" lon="4.60711">
        <ele>723.53698730469</ele>
        <time>2011-11-11T09:56:21Z</time>
      </trkpt>
      <trkpt lat="45.74484" lon="4.60707">
        <ele>725.17102050781</ele>
        <time>2011-11-11T09:56:28Z</time>
      </trkpt>
      <trkpt lat="45.74475" lon="4.60702">
        <ele>726.94702148438</ele>
        <time>2011-11-11T09:56:36Z</time>
      </trkpt>
      <trkpt lat="45.74466" lon="4.60699">
        <ele>727.94598388672</ele>
        <time>2011-11-11T09:56:41Z</time>
      </trkpt>
      <trkpt lat="45.74455" lon="4.60692">
        <ele>729.71197509766</ele>
        <time>2011-11-11T09:56:49Z</time>
      </trkpt>
      <trkpt lat="45.74449" lon="4.6069">
        <ele>730.35400390625</ele>
        <time>2011-11-11T09:56:53Z</time>
      </trkpt>
      <trkpt lat="45.7444" lon="4.60682">
        <ele>731.458984375</ele>
        <time>2011-11-11T09:57:01Z</time>
      </trkpt>
      <trkpt lat="45.74439" lon="4.60681">
        <ele>731.58599853516</ele>
        <time>2011-11-11T09:57:02Z</time>
      </trkpt>
      <trkpt lat="45.74432" lon="4.60676">
        <ele>732.86700439453</ele>
        <time>2011-11-11T09:57:10Z</time>
      </trkpt>
      <trkpt lat="45.74429" lon="4.60672">
        <ele>733.49700927734</ele>
        <time>2011-11-11T09:57:15Z</time>
      </trkpt>
      <trkpt lat="45.74427" lon="4.60669">
        <ele>734.05902099609</ele>
        <time>2011-11-11T09:57:18Z</time>
      </trkpt>
      <trkpt lat="45.74419" lon="4.60662">
        <ele>735.1669921875</ele>
        <time>2011-11-11T09:57:26Z</time>
      </trkpt>
      <trkpt lat="45.74414" lon="4.60661">
        <ele>735.65899658203</ele>
        <time>2011-11-11T09:57:29Z</time>
      </trkpt>
      <trkpt lat="45.74409" lon="4.60658">
        <ele>736.16400146484</ele>
        <time>2011-11-11T09:57:32Z</time>
      </trkpt>
      <trkpt lat="45.74396" lon="4.60652">
        <ele>737.71697998047</ele>
        <time>2011-11-11T09:57:41Z</time>
      </trkpt>
      <trkpt lat="45.74387" lon="4.60646">
        <ele>739.04498291016</ele>
        <time>2011-11-11T09:57:49Z</time>
      </trkpt>
      <trkpt lat="45.74377" lon="4.60639">
        <ele>740.19897460938</ele>
        <time>2011-11-11T09:57:57Z</time>
      </trkpt>
      <trkpt lat="45.74374" lon="4.60633">
        <ele>741.09301757812</ele>
        <time>2011-11-11T09:58:04Z</time>
      </trkpt>
      <trkpt lat="45.74369" lon="4.60626">
        <ele>741.81298828125</ele>
        <time>2011-11-11T09:58:09Z</time>
      </trkpt>
      <trkpt lat="45.74368" lon="4.60625">
        <ele>742.00201416016</ele>
        <time>2011-11-11T09:58:10Z</time>
      </trkpt>
      <trkpt lat="45.74362" lon="4.60618">
        <ele>742.93103027344</ele>
        <time>2011-11-11T09:58:16Z</time>
      </trkpt>
      <trkpt lat="45.74351" lon="4.60614">
        <ele>744.24401855469</ele>
        <time>2011-11-11T09:58:22Z</time>
      </trkpt>
      <trkpt lat="45.74349" lon="4.60612">
        <ele>745.41302490234</ele>
        <time>2011-11-11T09:58:27Z</time>
      </trkpt>
      <trkpt lat="45.74348" lon="4.60608">
        <ele>745.90301513672</ele>
        <time>2011-11-11T09:58:29Z</time>
      </trkpt>
      <trkpt lat="45.74346" lon="4.60601">
        <ele>746.44598388672</ele>
        <time>2011-11-11T09:58:32Z</time>
      </trkpt>
      <trkpt lat="45.74344" lon="4.606">
        <ele>746.94897460938</ele>
        <time>2011-11-11T09:58:35Z</time>
      </trkpt>
      <trkpt lat="45.74336" lon="4.60593">
        <ele>748.69299316406</ele>
        <time>2011-11-11T09:58:43Z</time>
      </trkpt>
      <trkpt lat="45.7433" lon="4.60587">
        <ele>750.31097412109</ele>
        <time>2011-11-11T09:58:51Z</time>
      </trkpt>
      <trkpt lat="45.74325" lon="4.60587">
        <ele>751.30700683594</ele>
        <time>2011-11-11T09:58:55Z</time>
      </trkpt>
      <trkpt lat="45.74315" lon="4.60585">
        <ele>753.38397216797</ele>
        <time>2011-11-11T09:59:04Z</time>
      </trkpt>
      <trkpt lat="45.74307" lon="4.60583">
        <ele>754.21899414062</ele>
        <time>2011-11-11T09:59:08Z</time>
      </trkpt>
      <trkpt lat="45.74304" lon="4.60582">
        <ele>754.91101074219</ele>
        <time>2011-11-11T09:59:10Z</time>
      </trkpt>
      <trkpt lat="45.74292" lon="4.60581">
        <ele>756.86602783203</ele>
        <time>2011-11-11T09:59:18Z</time>
      </trkpt>
      <trkpt lat="45.74277" lon="4.60579">
        <ele>759.01702880859</ele>
        <time>2011-11-11T09:59:26Z</time>
      </trkpt>
      <trkpt lat="45.74267" lon="4.60578">
        <ele>760.85601806641</ele>
        <time>2011-11-11T09:59:33Z</time>
      </trkpt>
      <trkpt lat="45.74261" lon="4.60574">
        <ele>762.17999267578</ele>
        <time>2011-11-11T09:59:38Z</time>
      </trkpt>
      <trkpt lat="45.74253" lon="4.60572">
        <ele>763.67602539062</ele>
        <time>2011-11-11T09:59:45Z</time>
      </trkpt>
      <trkpt lat="45.7425" lon="4.60569">
        <ele>764.72802734375</ele>
        <time>2011-11-11T09:59:51Z</time>
      </trkpt>
      <trkpt lat="45.74247" lon="4.60566">
        <ele>765.44201660156</ele>
        <time>2011-11-11T09:59:56Z</time>
      </trkpt>
      <trkpt lat="45.74246" lon="4.60565">
        <ele>765.64501953125</ele>
        <time>2011-11-11T09:59:58Z</time>
      </trkpt>
      <trkpt lat="45.7424" lon="4.60557">
        <ele>766.80200195312</ele>
        <time>2011-11-11T10:00:05Z</time>
      </trkpt>
      <trkpt lat="45.74235" lon="4.60551">
        <ele>767.48199462891</ele>
        <time>2011-11-11T10:00:10Z</time>
      </trkpt>
      <trkpt lat="45.74229" lon="4.60544">
        <ele>768.14300537109</ele>
        <time>2011-11-11T10:00:17Z</time>
      </trkpt>
      <trkpt lat="45.74226" lon="4.60541">
        <ele>768.47399902344</ele>
        <time>2011-11-11T10:00:21Z</time>
      </trkpt>
      <trkpt lat="45.74224" lon="4.6054">
        <ele>769.04302978516</ele>
        <time>2011-11-11T10:00:28Z</time>
      </trkpt>
      <trkpt lat="45.74223" lon="4.60533">
        <ele>769.208984375</ele>
        <time>2011-11-11T10:00:34Z</time>
      </trkpt>
      <trkpt lat="45.74224" lon="4.60528">
        <ele>769.47497558594</ele>
        <time>2011-11-11T10:00:36Z</time>
      </trkpt>
      <trkpt lat="45.74217" lon="4.60513">
        <ele>770.44000244141</ele>
        <time>2011-11-11T10:00:44Z</time>
      </trkpt>
      <trkpt lat="45.74213" lon="4.60505">
        <ele>771.52600097656</ele>
        <time>2011-11-11T10:00:50Z</time>
      </trkpt>
      <trkpt lat="45.7421" lon="4.605">
        <ele>772.43200683594</ele>
        <time>2011-11-11T10:01:00Z</time>
      </trkpt>
      <trkpt lat="45.74209" lon="4.60491">
        <ele>773.76202392578</ele>
        <time>2011-11-11T10:01:06Z</time>
      </trkpt>
      <trkpt lat="45.74202" lon="4.6048">
        <ele>775.03399658203</ele>
        <time>2011-11-11T10:01:12Z</time>
      </trkpt>
      <trkpt lat="45.74195" lon="4.60475">
        <ele>776.31298828125</ele>
        <time>2011-11-11T10:01:17Z</time>
      </trkpt>
      <trkpt lat="45.74193" lon="4.60471">
        <ele>776.82800292969</ele>
        <time>2011-11-11T10:01:19Z</time>
      </trkpt>
      <trkpt lat="45.74184" lon="4.6046">
        <ele>779.13098144531</ele>
        <time>2011-11-11T10:01:27Z</time>
      </trkpt>
      <trkpt lat="45.74183" lon="4.60459">
        <ele>779.26202392578</ele>
        <time>2011-11-11T10:01:28Z</time>
      </trkpt>
      <trkpt lat="45.74179" lon="4.60447">
        <ele>780.98498535156</ele>
        <time>2011-11-11T10:01:35Z</time>
      </trkpt>
      <trkpt lat="45.74177" lon="4.60438">
        <ele>782.02301025391</ele>
        <time>2011-11-11T10:01:40Z</time>
      </trkpt>
      <trkpt lat="45.74175" lon="4.60437">
        <ele>782.18798828125</ele>
        <time>2011-11-11T10:01:41Z</time>
      </trkpt>
      <trkpt lat="45.74169" lon="4.60426">
        <ele>783.33502197266</ele>
        <time>2011-11-11T10:01:49Z</time>
      </trkpt>
      <trkpt lat="45.74167" lon="4.6042">
        <ele>784.46697998047</ele>
        <time>2011-11-11T10:01:54Z</time>
      </trkpt>
      <trkpt lat="45.74165" lon="4.60414">
        <ele>785.5009765625</ele>
        <time>2011-11-11T10:01:59Z</time>
      </trkpt>
      <trkpt lat="45.74164" lon="4.6041">
        <ele>785.78698730469</ele>
        <time>2011-11-11T10:02:01Z</time>
      </trkpt>
      <trkpt lat="45.74164" lon="4.604">
        <ele>786.67498779297</ele>
        <time>2011-11-11T10:02:08Z</time>
      </trkpt>
      <trkpt lat="45.74165" lon="4.60391">
        <ele>787.44097900391</ele>
        <time>2011-11-11T10:02:12Z</time>
      </trkpt>
      <trkpt lat="45.74164" lon="4.60383">
        <ele>788.14398193359</ele>
        <time>2011-11-11T10:02:16Z</time>
      </trkpt>
      <trkpt lat="45.74163" lon="4.60374">
        <ele>788.95300292969</ele>
        <time>2011-11-11T10:02:21Z</time>
      </trkpt>
      <trkpt lat="45.7416" lon="4.60367">
        <ele>789.78900146484</ele>
        <time>2011-11-11T10:02:25Z</time>
      </trkpt>
      <trkpt lat="45.74159" lon="4.60351">
        <ele>791.18402099609</ele>
        <time>2011-11-11T10:02:33Z</time>
      </trkpt>
      <trkpt lat="45.7416" lon="4.60345">
        <ele>792.08898925781</ele>
        <time>2011-11-11T10:02:38Z</time>
      </trkpt>
      <trkpt lat="45.74155" lon="4.60323">
        <ele>794.05102539062</ele>
        <time>2011-11-11T10:02:48Z</time>
      </trkpt>
      <trkpt lat="45.74155" lon="4.60308">
        <ele>795.125</ele>
        <time>2011-11-11T10:02:55Z</time>
      </trkpt>
      <trkpt lat="45.74157" lon="4.60298">
        <ele>795.92498779297</ele>
        <time>2011-11-11T10:03:00Z</time>
      </trkpt>
      <trkpt lat="45.74159" lon="4.60283">
        <ele>797.02899169922</ele>
        <time>2011-11-11T10:03:08Z</time>
      </trkpt>
      <trkpt lat="45.7416" lon="4.60279">
        <ele>797.38800048828</ele>
        <time>2011-11-11T10:03:10Z</time>
      </trkpt>
      <trkpt lat="45.74159" lon="4.6027">
        <ele>797.90698242188</ele>
        <time>2011-11-11T10:03:16Z</time>
      </trkpt>
      <trkpt lat="45.74159" lon="4.60263">
        <ele>798.375</ele>
        <time>2011-11-11T10:03:20Z</time>
      </trkpt>
      <trkpt lat="45.74157" lon="4.60259">
        <ele>799.24102783203</ele>
        <time>2011-11-11T10:03:24Z</time>
      </trkpt>
      <trkpt lat="45.74152" lon="4.60268">
        <ele>800.47601318359</ele>
        <time>2011-11-11T10:03:31Z</time>
      </trkpt>
      <trkpt lat="45.7415" lon="4.60269">
        <ele>800.63201904297</ele>
        <time>2011-11-11T10:03:32Z</time>
      </trkpt>
      <trkpt lat="45.74143" lon="4.60275">
        <ele>801.66998291016</ele>
        <time>2011-11-11T10:03:38Z</time>
      </trkpt>
      <trkpt lat="45.74131" lon="4.60284">
        <ele>802.99298095703</ele>
        <time>2011-11-11T10:03:45Z</time>
      </trkpt>
      <trkpt lat="45.74123" lon="4.60293">
        <ele>804.27899169922</ele>
        <time>2011-11-11T10:03:51Z</time>
      </trkpt>
      <trkpt lat="45.74114" lon="4.60303">
        <ele>805.51702880859</ele>
        <time>2011-11-11T10:03:59Z</time>
      </trkpt>
      <trkpt lat="45.74105" lon="4.60311">
        <ele>806.57000732422</ele>
        <time>2011-11-11T10:04:06Z</time>
      </trkpt>
      <trkpt lat="45.74098" lon="4.60317">
        <ele>807.54400634766</ele>
        <time>2011-11-11T10:04:13Z</time>
      </trkpt>
      <trkpt lat="45.74089" lon="4.60329">
        <ele>808.46600341797</ele>
        <time>2011-11-11T10:04:21Z</time>
      </trkpt>
      <trkpt lat="45.74081" lon="4.60336">
        <ele>809.36401367188</ele>
        <time>2011-11-11T10:04:27Z</time>
      </trkpt>
      <trkpt lat="45.74073" lon="4.60343">
        <ele>810.21002197266</ele>
        <time>2011-11-11T10:04:34Z</time>
      </trkpt>
      <trkpt lat="45.74068" lon="4.60346">
        <ele>811.02697753906</ele>
        <time>2011-11-11T10:04:38Z</time>
      </trkpt>
      <trkpt lat="45.74059" lon="4.60353">
        <ele>812.60998535156</ele>
        <time>2011-11-11T10:04:45Z</time>
      </trkpt>
      <trkpt lat="45.74057" lon="4.60354">
        <ele>812.80603027344</ele>
        <time>2011-11-11T10:04:47Z</time>
      </trkpt>
      <trkpt lat="45.74051" lon="4.60361">
        <ele>813.70501708984</ele>
        <time>2011-11-11T10:04:53Z</time>
      </trkpt>
      <trkpt lat="45.74046" lon="4.60363">
        <ele>814.37298583984</ele>
        <time>2011-11-11T10:04:57Z</time>
      </trkpt>
      <trkpt lat="45.74037" lon="4.60367">
        <ele>815.42700195312</ele>
        <time>2011-11-11T10:05:05Z</time>
      </trkpt>
      <trkpt lat="45.74033" lon="4.60366">
        <ele>815.71899414062</ele>
        <time>2011-11-11T10:05:07Z</time>
      </trkpt>
      <trkpt lat="45.74021" lon="4.60362">
        <ele>816.40002441406</ele>
        <time>2011-11-11T10:05:15Z</time>
      </trkpt>
      <trkpt lat="45.7402" lon="4.60361">
        <ele>816.61199951172</ele>
        <time>2011-11-11T10:05:16Z</time>
      </trkpt>
      <trkpt lat="45.74011" lon="4.60356">
        <ele>817.11700439453</ele>
        <time>2011-11-11T10:05:21Z</time>
      </trkpt>
      <trkpt lat="45.74006" lon="4.60354">
        <ele>817.13201904297</ele>
        <time>2011-11-11T10:05:25Z</time>
      </trkpt>
      <trkpt lat="45.74004" lon="4.60351">
        <ele>817.07702636719</ele>
        <time>2011-11-11T10:05:27Z</time>
      </trkpt>
      <trkpt lat="45.73999" lon="4.60345">
        <ele>816.85101318359</ele>
        <time>2011-11-11T10:05:34Z</time>
      </trkpt>
      <trkpt lat="45.74004" lon="4.60343">
        <ele>817.06597900391</ele>
        <time>2011-11-11T10:05:52Z</time>
      </trkpt>
      <trkpt lat="45.73994" lon="4.60347">
        <ele>816.41497802734</ele>
        <time>2011-11-11T10:06:34Z</time>
      </trkpt>
      <trkpt lat="45.73986" lon="4.60333">
        <ele>816.80499267578</ele>
        <time>2011-11-11T10:06:41Z</time>
      </trkpt>
      <trkpt lat="45.73981" lon="4.60331">
        <ele>816.75897216797</ele>
        <time>2011-11-11T10:06:45Z</time>
      </trkpt>
      <trkpt lat="45.73969" lon="4.60327">
        <ele>816.02197265625</ele>
        <time>2011-11-11T10:06:52Z</time>
      </trkpt>
      <trkpt lat="45.73958" lon="4.60323">
        <ele>815.79998779297</ele>
        <time>2011-11-11T10:06:59Z</time>
      </trkpt>
      <trkpt lat="45.73947" lon="4.60316">
        <ele>815.90197753906</ele>
        <time>2011-11-11T10:07:04Z</time>
      </trkpt>
      <trkpt lat="45.73931" lon="4.60307">
        <ele>815.73901367188</ele>
        <time>2011-11-11T10:07:10Z</time>
      </trkpt>
      <trkpt lat="45.73915" lon="4.60297">
        <ele>815.67102050781</ele>
        <time>2011-11-11T10:07:15Z</time>
      </trkpt>
      <trkpt lat="45.73894" lon="4.60279">
        <ele>815.38201904297</ele>
        <time>2011-11-11T10:07:21Z</time>
      </trkpt>
      <trkpt lat="45.73875" lon="4.60267">
        <ele>814.8740234375</ele>
        <time>2011-11-11T10:07:26Z</time>
      </trkpt>
      <trkpt lat="45.73856" lon="4.60254">
        <ele>814.10198974609</ele>
        <time>2011-11-11T10:07:30Z</time>
      </trkpt>
      <trkpt lat="45.73833" lon="4.60245">
        <ele>813.03802490234</ele>
        <time>2011-11-11T10:07:34Z</time>
      </trkpt>
      <trkpt lat="45.73798" lon="4.60217">
        <ele>810.93103027344</ele>
        <time>2011-11-11T10:07:40Z</time>
      </trkpt>
      <trkpt lat="45.73772" lon="4.60188">
        <ele>809.46801757812</ele>
        <time>2011-11-11T10:07:46Z</time>
      </trkpt>
      <trkpt lat="45.73755" lon="4.60169">
        <ele>808.83001708984</ele>
        <time>2011-11-11T10:07:52Z</time>
      </trkpt>
      <trkpt lat="45.7374" lon="4.60151">
        <ele>808.50299072266</ele>
        <time>2011-11-11T10:07:59Z</time>
      </trkpt>
      <trkpt lat="45.73719" lon="4.60128">
        <ele>808.25299072266</ele>
        <time>2011-11-11T10:08:08Z</time>
      </trkpt>
      <trkpt lat="45.73711" lon="4.60118">
        <ele>808.28802490234</ele>
        <time>2011-11-11T10:08:13Z</time>
      </trkpt>
      <trkpt lat="45.73696" lon="4.60104">
        <ele>808.73101806641</ele>
        <time>2011-11-11T10:08:21Z</time>
      </trkpt>
      <trkpt lat="45.73682" lon="4.60091">
        <ele>808.89099121094</ele>
        <time>2011-11-11T10:08:28Z</time>
      </trkpt>
      <trkpt lat="45.73673" lon="4.60079">
        <ele>808.79400634766</ele>
        <time>2011-11-11T10:08:32Z</time>
      </trkpt>
      <trkpt lat="45.73658" lon="4.60059">
        <ele>807.95697021484</ele>
        <time>2011-11-11T10:08:36Z</time>
      </trkpt>
      <trkpt lat="45.73642" lon="4.60033">
        <ele>805.67102050781</ele>
        <time>2011-11-11T10:08:41Z</time>
      </trkpt>
      <trkpt lat="45.73635" lon="4.60021">
        <ele>803.97698974609</ele>
        <time>2011-11-11T10:08:44Z</time>
      </trkpt>
      <trkpt lat="45.73631" lon="4.60005">
        <ele>801.85498046875</ele>
        <time>2011-11-11T10:08:47Z</time>
      </trkpt>
      <trkpt lat="45.73617" lon="4.59954">
        <ele>797.46002197266</ele>
        <time>2011-11-11T10:08:54Z</time>
      </trkpt>
      <trkpt lat="45.73609" lon="4.59926">
        <ele>792.55902099609</ele>
        <time>2011-11-11T10:09:00Z</time>
      </trkpt>
      <trkpt lat="45.73601" lon="4.59895">
        <ele>787.14001464844</ele>
        <time>2011-11-11T10:09:06Z</time>
      </trkpt>
      <trkpt lat="45.73589" lon="4.59875">
        <ele>783.44598388672</ele>
        <time>2011-11-11T10:09:11Z</time>
      </trkpt>
      <trkpt lat="45.73585" lon="4.59865">
        <ele>782.75500488281</ele>
        <time>2011-11-11T10:09:13Z</time>
      </trkpt>
      <trkpt lat="45.73584" lon="4.59861">
        <ele>782.09399414062</ele>
        <time>2011-11-11T10:09:14Z</time>
      </trkpt>
      <trkpt lat="45.73579" lon="4.59851">
        <ele>780.74499511719</ele>
        <time>2011-11-11T10:09:16Z</time>
      </trkpt>
      <trkpt lat="45.73561" lon="4.59814">
        <ele>774.88098144531</ele>
        <time>2011-11-11T10:09:24Z</time>
      </trkpt>
      <trkpt lat="45.73552" lon="4.59794">
        <ele>771.28497314453</ele>
        <time>2011-11-11T10:09:29Z</time>
      </trkpt>
      <trkpt lat="45.7355" lon="4.5979">
        <ele>770.62298583984</ele>
        <time>2011-11-11T10:09:30Z</time>
      </trkpt>
      <trkpt lat="45.73542" lon="4.59771">
        <ele>767.56298828125</ele>
        <time>2011-11-11T10:09:35Z</time>
      </trkpt>
      <trkpt lat="45.73529" lon="4.5975">
        <ele>765.03601074219</ele>
        <time>2011-11-11T10:09:41Z</time>
      </trkpt>
      <trkpt lat="45.73515" lon="4.59722">
        <ele>761.39202880859</ele>
        <time>2011-11-11T10:09:46Z</time>
      </trkpt>
      <trkpt lat="45.73503" lon="4.5968">
        <ele>757.76098632812</ele>
        <time>2011-11-11T10:09:51Z</time>
      </trkpt>
      <trkpt lat="45.73489" lon="4.59625">
        <ele>755.52801513672</ele>
        <time>2011-11-11T10:09:57Z</time>
      </trkpt>
      <trkpt lat="45.73469" lon="4.59562">
        <ele>754.33898925781</ele>
        <time>2011-11-11T10:10:05Z</time>
      </trkpt>
      <trkpt lat="45.7346" lon="4.59529">
        <ele>753.64898681641</ele>
        <time>2011-11-11T10:10:10Z</time>
      </trkpt>
      <trkpt lat="45.73453" lon="4.59508">
        <ele>753.15399169922</ele>
        <time>2011-11-11T10:10:15Z</time>
      </trkpt>
      <trkpt lat="45.73448" lon="4.59491">
        <ele>753.57000732422</ele>
        <time>2011-11-11T10:10:21Z</time>
      </trkpt>
      <trkpt lat="45.73449" lon="4.5948">
        <ele>752.73199462891</ele>
        <time>2011-11-11T10:11:44Z</time>
      </trkpt>
      <trkpt lat="45.73446" lon="4.59476">
        <ele>752.80798339844</ele>
        <time>2011-11-11T10:11:53Z</time>
      </trkpt>
      <trkpt lat="45.73444" lon="4.59472">
        <ele>752.76599121094</ele>
        <time>2011-11-11T10:11:58Z</time>
      </trkpt>
      <trkpt lat="45.73442" lon="4.5947">
        <ele>752.70001220703</ele>
        <time>2011-11-11T10:12:00Z</time>
      </trkpt>
      <trkpt lat="45.73438" lon="4.59462">
        <ele>752.70098876953</ele>
        <time>2011-11-11T10:12:05Z</time>
      </trkpt>
      <trkpt lat="45.73428" lon="4.59443">
        <ele>752.66802978516</ele>
        <time>2011-11-11T10:12:13Z</time>
      </trkpt>
      <trkpt lat="45.73422" lon="4.5943">
        <ele>752.39801025391</ele>
        <time>2011-11-11T10:12:18Z</time>
      </trkpt>
      <trkpt lat="45.73414" lon="4.5941">
        <ele>751.69799804688</ele>
        <time>2011-11-11T10:12:23Z</time>
      </trkpt>
      <trkpt lat="45.73392" lon="4.59389">
        <ele>750.61199951172</ele>
        <time>2011-11-11T10:12:28Z</time>
      </trkpt>
      <trkpt lat="45.73376" lon="4.59392">
        <ele>749.97198486328</ele>
        <time>2011-11-11T10:12:31Z</time>
      </trkpt>
      <trkpt lat="45.73368" lon="4.594">
        <ele>749.50799560547</ele>
        <time>2011-11-11T10:12:33Z</time>
      </trkpt>
      <trkpt lat="45.73344" lon="4.59435">
        <ele>748.78100585938</ele>
        <time>2011-11-11T10:12:41Z</time>
      </trkpt>
      <trkpt lat="45.73326" lon="4.59462">
        <ele>749.31097412109</ele>
        <time>2011-11-11T10:12:49Z</time>
      </trkpt>
      <trkpt lat="45.73319" lon="4.59477">
        <ele>748.93103027344</ele>
        <time>2011-11-11T10:12:55Z</time>
      </trkpt>
      <trkpt lat="45.73313" lon="4.59492">
        <ele>749.43103027344</ele>
        <time>2011-11-11T10:13:01Z</time>
      </trkpt>
      <trkpt lat="45.73308" lon="4.59511">
        <ele>752.17199707031</ele>
        <time>2011-11-11T10:13:08Z</time>
      </trkpt>
      <trkpt lat="45.73299" lon="4.59527">
        <ele>753.91302490234</ele>
        <time>2011-11-11T10:13:16Z</time>
      </trkpt>
      <trkpt lat="45.73287" lon="4.59541">
        <ele>754.96002197266</ele>
        <time>2011-11-11T10:13:24Z</time>
      </trkpt>
      <trkpt lat="45.73272" lon="4.59555">
        <ele>755.51599121094</ele>
        <time>2011-11-11T10:13:32Z</time>
      </trkpt>
      <trkpt lat="45.73256" lon="4.59569">
        <ele>756.37097167969</ele>
        <time>2011-11-11T10:13:41Z</time>
      </trkpt>
      <trkpt lat="45.73242" lon="4.59576">
        <ele>757.40899658203</ele>
        <time>2011-11-11T10:13:48Z</time>
      </trkpt>
      <trkpt lat="45.73227" lon="4.59577">
        <ele>758.19897460938</ele>
        <time>2011-11-11T10:13:55Z</time>
      </trkpt>
      <trkpt lat="45.73209" lon="4.59571">
        <ele>758.69598388672</ele>
        <time>2011-11-11T10:14:03Z</time>
      </trkpt>
      <trkpt lat="45.73188" lon="4.59561">
        <ele>759.10998535156</ele>
        <time>2011-11-11T10:14:11Z</time>
      </trkpt>
      <trkpt lat="45.73166" lon="4.59546">
        <ele>759.61199951172</ele>
        <time>2011-11-11T10:14:20Z</time>
      </trkpt>
      <trkpt lat="45.73149" lon="4.59531">
        <ele>759.93200683594</ele>
        <time>2011-11-11T10:14:27Z</time>
      </trkpt>
      <trkpt lat="45.73133" lon="4.59519">
        <ele>760.48400878906</ele>
        <time>2011-11-11T10:14:34Z</time>
      </trkpt>
      <trkpt lat="45.73119" lon="4.59512">
        <ele>761.32598876953</ele>
        <time>2011-11-11T10:14:40Z</time>
      </trkpt>
      <trkpt lat="45.73101" lon="4.59499">
        <ele>762.16900634766</ele>
        <time>2011-11-11T10:14:48Z</time>
      </trkpt>
      <trkpt lat="45.73091" lon="4.59496">
        <ele>762.14202880859</ele>
        <time>2011-11-11T10:14:54Z</time>
      </trkpt>
      <trkpt lat="45.73082" lon="4.59499">
        <ele>762.90399169922</ele>
        <time>2011-11-11T10:14:59Z</time>
      </trkpt>
      <trkpt lat="45.73072" lon="4.59503">
        <ele>764.6259765625</ele>
        <time>2011-11-11T10:15:06Z</time>
      </trkpt>
      <trkpt lat="45.73064" lon="4.59506">
        <ele>765.54602050781</ele>
        <time>2011-11-11T10:15:11Z</time>
      </trkpt>
      <trkpt lat="45.73056" lon="4.59505">
        <ele>767.05499267578</ele>
        <time>2011-11-11T10:15:16Z</time>
      </trkpt>
      <trkpt lat="45.73046" lon="4.59505">
        <ele>768.75</ele>
        <time>2011-11-11T10:15:24Z</time>
      </trkpt>
      <trkpt lat="45.73037" lon="4.59501">
        <ele>770.47100830078</ele>
        <time>2011-11-11T10:15:33Z</time>
      </trkpt>
      <trkpt lat="45.73033" lon="4.59499">
        <ele>770.80902099609</ele>
        <time>2011-11-11T10:15:36Z</time>
      </trkpt>
      <trkpt lat="45.73022" lon="4.59491">
        <ele>771.72802734375</ele>
        <time>2011-11-11T10:15:46Z</time>
      </trkpt>
      <trkpt lat="45.73012" lon="4.59487">
        <ele>772.96002197266</ele>
        <time>2011-11-11T10:15:53Z</time>
      </trkpt>
      <trkpt lat="45.73003" lon="4.59485">
        <ele>774.41900634766</ele>
        <time>2011-11-11T10:16:00Z</time>
      </trkpt>
      <trkpt lat="45.72993" lon="4.5948">
        <ele>775.85900878906</ele>
        <time>2011-11-11T10:16:08Z</time>
      </trkpt>
      <trkpt lat="45.72988" lon="4.59478">
        <ele>776.8330078125</ele>
        <time>2011-11-11T10:16:12Z</time>
      </trkpt>
      <trkpt lat="45.72977" lon="4.59476">
        <ele>778.94500732422</ele>
        <time>2011-11-11T10:16:19Z</time>
      </trkpt>
      <trkpt lat="45.72972" lon="4.59476">
        <ele>779.86798095703</ele>
        <time>2011-11-11T10:16:23Z</time>
      </trkpt>
      <trkpt lat="45.72964" lon="4.5947">
        <ele>780.93200683594</ele>
        <time>2011-11-11T10:16:32Z</time>
      </trkpt>
      <trkpt lat="45.7296" lon="4.59468">
        <ele>781.23797607422</ele>
        <time>2011-11-11T10:16:36Z</time>
      </trkpt>
      <trkpt lat="45.72953" lon="4.59464">
        <ele>782.46301269531</ele>
        <time>2011-11-11T10:16:44Z</time>
      </trkpt>
      <trkpt lat="45.72947" lon="4.59458">
        <ele>783.75701904297</ele>
        <time>2011-11-11T10:16:51Z</time>
      </trkpt>
      <trkpt lat="45.7294" lon="4.59455">
        <ele>784.50598144531</ele>
        <time>2011-11-11T10:16:56Z</time>
      </trkpt>
      <trkpt lat="45.72932" lon="4.59447">
        <ele>785.52301025391</ele>
        <time>2011-11-11T10:17:03Z</time>
      </trkpt>
      <trkpt lat="45.72922" lon="4.59436">
        <ele>786.53601074219</ele>
        <time>2011-11-11T10:17:11Z</time>
      </trkpt>
      <trkpt lat="45.72914" lon="4.59425">
        <ele>787.291015625</ele>
        <time>2011-11-11T10:17:19Z</time>
      </trkpt>
      <trkpt lat="45.72908" lon="4.59417">
        <ele>787.98498535156</ele>
        <time>2011-11-11T10:17:25Z</time>
      </trkpt>
      <trkpt lat="45.72906" lon="4.59416">
        <ele>788.16900634766</ele>
        <time>2011-11-11T10:17:26Z</time>
      </trkpt>
      <trkpt lat="45.72903" lon="4.59411">
        <ele>789.02398681641</ele>
        <time>2011-11-11T10:17:30Z</time>
      </trkpt>
      <trkpt lat="45.72895" lon="4.59401">
        <ele>790.53002929688</ele>
        <time>2011-11-11T10:17:38Z</time>
      </trkpt>
      <trkpt lat="45.72884" lon="4.5939">
        <ele>791.29797363281</ele>
        <time>2011-11-11T10:17:46Z</time>
      </trkpt>
      <trkpt lat="45.72877" lon="4.59381">
        <ele>792.04797363281</ele>
        <time>2011-11-11T10:17:54Z</time>
      </trkpt>
      <trkpt lat="45.72867" lon="4.59375">
        <ele>792.83898925781</ele>
        <time>2011-11-11T10:18:02Z</time>
      </trkpt>
      <trkpt lat="45.7286" lon="4.5937">
        <ele>793.44000244141</ele>
        <time>2011-11-11T10:18:08Z</time>
      </trkpt>
      <trkpt lat="45.72856" lon="4.59369">
        <ele>793.80700683594</ele>
        <time>2011-11-11T10:18:11Z</time>
      </trkpt>
      <trkpt lat="45.72848" lon="4.59364">
        <ele>794.76202392578</ele>
        <time>2011-11-11T10:18:19Z</time>
      </trkpt>
      <trkpt lat="45.72838" lon="4.59357">
        <ele>795.87298583984</ele>
        <time>2011-11-11T10:18:28Z</time>
      </trkpt>
      <trkpt lat="45.72826" lon="4.59351">
        <ele>796.83197021484</ele>
        <time>2011-11-11T10:18:36Z</time>
      </trkpt>
      <trkpt lat="45.72816" lon="4.59347">
        <ele>797.50799560547</ele>
        <time>2011-11-11T10:18:42Z</time>
      </trkpt>
      <trkpt lat="45.72807" lon="4.59343">
        <ele>798.11499023438</ele>
        <time>2011-11-11T10:18:48Z</time>
      </trkpt>
      <trkpt lat="45.72797" lon="4.59335">
        <ele>798.55603027344</ele>
        <time>2011-11-11T10:18:55Z</time>
      </trkpt>
      <trkpt lat="45.72783" lon="4.59317">
        <ele>798.56298828125</ele>
        <time>2011-11-11T10:19:01Z</time>
      </trkpt>
      <trkpt lat="45.72767" lon="4.59306">
        <ele>798.73699951172</ele>
        <time>2011-11-11T10:19:08Z</time>
      </trkpt>
      <trkpt lat="45.72755" lon="4.59293">
        <ele>798.82897949219</ele>
        <time>2011-11-11T10:19:13Z</time>
      </trkpt>
      <trkpt lat="45.72742" lon="4.59285">
        <ele>798.97399902344</ele>
        <time>2011-11-11T10:19:19Z</time>
      </trkpt>
      <trkpt lat="45.72727" lon="4.59277">
        <ele>799.14801025391</ele>
        <time>2011-11-11T10:19:26Z</time>
      </trkpt>
      <trkpt lat="45.72712" lon="4.59271">
        <ele>799.57000732422</ele>
        <time>2011-11-11T10:19:32Z</time>
      </trkpt>
      <trkpt lat="45.72696" lon="4.59265">
        <ele>800.47601318359</ele>
        <time>2011-11-11T10:19:39Z</time>
      </trkpt>
      <trkpt lat="45.72682" lon="4.59257">
        <ele>801.19299316406</ele>
        <time>2011-11-11T10:19:45Z</time>
      </trkpt>
      <trkpt lat="45.72671" lon="4.59251">
        <ele>801.52197265625</ele>
        <time>2011-11-11T10:19:50Z</time>
      </trkpt>
      <trkpt lat="45.72657" lon="4.59246">
        <ele>801.91998291016</ele>
        <time>2011-11-11T10:19:57Z</time>
      </trkpt>
      <trkpt lat="45.72637" lon="4.59241">
        <ele>802.56896972656</ele>
        <time>2011-11-11T10:20:06Z</time>
      </trkpt>
      <trkpt lat="45.72626" lon="4.59239">
        <ele>802.89697265625</ele>
        <time>2011-11-11T10:20:11Z</time>
      </trkpt>
      <trkpt lat="45.72614" lon="4.59238">
        <ele>803.15002441406</ele>
        <time>2011-11-11T10:20:16Z</time>
      </trkpt>
      <trkpt lat="45.726" lon="4.59238">
        <ele>803.10498046875</ele>
        <time>2011-11-11T10:20:22Z</time>
      </trkpt>
      <trkpt lat="45.72586" lon="4.59239">
        <ele>803.64898681641</ele>
        <time>2011-11-11T10:20:29Z</time>
      </trkpt>
      <trkpt lat="45.72572" lon="4.59238">
        <ele>804.02398681641</ele>
        <time>2011-11-11T10:20:35Z</time>
      </trkpt>
      <trkpt lat="45.72555" lon="4.59238">
        <ele>804.42999267578</ele>
        <time>2011-11-11T10:20:41Z</time>
      </trkpt>
      <trkpt lat="45.72532" lon="4.59241">
        <ele>804.89099121094</ele>
        <time>2011-11-11T10:20:50Z</time>
      </trkpt>
      <trkpt lat="45.72517" lon="4.59245">
        <ele>805.32897949219</ele>
        <time>2011-11-11T10:20:57Z</time>
      </trkpt>
      <trkpt lat="45.72504" lon="4.59248">
        <ele>805.73498535156</ele>
        <time>2011-11-11T10:21:03Z</time>
      </trkpt>
      <trkpt lat="45.72491" lon="4.59251">
        <ele>806.66802978516</ele>
        <time>2011-11-11T10:21:09Z</time>
      </trkpt>
      <trkpt lat="45.72477" lon="4.59254">
        <ele>807.36102294922</ele>
        <time>2011-11-11T10:21:16Z</time>
      </trkpt>
      <trkpt lat="45.72466" lon="4.59256">
        <ele>808.09002685547</ele>
        <time>2011-11-11T10:21:21Z</time>
      </trkpt>
      <trkpt lat="45.72454" lon="4.5926">
        <ele>809.14099121094</ele>
        <time>2011-11-11T10:21:26Z</time>
      </trkpt>
      <trkpt lat="45.72452" lon="4.59261">
        <ele>809.3330078125</ele>
        <time>2011-11-11T10:21:27Z</time>
      </trkpt>
      <trkpt lat="45.72437" lon="4.59261">
        <ele>810.36999511719</ele>
        <time>2011-11-11T10:21:34Z</time>
      </trkpt>
      <trkpt lat="45.72428" lon="4.59263">
        <ele>811.14099121094</ele>
        <time>2011-11-11T10:21:39Z</time>
      </trkpt>
      <trkpt lat="45.72414" lon="4.59264">
        <ele>812.27001953125</ele>
        <time>2011-11-11T10:21:46Z</time>
      </trkpt>
      <trkpt lat="45.72402" lon="4.59266">
        <ele>813.42102050781</ele>
        <time>2011-11-11T10:21:52Z</time>
      </trkpt>
      <trkpt lat="45.72386" lon="4.59268">
        <ele>814.77899169922</ele>
        <time>2011-11-11T10:22:00Z</time>
      </trkpt>
      <trkpt lat="45.72372" lon="4.5927">
        <ele>815.70599365234</ele>
        <time>2011-11-11T10:22:06Z</time>
      </trkpt>
      <trkpt lat="45.72358" lon="4.59273">
        <ele>816.80700683594</ele>
        <time>2011-11-11T10:22:12Z</time>
      </trkpt>
      <trkpt lat="45.72344" lon="4.59274">
        <ele>817.74597167969</ele>
        <time>2011-11-11T10:22:19Z</time>
      </trkpt>
      <trkpt lat="45.72328" lon="4.59276">
        <ele>819.25897216797</ele>
        <time>2011-11-11T10:22:28Z</time>
      </trkpt>
      <trkpt lat="45.72317" lon="4.59277">
        <ele>819.90802001953</ele>
        <time>2011-11-11T10:22:34Z</time>
      </trkpt>
      <trkpt lat="45.72303" lon="4.59279">
        <ele>821.35198974609</ele>
        <time>2011-11-11T10:22:42Z</time>
      </trkpt>
      <trkpt lat="45.7229" lon="4.59282">
        <ele>821.76000976562</ele>
        <time>2011-11-11T10:22:49Z</time>
      </trkpt>
      <trkpt lat="45.72289" lon="4.59283">
        <ele>821.73602294922</ele>
        <time>2011-11-11T10:22:50Z</time>
      </trkpt>
      <trkpt lat="45.72285" lon="4.59292">
        <ele>821.69799804688</ele>
        <time>2011-11-11T10:22:55Z</time>
      </trkpt>
      <trkpt lat="45.7228" lon="4.59294">
        <ele>821.94201660156</ele>
        <time>2011-11-11T10:23:01Z</time>
      </trkpt>
      <trkpt lat="45.72277" lon="4.59297">
        <ele>822.27502441406</ele>
        <time>2011-11-11T10:24:24Z</time>
      </trkpt>
      <trkpt lat="45.72276" lon="4.59297">
        <ele>822.27301025391</ele>
        <time>2011-11-11T10:24:25Z</time>
      </trkpt>
      <trkpt lat="45.7227" lon="4.59294">
        <ele>822.33898925781</ele>
        <time>2011-11-11T10:24:32Z</time>
      </trkpt>
      <trkpt lat="45.72268" lon="4.59295">
        <ele>822.40997314453</ele>
        <time>2011-11-11T10:24:34Z</time>
      </trkpt>
      <trkpt lat="45.72265" lon="4.5929">
        <ele>822.50701904297</ele>
        <time>2011-11-11T10:24:39Z</time>
      </trkpt>
      <trkpt lat="45.72261" lon="4.59285">
        <ele>822.52697753906</ele>
        <time>2011-11-11T10:24:44Z</time>
      </trkpt>
      <trkpt lat="45.72261" lon="4.59282">
        <ele>822.55499267578</ele>
        <time>2011-11-11T10:24:46Z</time>
      </trkpt>
      <trkpt lat="45.72257" lon="4.59277">
        <ele>822.57000732422</ele>
        <time>2011-11-11T10:24:50Z</time>
      </trkpt>
      <trkpt lat="45.72253" lon="4.5927">
        <ele>822.45001220703</ele>
        <time>2011-11-11T10:24:54Z</time>
      </trkpt>
      <trkpt lat="45.7224" lon="4.59247">
        <ele>822.55200195312</ele>
        <time>2011-11-11T10:25:02Z</time>
      </trkpt>
      <trkpt lat="45.72228" lon="4.59229">
        <ele>822.63397216797</ele>
        <time>2011-11-11T10:25:09Z</time>
      </trkpt>
      <trkpt lat="45.72215" lon="4.59209">
        <ele>823.28002929688</ele>
        <time>2011-11-11T10:25:17Z</time>
      </trkpt>
      <trkpt lat="45.72203" lon="4.59192">
        <ele>824.93798828125</ele>
        <time>2011-11-11T10:25:24Z</time>
      </trkpt>
      <trkpt lat="45.72188" lon="4.59169">
        <ele>827.17199707031</ele>
        <time>2011-11-11T10:25:33Z</time>
      </trkpt>
      <trkpt lat="45.72168" lon="4.59141">
        <ele>828.41802978516</ele>
        <time>2011-11-11T10:25:43Z</time>
      </trkpt>
      <trkpt lat="45.7215" lon="4.59115">
        <ele>829.03399658203</ele>
        <time>2011-11-11T10:25:52Z</time>
      </trkpt>
      <trkpt lat="45.72139" lon="4.59096">
        <ele>829.23602294922</ele>
        <time>2011-11-11T10:25:58Z</time>
      </trkpt>
      <trkpt lat="45.72117" lon="4.59059">
        <ele>829.46600341797</ele>
        <time>2011-11-11T10:26:09Z</time>
      </trkpt>
      <trkpt lat="45.72094" lon="4.59022">
        <ele>830.20001220703</ele>
        <time>2011-11-11T10:26:20Z</time>
      </trkpt>
      <trkpt lat="45.72076" lon="4.58994">
        <ele>831.06701660156</ele>
        <time>2011-11-11T10:26:28Z</time>
      </trkpt>
      <trkpt lat="45.7206" lon="4.5896">
        <ele>832.041015625</ele>
        <time>2011-11-11T10:26:37Z</time>
      </trkpt>
      <trkpt lat="45.72049" lon="4.58934">
        <ele>833.05499267578</ele>
        <time>2011-11-11T10:26:44Z</time>
      </trkpt>
      <trkpt lat="45.72036" lon="4.58903">
        <ele>834.34100341797</ele>
        <time>2011-11-11T10:26:52Z</time>
      </trkpt>
      <trkpt lat="45.72023" lon="4.58879">
        <ele>834.40301513672</ele>
        <time>2011-11-11T10:26:58Z</time>
      </trkpt>
      <trkpt lat="45.71992" lon="4.58837">
        <ele>833.4990234375</ele>
        <time>2011-11-11T10:27:08Z</time>
      </trkpt>
      <trkpt lat="45.71964" lon="4.58799">
        <ele>832.47302246094</ele>
        <time>2011-11-11T10:27:16Z</time>
      </trkpt>
      <trkpt lat="45.71936" lon="4.58753">
        <ele>831.05499267578</ele>
        <time>2011-11-11T10:27:23Z</time>
      </trkpt>
      <trkpt lat="45.71907" lon="4.58708">
        <ele>828.67401123047</ele>
        <time>2011-11-11T10:27:29Z</time>
      </trkpt>
      <trkpt lat="45.71864" lon="4.58652">
        <ele>825.89300537109</ele>
        <time>2011-11-11T10:27:36Z</time>
      </trkpt>
      <trkpt lat="45.71818" lon="4.586">
        <ele>821.70001220703</ele>
        <time>2011-11-11T10:27:42Z</time>
      </trkpt>
      <trkpt lat="45.71809" lon="4.58592">
        <ele>820.82702636719</ele>
        <time>2011-11-11T10:27:43Z</time>
      </trkpt>
      <trkpt lat="45.71775" lon="4.58573">
        <ele>816.30499267578</ele>
        <time>2011-11-11T10:27:47Z</time>
      </trkpt>
      <trkpt lat="45.71753" lon="4.58558">
        <ele>812.03601074219</ele>
        <time>2011-11-11T10:27:51Z</time>
      </trkpt>
      <trkpt lat="45.71735" lon="4.58543">
        <ele>807.87701416016</ele>
        <time>2011-11-11T10:27:55Z</time>
      </trkpt>
      <trkpt lat="45.71716" lon="4.58531">
        <ele>806.38201904297</ele>
        <time>2011-11-11T10:28:01Z</time>
      </trkpt>
      <trkpt lat="45.71698" lon="4.58516">
        <ele>806.82501220703</ele>
        <time>2011-11-11T10:28:10Z</time>
      </trkpt>
      <trkpt lat="45.71684" lon="4.58506">
        <ele>807.89801025391</ele>
        <time>2011-11-11T10:28:18Z</time>
      </trkpt>
      <trkpt lat="45.71666" lon="4.58493">
        <ele>809.84002685547</ele>
        <time>2011-11-11T10:28:28Z</time>
      </trkpt>
      <trkpt lat="45.71654" lon="4.58482">
        <ele>811.20098876953</ele>
        <time>2011-11-11T10:28:36Z</time>
      </trkpt>
      <trkpt lat="45.71642" lon="4.58472">
        <ele>812.53601074219</ele>
        <time>2011-11-11T10:28:44Z</time>
      </trkpt>
      <trkpt lat="45.71632" lon="4.58464">
        <ele>813.47497558594</ele>
        <time>2011-11-11T10:28:50Z</time>
      </trkpt>
      <trkpt lat="45.71621" lon="4.58456">
        <ele>815.35998535156</ele>
        <time>2011-11-11T10:28:57Z</time>
      </trkpt>
      <trkpt lat="45.71611" lon="4.5845">
        <ele>817.21997070312</ele>
        <time>2011-11-11T10:29:04Z</time>
      </trkpt>
      <trkpt lat="45.71603" lon="4.58441">
        <ele>818.79699707031</ele>
        <time>2011-11-11T10:29:11Z</time>
      </trkpt>
      <trkpt lat="45.71599" lon="4.58439">
        <ele>820.28497314453</ele>
        <time>2011-11-11T10:29:18Z</time>
      </trkpt>
      <trkpt lat="45.71598" lon="4.58435">
        <ele>821.16998291016</ele>
        <time>2011-11-11T10:29:22Z</time>
      </trkpt>
      <trkpt lat="45.71591" lon="4.58424">
        <ele>822.61102294922</ele>
        <time>2011-11-11T10:29:29Z</time>
      </trkpt>
      <trkpt lat="45.7158" lon="4.58412">
        <ele>824.19799804688</ele>
        <time>2011-11-11T10:29:38Z</time>
      </trkpt>
      <trkpt lat="45.71567" lon="4.58402">
        <ele>825.75500488281</ele>
        <time>2011-11-11T10:29:47Z</time>
      </trkpt>
      <trkpt lat="45.71553" lon="4.58391">
        <ele>827.51300048828</ele>
        <time>2011-11-11T10:29:55Z</time>
      </trkpt>
      <trkpt lat="45.71542" lon="4.58383">
        <ele>829.48297119141</ele>
        <time>2011-11-11T10:30:02Z</time>
      </trkpt>
      <trkpt lat="45.71533" lon="4.58379">
        <ele>831.09197998047</ele>
        <time>2011-11-11T10:30:08Z</time>
      </trkpt>
      <trkpt lat="45.71523" lon="4.5837">
        <ele>833.32800292969</ele>
        <time>2011-11-11T10:30:15Z</time>
      </trkpt>
      <trkpt lat="45.71511" lon="4.58364">
        <ele>834.97100830078</ele>
        <time>2011-11-11T10:30:22Z</time>
      </trkpt>
      <trkpt lat="45.71499" lon="4.5836">
        <ele>836.59497070312</ele>
        <time>2011-11-11T10:30:30Z</time>
      </trkpt>
      <trkpt lat="45.71485" lon="4.58356">
        <ele>838.54998779297</ele>
        <time>2011-11-11T10:30:38Z</time>
      </trkpt>
      <trkpt lat="45.71481" lon="4.58355">
        <ele>839.06597900391</ele>
        <time>2011-11-11T10:30:41Z</time>
      </trkpt>
      <trkpt lat="45.71472" lon="4.58359">
        <ele>840.34100341797</ele>
        <time>2011-11-11T10:30:47Z</time>
      </trkpt>
      <trkpt lat="45.71471" lon="4.58361">
        <ele>840.59002685547</ele>
        <time>2011-11-11T10:30:48Z</time>
      </trkpt>
      <trkpt lat="45.71469" lon="4.58381">
        <ele>842.61499023438</ele>
        <time>2011-11-11T10:30:56Z</time>
      </trkpt>
      <trkpt lat="45.71463" lon="4.58397">
        <ele>843.92401123047</ele>
        <time>2011-11-11T10:31:01Z</time>
      </trkpt>
      <trkpt lat="45.71454" lon="4.58408">
        <ele>844.35699462891</ele>
        <time>2011-11-11T10:31:06Z</time>
      </trkpt>
      <trkpt lat="45.7144" lon="4.58426">
        <ele>844.82800292969</ele>
        <time>2011-11-11T10:31:14Z</time>
      </trkpt>
      <trkpt lat="45.71429" lon="4.58443">
        <ele>845.51501464844</ele>
        <time>2011-11-11T10:31:21Z</time>
      </trkpt>
      <trkpt lat="45.71421" lon="4.58456">
        <ele>846.05499267578</ele>
        <time>2011-11-11T10:31:26Z</time>
      </trkpt>
      <trkpt lat="45.71413" lon="4.58471">
        <ele>846.29998779297</ele>
        <time>2011-11-11T10:31:31Z</time>
      </trkpt>
      <trkpt lat="45.71401" lon="4.58486">
        <ele>846.51397705078</ele>
        <time>2011-11-11T10:31:36Z</time>
      </trkpt>
      <trkpt lat="45.71388" lon="4.58503">
        <ele>846.64202880859</ele>
        <time>2011-11-11T10:31:41Z</time>
      </trkpt>
      <trkpt lat="45.71381" lon="4.58513">
        <ele>846.63098144531</ele>
        <time>2011-11-11T10:31:44Z</time>
      </trkpt>
      <trkpt lat="45.7137" lon="4.58534">
        <ele>846.79699707031</ele>
        <time>2011-11-11T10:31:50Z</time>
      </trkpt>
      <trkpt lat="45.71352" lon="4.5855">
        <ele>847.27697753906</ele>
        <time>2011-11-11T10:31:57Z</time>
      </trkpt>
      <trkpt lat="45.71333" lon="4.58559">
        <ele>847.708984375</ele>
        <time>2011-11-11T10:32:03Z</time>
      </trkpt>
      <trkpt lat="45.71315" lon="4.58564">
        <ele>848.31597900391</ele>
        <time>2011-11-11T10:32:09Z</time>
      </trkpt>
      <trkpt lat="45.71309" lon="4.58567">
        <ele>848.49700927734</ele>
        <time>2011-11-11T10:32:12Z</time>
      </trkpt>
      <trkpt lat="45.71302" lon="4.58578">
        <ele>848.37298583984</ele>
        <time>2011-11-11T10:32:18Z</time>
      </trkpt>
      <trkpt lat="45.71302" lon="4.58578">
        <ele>847.64202880859</ele>
        <time>2011-11-11T10:32:28Z</time>
      </trkpt>
      <trkpt lat="45.71298" lon="4.58582">
        <ele>847.27502441406</ele>
        <time>2011-11-11T10:38:19Z</time>
      </trkpt>
      <trkpt lat="45.71295" lon="4.58587">
        <ele>846.82098388672</ele>
        <time>2011-11-11T10:38:21Z</time>
      </trkpt>
      <trkpt lat="45.71283" lon="4.586">
        <ele>844.9580078125</ele>
        <time>2011-11-11T10:38:27Z</time>
      </trkpt>
      <trkpt lat="45.71279" lon="4.58608">
        <ele>843.49298095703</ele>
        <time>2011-11-11T10:38:30Z</time>
      </trkpt>
      <trkpt lat="45.71283" lon="4.5862">
        <ele>841.75500488281</ele>
        <time>2011-11-11T10:38:34Z</time>
      </trkpt>
      <trkpt lat="45.71287" lon="4.58627">
        <ele>841.03497314453</ele>
        <time>2011-11-11T10:38:37Z</time>
      </trkpt>
      <trkpt lat="45.71285" lon="4.58643">
        <ele>839.67102050781</ele>
        <time>2011-11-11T10:38:43Z</time>
      </trkpt>
      <trkpt lat="45.71291" lon="4.58662">
        <ele>837.59399414062</ele>
        <time>2011-11-11T10:38:49Z</time>
      </trkpt>
      <trkpt lat="45.71288" lon="4.58668">
        <ele>835.78997802734</ele>
        <time>2011-11-11T10:38:53Z</time>
      </trkpt>
      <trkpt lat="45.71284" lon="4.58674">
        <ele>834.19799804688</ele>
        <time>2011-11-11T10:38:57Z</time>
      </trkpt>
      <trkpt lat="45.71284" lon="4.58676">
        <ele>833.88598632812</ele>
        <time>2011-11-11T10:38:58Z</time>
      </trkpt>
      <trkpt lat="45.71281" lon="4.58692">
        <ele>830.54998779297</ele>
        <time>2011-11-11T10:39:04Z</time>
      </trkpt>
      <trkpt lat="45.71278" lon="4.58693">
        <ele>829.89599609375</ele>
        <time>2011-11-11T10:39:05Z</time>
      </trkpt>
      <trkpt lat="45.71271" lon="4.58697">
        <ele>828.60498046875</ele>
        <time>2011-11-11T10:39:07Z</time>
      </trkpt>
      <trkpt lat="45.71261" lon="4.58702">
        <ele>827.51098632812</ele>
        <time>2011-11-11T10:39:09Z</time>
      </trkpt>
      <trkpt lat="45.71251" lon="4.58703">
        <ele>826.60797119141</ele>
        <time>2011-11-11T10:39:11Z</time>
      </trkpt>
      <trkpt lat="45.71239" lon="4.58715">
        <ele>825.55902099609</ele>
        <time>2011-11-11T10:39:15Z</time>
      </trkpt>
      <trkpt lat="45.71232" lon="4.58734">
        <ele>823.67797851562</ele>
        <time>2011-11-11T10:39:19Z</time>
      </trkpt>
      <trkpt lat="45.71222" lon="4.58757">
        <ele>819.86999511719</ele>
        <time>2011-11-11T10:39:24Z</time>
      </trkpt>
      <trkpt lat="45.71218" lon="4.58783">
        <ele>814.875</ele>
        <time>2011-11-11T10:39:30Z</time>
      </trkpt>
      <trkpt lat="45.7121" lon="4.58791">
        <ele>812.74401855469</ele>
        <time>2011-11-11T10:39:33Z</time>
      </trkpt>
      <trkpt lat="45.71205" lon="4.58804">
        <ele>809.61999511719</ele>
        <time>2011-11-11T10:39:37Z</time>
      </trkpt>
      <trkpt lat="45.71202" lon="4.58807">
        <ele>809.61798095703</ele>
        <time>2011-11-11T10:39:38Z</time>
      </trkpt>
      <trkpt lat="45.712" lon="4.58811">
        <ele>808.84100341797</ele>
        <time>2011-11-11T10:39:39Z</time>
      </trkpt>
      <trkpt lat="45.71184" lon="4.58829">
        <ele>803.48797607422</ele>
        <time>2011-11-11T10:39:45Z</time>
      </trkpt>
      <trkpt lat="45.71181" lon="4.58831">
        <ele>802.68200683594</ele>
        <time>2011-11-11T10:39:46Z</time>
      </trkpt>
      <trkpt lat="45.71167" lon="4.58827">
        <ele>799.53601074219</ele>
        <time>2011-11-11T10:39:51Z</time>
      </trkpt>
      <trkpt lat="45.71161" lon="4.58825">
        <ele>797.47100830078</ele>
        <time>2011-11-11T10:39:55Z</time>
      </trkpt>
      <trkpt lat="45.71157" lon="4.58838">
        <ele>794.94799804688</ele>
        <time>2011-11-11T10:40:00Z</time>
      </trkpt>
      <trkpt lat="45.71156" lon="4.58853">
        <ele>793.27099609375</ele>
        <time>2011-11-11T10:40:04Z</time>
      </trkpt>
      <trkpt lat="45.71156" lon="4.58871">
        <ele>791.13397216797</ele>
        <time>2011-11-11T10:40:07Z</time>
      </trkpt>
      <trkpt lat="45.71151" lon="4.58884">
        <ele>789.00598144531</ele>
        <time>2011-11-11T10:40:10Z</time>
      </trkpt>
      <trkpt lat="45.71135" lon="4.58885">
        <ele>786.55102539062</ele>
        <time>2011-11-11T10:40:13Z</time>
      </trkpt>
      <trkpt lat="45.71123" lon="4.58877">
        <ele>783.60498046875</ele>
        <time>2011-11-11T10:40:16Z</time>
      </trkpt>
      <trkpt lat="45.7111" lon="4.58865">
        <ele>779.74102783203</ele>
        <time>2011-11-11T10:40:20Z</time>
      </trkpt>
      <trkpt lat="45.71103" lon="4.58856">
        <ele>776.17401123047</ele>
        <time>2011-11-11T10:40:24Z</time>
      </trkpt>
      <trkpt lat="45.71099" lon="4.58856">
        <ele>773.59997558594</ele>
        <time>2011-11-11T10:40:28Z</time>
      </trkpt>
      <trkpt lat="45.71094" lon="4.58873">
        <ele>771.61199951172</ele>
        <time>2011-11-11T10:40:32Z</time>
      </trkpt>
      <trkpt lat="45.71091" lon="4.58896">
        <ele>768.22698974609</ele>
        <time>2011-11-11T10:40:36Z</time>
      </trkpt>
      <trkpt lat="45.71082" lon="4.58922">
        <ele>764.55297851562</ele>
        <time>2011-11-11T10:40:40Z</time>
      </trkpt>
      <trkpt lat="45.7108" lon="4.58953">
        <ele>760.53497314453</ele>
        <time>2011-11-11T10:40:44Z</time>
      </trkpt>
      <trkpt lat="45.71083" lon="4.58959">
        <ele>759.65600585938</ele>
        <time>2011-11-11T10:40:45Z</time>
      </trkpt>
      <trkpt lat="45.71088" lon="4.58966">
        <ele>758.00201416016</ele>
        <time>2011-11-11T10:40:47Z</time>
      </trkpt>
      <trkpt lat="45.71086" lon="4.58966">
        <ele>756.77197265625</ele>
        <time>2011-11-11T10:40:49Z</time>
      </trkpt>
      <trkpt lat="45.71072" lon="4.58949">
        <ele>754.87799072266</ele>
        <time>2011-11-11T10:40:53Z</time>
      </trkpt>
      <trkpt lat="45.71067" lon="4.58944">
        <ele>754.875</ele>
        <time>2011-11-11T10:40:54Z</time>
      </trkpt>
      <trkpt lat="45.71054" lon="4.58928">
        <ele>753.02801513672</ele>
        <time>2011-11-11T10:40:59Z</time>
      </trkpt>
      <trkpt lat="45.71054" lon="4.58928">
        <ele>752.40802001953</ele>
        <time>2011-11-11T10:41:01Z</time>
      </trkpt>
      <trkpt lat="45.7106" lon="4.58934">
        <ele>751.87298583984</ele>
        <time>2011-11-11T10:41:06Z</time>
      </trkpt>
      <trkpt lat="45.71071" lon="4.58948">
        <ele>752.791015625</ele>
        <time>2011-11-11T10:41:12Z</time>
      </trkpt>
      <trkpt lat="45.71085" lon="4.58962">
        <ele>754.21002197266</ele>
        <time>2011-11-11T10:41:18Z</time>
      </trkpt>
      <trkpt lat="45.7109" lon="4.58963">
        <ele>754.72100830078</ele>
        <time>2011-11-11T10:41:21Z</time>
      </trkpt>
      <trkpt lat="45.71101" lon="4.58962">
        <ele>755.40002441406</ele>
        <time>2011-11-11T10:42:35Z</time>
      </trkpt>
      <trkpt lat="45.71102" lon="4.58962">
        <ele>755.44000244141</ele>
        <time>2011-11-11T10:42:36Z</time>
      </trkpt>
      <trkpt lat="45.71109" lon="4.58964">
        <ele>755.91400146484</ele>
        <time>2011-11-11T10:42:42Z</time>
      </trkpt>
      <trkpt lat="45.71112" lon="4.58965">
        <ele>756.291015625</ele>
        <time>2011-11-11T10:42:44Z</time>
      </trkpt>
      <trkpt lat="45.7112" lon="4.5897">
        <ele>757.25402832031</ele>
        <time>2011-11-11T10:42:50Z</time>
      </trkpt>
      <trkpt lat="45.71129" lon="4.58971">
        <ele>758.17297363281</ele>
        <time>2011-11-11T10:42:56Z</time>
      </trkpt>
      <trkpt lat="45.71141" lon="4.58972">
        <ele>759.40197753906</ele>
        <time>2011-11-11T10:43:03Z</time>
      </trkpt>
      <trkpt lat="45.71156" lon="4.58968">
        <ele>760.75201416016</ele>
        <time>2011-11-11T10:43:11Z</time>
      </trkpt>
      <trkpt lat="45.7117" lon="4.58963">
        <ele>761.48400878906</ele>
        <time>2011-11-11T10:43:18Z</time>
      </trkpt>
      <trkpt lat="45.71189" lon="4.58955">
        <ele>761.41497802734</ele>
        <time>2011-11-11T10:43:24Z</time>
      </trkpt>
      <trkpt lat="45.71209" lon="4.58943">
        <ele>760.89898681641</ele>
        <time>2011-11-11T10:43:29Z</time>
      </trkpt>
      <trkpt lat="45.71228" lon="4.58932">
        <ele>759.75</ele>
        <time>2011-11-11T10:43:34Z</time>
      </trkpt>
      <trkpt lat="45.71243" lon="4.58925">
        <ele>758.00701904297</ele>
        <time>2011-11-11T10:43:39Z</time>
      </trkpt>
      <trkpt lat="45.71262" lon="4.58922">
        <ele>756.14599609375</ele>
        <time>2011-11-11T10:43:44Z</time>
      </trkpt>
      <trkpt lat="45.7128" lon="4.58916">
        <ele>755.38598632812</ele>
        <time>2011-11-11T10:43:49Z</time>
      </trkpt>
      <trkpt lat="45.71304" lon="4.58909">
        <ele>756.17498779297</ele>
        <time>2011-11-11T10:43:58Z</time>
      </trkpt>
      <trkpt lat="45.71321" lon="4.58906">
        <ele>756.97497558594</ele>
        <time>2011-11-11T10:44:05Z</time>
      </trkpt>
      <trkpt lat="45.71347" lon="4.58902">
        <ele>757.89501953125</ele>
        <time>2011-11-11T10:44:15Z</time>
      </trkpt>
      <trkpt lat="45.71367" lon="4.58893">
        <ele>758.60400390625</ele>
        <time>2011-11-11T10:44:24Z</time>
      </trkpt>
      <trkpt lat="45.71393" lon="4.58882">
        <ele>759.14202880859</ele>
        <time>2011-11-11T10:44:33Z</time>
      </trkpt>
      <trkpt lat="45.7142" lon="4.5887">
        <ele>759.66497802734</ele>
        <time>2011-11-11T10:44:41Z</time>
      </trkpt>
      <trkpt lat="45.71442" lon="4.58858">
        <ele>759.92797851562</ele>
        <time>2011-11-11T10:44:48Z</time>
      </trkpt>
      <trkpt lat="45.71473" lon="4.58842">
        <ele>760.46002197266</ele>
        <time>2011-11-11T10:44:57Z</time>
      </trkpt>
      <trkpt lat="45.71503" lon="4.58824">
        <ele>760.79797363281</ele>
        <time>2011-11-11T10:45:06Z</time>
      </trkpt>
      <trkpt lat="45.71539" lon="4.58803">
        <ele>761.41400146484</ele>
        <time>2011-11-11T10:45:17Z</time>
      </trkpt>
      <trkpt lat="45.71567" lon="4.58787">
        <ele>762.21502685547</ele>
        <time>2011-11-11T10:45:26Z</time>
      </trkpt>
      <trkpt lat="45.71601" lon="4.58774">
        <ele>763.15100097656</ele>
        <time>2011-11-11T10:45:37Z</time>
      </trkpt>
      <trkpt lat="45.71623" lon="4.58775">
        <ele>764.55102539062</ele>
        <time>2011-11-11T10:45:44Z</time>
      </trkpt>
      <trkpt lat="45.71646" lon="4.58789">
        <ele>766.06500244141</ele>
        <time>2011-11-11T10:45:52Z</time>
      </trkpt>
      <trkpt lat="45.71665" lon="4.58813">
        <ele>767.55700683594</ele>
        <time>2011-11-11T10:46:01Z</time>
      </trkpt>
      <trkpt lat="45.71677" lon="4.58839">
        <ele>769.29699707031</ele>
        <time>2011-11-11T10:46:09Z</time>
      </trkpt>
      <trkpt lat="45.71683" lon="4.58871">
        <ele>770.63000488281</ele>
        <time>2011-11-11T10:46:17Z</time>
      </trkpt>
      <trkpt lat="45.71688" lon="4.58913">
        <ele>772.1240234375</ele>
        <time>2011-11-11T10:46:27Z</time>
      </trkpt>
      <trkpt lat="45.71693" lon="4.58963">
        <ele>773.53002929688</ele>
        <time>2011-11-11T10:46:38Z</time>
      </trkpt>
      <trkpt lat="45.71696" lon="4.59003">
        <ele>774.45098876953</ele>
        <time>2011-11-11T10:46:47Z</time>
      </trkpt>
      <trkpt lat="45.71701" lon="4.59055">
        <ele>775.89801025391</ele>
        <time>2011-11-11T10:46:59Z</time>
      </trkpt>
      <trkpt lat="45.71706" lon="4.59089">
        <ele>777.13702392578</ele>
        <time>2011-11-11T10:47:07Z</time>
      </trkpt>
      <trkpt lat="45.71708" lon="4.59118">
        <ele>777.96197509766</ele>
        <time>2011-11-11T10:47:14Z</time>
      </trkpt>
      <trkpt lat="45.71706" lon="4.5914">
        <ele>777.91998291016</ele>
        <time>2011-11-11T10:47:17Z</time>
      </trkpt>
      <trkpt lat="45.71706" lon="4.59167">
        <ele>777.07397460938</ele>
        <time>2011-11-11T10:47:20Z</time>
      </trkpt>
      <trkpt lat="45.71708" lon="4.59187">
        <ele>775.00402832031</ele>
        <time>2011-11-11T10:47:24Z</time>
      </trkpt>
      <trkpt lat="45.71706" lon="4.59194">
        <ele>774.04901123047</ele>
        <time>2011-11-11T10:47:26Z</time>
      </trkpt>
      <trkpt lat="45.71697" lon="4.59211">
        <ele>771.4580078125</ele>
        <time>2011-11-11T10:47:32Z</time>
      </trkpt>
      <trkpt lat="45.71692" lon="4.59227">
        <ele>770.25799560547</ele>
        <time>2011-11-11T10:47:35Z</time>
      </trkpt>
      <trkpt lat="45.71674" lon="4.59248">
        <ele>768.85101318359</ele>
        <time>2011-11-11T10:47:40Z</time>
      </trkpt>
      <trkpt lat="45.7165" lon="4.59273">
        <ele>766.46502685547</ele>
        <time>2011-11-11T10:47:46Z</time>
      </trkpt>
      <trkpt lat="45.71639" lon="4.59285">
        <ele>763.82299804688</ele>
        <time>2011-11-11T10:47:50Z</time>
      </trkpt>
      <trkpt lat="45.71638" lon="4.5927">
        <ele>760.94799804688</ele>
        <time>2011-11-11T10:47:53Z</time>
      </trkpt>
      <trkpt lat="45.71629" lon="4.59265">
        <ele>757.98297119141</ele>
        <time>2011-11-11T10:47:56Z</time>
      </trkpt>
      <trkpt lat="45.71622" lon="4.59266">
        <ele>756.25299072266</ele>
        <time>2011-11-11T10:47:58Z</time>
      </trkpt>
      <trkpt lat="45.71614" lon="4.59287">
        <ele>752.35797119141</ele>
        <time>2011-11-11T10:48:03Z</time>
      </trkpt>
      <trkpt lat="45.71606" lon="4.59319">
        <ele>750.96899414062</ele>
        <time>2011-11-11T10:48:07Z</time>
      </trkpt>
      <trkpt lat="45.71597" lon="4.59365">
        <ele>749.80603027344</ele>
        <time>2011-11-11T10:48:13Z</time>
      </trkpt>
      <trkpt lat="45.71588" lon="4.59406">
        <ele>748.67102050781</ele>
        <time>2011-11-11T10:48:18Z</time>
      </trkpt>
      <trkpt lat="45.71579" lon="4.59434">
        <ele>746.98901367188</ele>
        <time>2011-11-11T10:48:22Z</time>
      </trkpt>
      <trkpt lat="45.71569" lon="4.59462">
        <ele>744.05401611328</ele>
        <time>2011-11-11T10:48:26Z</time>
      </trkpt>
      <trkpt lat="45.7156" lon="4.59463">
        <ele>741.37200927734</ele>
        <time>2011-11-11T10:48:30Z</time>
      </trkpt>
      <trkpt lat="45.71557" lon="4.59447">
        <ele>739.7509765625</ele>
        <time>2011-11-11T10:48:32Z</time>
      </trkpt>
      <trkpt lat="45.71553" lon="4.59409">
        <ele>735.96099853516</ele>
        <time>2011-11-11T10:48:38Z</time>
      </trkpt>
      <trkpt lat="45.71553" lon="4.59405">
        <ele>735.38000488281</ele>
        <time>2011-11-11T10:48:39Z</time>
      </trkpt>
      <trkpt lat="45.71547" lon="4.59391">
        <ele>732.06896972656</ele>
        <time>2011-11-11T10:48:44Z</time>
      </trkpt>
      <trkpt lat="45.71545" lon="4.59386">
        <ele>729.88500976562</ele>
        <time>2011-11-11T10:48:47Z</time>
      </trkpt>
      <trkpt lat="45.71547" lon="4.59386">
        <ele>728.47100830078</ele>
        <time>2011-11-11T10:48:55Z</time>
      </trkpt>
      <trkpt lat="45.71543" lon="4.59372">
        <ele>727.99700927734</ele>
        <time>2011-11-11T10:49:00Z</time>
      </trkpt>
      <trkpt lat="45.7154" lon="4.59356">
        <ele>726.36700439453</ele>
        <time>2011-11-11T10:49:04Z</time>
      </trkpt>
      <trkpt lat="45.71533" lon="4.59349">
        <ele>723.85101318359</ele>
        <time>2011-11-11T10:49:08Z</time>
      </trkpt>
      <trkpt lat="45.71531" lon="4.59346">
        <ele>723.12298583984</ele>
        <time>2011-11-11T10:49:09Z</time>
      </trkpt>
      <trkpt lat="45.71518" lon="4.59305">
        <ele>717.48101806641</ele>
        <time>2011-11-11T10:49:16Z</time>
      </trkpt>
      <trkpt lat="45.71515" lon="4.59287">
        <ele>715.58801269531</ele>
        <time>2011-11-11T10:49:18Z</time>
      </trkpt>
      <trkpt lat="45.71516" lon="4.5926">
        <ele>713.86102294922</ele>
        <time>2011-11-11T10:49:21Z</time>
      </trkpt>
      <trkpt lat="45.71521" lon="4.59227">
        <ele>711.31500244141</ele>
        <time>2011-11-11T10:49:25Z</time>
      </trkpt>
      <trkpt lat="45.71519" lon="4.59204">
        <ele>708.17797851562</ele>
        <time>2011-11-11T10:49:29Z</time>
      </trkpt>
      <trkpt lat="45.71507" lon="4.59188">
        <ele>704.20001220703</ele>
        <time>2011-11-11T10:49:33Z</time>
      </trkpt>
      <trkpt lat="45.71504" lon="4.59165">
        <ele>700.38000488281</ele>
        <time>2011-11-11T10:49:38Z</time>
      </trkpt>
      <trkpt lat="45.71505" lon="4.59162">
        <ele>698.60601806641</ele>
        <time>2011-11-11T10:49:44Z</time>
      </trkpt>
      <trkpt lat="45.71505" lon="4.59162">
        <ele>698.19598388672</ele>
        <time>2011-11-11T10:50:32Z</time>
      </trkpt>
      <trkpt lat="45.71505" lon="4.59149">
        <ele>698.05902099609</ele>
        <time>2011-11-11T10:50:38Z</time>
      </trkpt>
      <trkpt lat="45.715" lon="4.59132">
        <ele>697.82098388672</ele>
        <time>2011-11-11T10:50:44Z</time>
      </trkpt>
      <trkpt lat="45.71489" lon="4.59115">
        <ele>697.88598632812</ele>
        <time>2011-11-11T10:50:50Z</time>
      </trkpt>
      <trkpt lat="45.71469" lon="4.591">
        <ele>698.59100341797</ele>
        <time>2011-11-11T10:50:57Z</time>
      </trkpt>
      <trkpt lat="45.71452" lon="4.59091">
        <ele>699.23400878906</ele>
        <time>2011-11-11T10:51:03Z</time>
      </trkpt>
      <trkpt lat="45.71424" lon="4.59086">
        <ele>699.23101806641</ele>
        <time>2011-11-11T10:51:10Z</time>
      </trkpt>
      <trkpt lat="45.714" lon="4.59083">
        <ele>698.23602294922</ele>
        <time>2011-11-11T10:51:14Z</time>
      </trkpt>
      <trkpt lat="45.7137" lon="4.59095">
        <ele>695.71697998047</ele>
        <time>2011-11-11T10:51:18Z</time>
      </trkpt>
      <trkpt lat="45.7133" lon="4.59118">
        <ele>689.083984375</ele>
        <time>2011-11-11T10:51:23Z</time>
      </trkpt>
      <trkpt lat="45.7132" lon="4.59124">
        <ele>684.72900390625</ele>
        <time>2011-11-11T10:51:26Z</time>
      </trkpt>
      <trkpt lat="45.71321" lon="4.59127">
        <ele>684.72497558594</ele>
        <time>2011-11-11T10:51:27Z</time>
      </trkpt>
      <trkpt lat="45.71328" lon="4.59127">
        <ele>682.81701660156</ele>
        <time>2011-11-11T10:51:29Z</time>
      </trkpt>
      <trkpt lat="45.71343" lon="4.59125">
        <ele>681.79602050781</ele>
        <time>2011-11-11T10:51:32Z</time>
      </trkpt>
      <trkpt lat="45.71369" lon="4.59136">
        <ele>680.35101318359</ele>
        <time>2011-11-11T10:51:36Z</time>
      </trkpt>
      <trkpt lat="45.71375" lon="4.59143">
        <ele>679.84600830078</ele>
        <time>2011-11-11T10:51:37Z</time>
      </trkpt>
      <trkpt lat="45.71403" lon="4.59172">
        <ele>677.19299316406</ele>
        <time>2011-11-11T10:51:41Z</time>
      </trkpt>
      <trkpt lat="45.71424" lon="4.59203">
        <ele>675.84197998047</ele>
        <time>2011-11-11T10:51:45Z</time>
      </trkpt>
      <trkpt lat="45.71426" lon="4.5923">
        <ele>675.17199707031</ele>
        <time>2011-11-11T10:51:48Z</time>
      </trkpt>
      <trkpt lat="45.71421" lon="4.59283">
        <ele>674.04498291016</ele>
        <time>2011-11-11T10:51:54Z</time>
      </trkpt>
      <trkpt lat="45.7142" lon="4.59292">
        <ele>673.78198242188</ele>
        <time>2011-11-11T10:51:55Z</time>
      </trkpt>
      <trkpt lat="45.71415" lon="4.59353">
        <ele>673.38500976562</ele>
        <time>2011-11-11T10:52:02Z</time>
      </trkpt>
      <trkpt lat="45.71418" lon="4.59401">
        <ele>671.49102783203</ele>
        <time>2011-11-11T10:52:07Z</time>
      </trkpt>
      <trkpt lat="45.71423" lon="4.59427">
        <ele>670.42999267578</ele>
        <time>2011-11-11T10:52:11Z</time>
      </trkpt>
      <trkpt lat="45.71424" lon="4.5945">
        <ele>670.95599365234</ele>
        <time>2011-11-11T10:52:16Z</time>
      </trkpt>
      <trkpt lat="45.71424" lon="4.59489">
        <ele>671.32501220703</ele>
        <time>2011-11-11T10:52:24Z</time>
      </trkpt>
      <trkpt lat="45.71421" lon="4.59531">
        <ele>671.11102294922</ele>
        <time>2011-11-11T10:52:31Z</time>
      </trkpt>
      <trkpt lat="45.71419" lon="4.59552">
        <ele>670.43200683594</ele>
        <time>2011-11-11T10:52:35Z</time>
      </trkpt>
      <trkpt lat="45.71419" lon="4.59603">
        <ele>670.32299804688</ele>
        <time>2011-11-11T10:52:42Z</time>
      </trkpt>
      <trkpt lat="45.7142" lon="4.59638">
        <ele>670.71197509766</ele>
        <time>2011-11-11T10:52:47Z</time>
      </trkpt>
      <trkpt lat="45.71432" lon="4.59685">
        <ele>670.88098144531</ele>
        <time>2011-11-11T10:52:53Z</time>
      </trkpt>
      <trkpt lat="45.71438" lon="4.597">
        <ele>670.84301757812</ele>
        <time>2011-11-11T10:52:55Z</time>
      </trkpt>
      <trkpt lat="45.71449" lon="4.5972">
        <ele>670.60498046875</ele>
        <time>2011-11-11T10:52:58Z</time>
      </trkpt>
      <trkpt lat="45.71457" lon="4.5973">
        <ele>670.51000976562</ele>
        <time>2011-11-11T10:53:00Z</time>
      </trkpt>
      <trkpt lat="45.71476" lon="4.59753">
        <ele>670.93200683594</ele>
        <time>2011-11-11T10:53:05Z</time>
      </trkpt>
      <trkpt lat="45.71493" lon="4.59782">
        <ele>671.06701660156</ele>
        <time>2011-11-11T10:53:11Z</time>
      </trkpt>
      <trkpt lat="45.71496" lon="4.59787">
        <ele>670.94598388672</ele>
        <time>2011-11-11T10:53:12Z</time>
      </trkpt>
      <trkpt lat="45.71511" lon="4.59804">
        <ele>670.28997802734</ele>
        <time>2011-11-11T10:53:16Z</time>
      </trkpt>
      <trkpt lat="45.71534" lon="4.59813">
        <ele>670.16198730469</ele>
        <time>2011-11-11T10:53:21Z</time>
      </trkpt>
      <trkpt lat="45.71544" lon="4.59812">
        <ele>670.19201660156</ele>
        <time>2011-11-11T10:53:23Z</time>
      </trkpt>
      <trkpt lat="45.71558" lon="4.59805">
        <ele>670.63299560547</ele>
        <time>2011-11-11T10:53:28Z</time>
      </trkpt>
      <trkpt lat="45.71574" lon="4.59796">
        <ele>671.33502197266</ele>
        <time>2011-11-11T10:53:33Z</time>
      </trkpt>
      <trkpt lat="45.71597" lon="4.59786">
        <ele>671.91900634766</ele>
        <time>2011-11-11T10:53:39Z</time>
      </trkpt>
      <trkpt lat="45.71612" lon="4.59775">
        <ele>672.84497070312</ele>
        <time>2011-11-11T10:53:44Z</time>
      </trkpt>
      <trkpt lat="45.71628" lon="4.59768">
        <ele>673.27600097656</ele>
        <time>2011-11-11T10:53:48Z</time>
      </trkpt>
      <trkpt lat="45.71634" lon="4.59765">
        <ele>673.21002197266</ele>
        <time>2011-11-11T10:53:49Z</time>
      </trkpt>
      <trkpt lat="45.71642" lon="4.59755">
        <ele>672.70300292969</ele>
        <time>2011-11-11T10:53:51Z</time>
      </trkpt>
      <trkpt lat="45.71674" lon="4.59729">
        <ele>670.95599365234</ele>
        <time>2011-11-11T10:53:56Z</time>
      </trkpt>
      <trkpt lat="45.71712" lon="4.59722">
        <ele>670.47198486328</ele>
        <time>2011-11-11T10:54:02Z</time>
      </trkpt>
      <trkpt lat="45.71738" lon="4.59717">
        <ele>670.83001708984</ele>
        <time>2011-11-11T10:54:07Z</time>
      </trkpt>
      <trkpt lat="45.71753" lon="4.5971">
        <ele>670.73901367188</ele>
        <time>2011-11-11T10:54:10Z</time>
      </trkpt>
      <trkpt lat="45.71761" lon="4.59705">
        <ele>670.72802734375</ele>
        <time>2011-11-11T10:54:12Z</time>
      </trkpt>
      <trkpt lat="45.71788" lon="4.59692">
        <ele>670.94000244141</ele>
        <time>2011-11-11T10:54:18Z</time>
      </trkpt>
      <trkpt lat="45.71801" lon="4.59682">
        <ele>670.76098632812</ele>
        <time>2011-11-11T10:54:22Z</time>
      </trkpt>
      <trkpt lat="45.71817" lon="4.59674">
        <ele>670.55798339844</ele>
        <time>2011-11-11T10:54:26Z</time>
      </trkpt>
      <trkpt lat="45.7183" lon="4.59671">
        <ele>670.01202392578</ele>
        <time>2011-11-11T10:54:29Z</time>
      </trkpt>
      <trkpt lat="45.71849" lon="4.59665">
        <ele>669.27899169922</ele>
        <time>2011-11-11T10:54:32Z</time>
      </trkpt>
      <trkpt lat="45.71875" lon="4.59665">
        <ele>668.68103027344</ele>
        <time>2011-11-11T10:54:36Z</time>
      </trkpt>
      <trkpt lat="45.71891" lon="4.59679">
        <ele>668.49798583984</ele>
        <time>2011-11-11T10:54:39Z</time>
      </trkpt>
      <trkpt lat="45.71894" lon="4.59686">
        <ele>668.31799316406</ele>
        <time>2011-11-11T10:54:40Z</time>
      </trkpt>
      <trkpt lat="45.71907" lon="4.59726">
        <ele>667.53601074219</ele>
        <time>2011-11-11T10:54:45Z</time>
      </trkpt>
      <trkpt lat="45.71912" lon="4.5977">
        <ele>667.81597900391</ele>
        <time>2011-11-11T10:54:51Z</time>
      </trkpt>
      <trkpt lat="45.71912" lon="4.598">
        <ele>668.57299804688</ele>
        <time>2011-11-11T10:54:56Z</time>
      </trkpt>
      <trkpt lat="45.71907" lon="4.59837">
        <ele>668.59399414062</ele>
        <time>2011-11-11T10:55:02Z</time>
      </trkpt>
      <trkpt lat="45.71898" lon="4.59878">
        <ele>667.49597167969</ele>
        <time>2011-11-11T10:55:09Z</time>
      </trkpt>
      <trkpt lat="45.71895" lon="4.599">
        <ele>666.99499511719</ele>
        <time>2011-11-11T10:55:14Z</time>
      </trkpt>
      <trkpt lat="45.71893" lon="4.59918">
        <ele>666.88098144531</ele>
        <time>2011-11-11T10:55:20Z</time>
      </trkpt>
      <trkpt lat="45.71892" lon="4.59937">
        <ele>666.90802001953</ele>
        <time>2011-11-11T10:55:25Z</time>
      </trkpt>
      <trkpt lat="45.71893" lon="4.59952">
        <ele>666.81701660156</ele>
        <time>2011-11-11T10:55:30Z</time>
      </trkpt>
      <trkpt lat="45.71894" lon="4.59975">
        <ele>666.71398925781</ele>
        <time>2011-11-11T10:55:35Z</time>
      </trkpt>
      <trkpt lat="45.71895" lon="4.59998">
        <ele>666.49499511719</ele>
        <time>2011-11-11T10:55:39Z</time>
      </trkpt>
      <trkpt lat="45.71898" lon="4.60027">
        <ele>666.10900878906</ele>
        <time>2011-11-11T10:55:43Z</time>
      </trkpt>
      <trkpt lat="45.71901" lon="4.60049">
        <ele>666.01098632812</ele>
        <time>2011-11-11T10:55:46Z</time>
      </trkpt>
      <trkpt lat="45.71908" lon="4.60076">
        <ele>666.36401367188</ele>
        <time>2011-11-11T10:55:50Z</time>
      </trkpt>
      <trkpt lat="45.71926" lon="4.60109">
        <ele>667.05401611328</ele>
        <time>2011-11-11T10:55:55Z</time>
      </trkpt>
      <trkpt lat="45.71941" lon="4.60118">
        <ele>666.89697265625</ele>
        <time>2011-11-11T10:55:58Z</time>
      </trkpt>
      <trkpt lat="45.71962" lon="4.60122">
        <ele>666.78997802734</ele>
        <time>2011-11-11T10:56:02Z</time>
      </trkpt>
      <trkpt lat="45.71976" lon="4.60122">
        <ele>667.07000732422</ele>
        <time>2011-11-11T10:56:05Z</time>
      </trkpt>
      <trkpt lat="45.72006" lon="4.60122">
        <ele>666.73101806641</ele>
        <time>2011-11-11T10:56:10Z</time>
      </trkpt>
      <trkpt lat="45.72026" lon="4.60121">
        <ele>665.90002441406</ele>
        <time>2011-11-11T10:56:13Z</time>
      </trkpt>
      <trkpt lat="45.72058" lon="4.60122">
        <ele>665.13500976562</ele>
        <time>2011-11-11T10:56:18Z</time>
      </trkpt>
      <trkpt lat="45.72082" lon="4.60132">
        <ele>665.02600097656</ele>
        <time>2011-11-11T10:56:22Z</time>
      </trkpt>
      <trkpt lat="45.72091" lon="4.60157">
        <ele>664.82800292969</ele>
        <time>2011-11-11T10:56:26Z</time>
      </trkpt>
      <trkpt lat="45.72097" lon="4.60197">
        <ele>664.44702148438</ele>
        <time>2011-11-11T10:56:30Z</time>
      </trkpt>
      <trkpt lat="45.72114" lon="4.60238">
        <ele>664.24597167969</ele>
        <time>2011-11-11T10:56:36Z</time>
      </trkpt>
      <trkpt lat="45.7212" lon="4.60251">
        <ele>664.31298828125</ele>
        <time>2011-11-11T10:56:38Z</time>
      </trkpt>
      <trkpt lat="45.72126" lon="4.60285">
        <ele>664.50799560547</ele>
        <time>2011-11-11T10:56:43Z</time>
      </trkpt>
      <trkpt lat="45.72121" lon="4.60314">
        <ele>664.91400146484</ele>
        <time>2011-11-11T10:56:47Z</time>
      </trkpt>
      <trkpt lat="45.72119" lon="4.6033">
        <ele>665.20697021484</ele>
        <time>2011-11-11T10:56:49Z</time>
      </trkpt>
      <trkpt lat="45.72111" lon="4.60382">
        <ele>665.82098388672</ele>
        <time>2011-11-11T10:56:56Z</time>
      </trkpt>
      <trkpt lat="45.72119" lon="4.60419">
        <ele>665.86999511719</ele>
        <time>2011-11-11T10:57:01Z</time>
      </trkpt>
      <trkpt lat="45.72134" lon="4.6045">
        <ele>666.69702148438</ele>
        <time>2011-11-11T10:57:06Z</time>
      </trkpt>
      <trkpt lat="45.7214" lon="4.60478">
        <ele>667.32598876953</ele>
        <time>2011-11-11T10:57:10Z</time>
      </trkpt>
      <trkpt lat="45.72154" lon="4.6053">
        <ele>666.15997314453</ele>
        <time>2011-11-11T10:57:16Z</time>
      </trkpt>
      <trkpt lat="45.7216" lon="4.60552">
        <ele>665.55999755859</ele>
        <time>2011-11-11T10:57:19Z</time>
      </trkpt>
      <trkpt lat="45.72168" lon="4.60585">
        <ele>665.06701660156</ele>
        <time>2011-11-11T10:57:23Z</time>
      </trkpt>
      <trkpt lat="45.7219" lon="4.60624">
        <ele>663.82702636719</ele>
        <time>2011-11-11T10:57:30Z</time>
      </trkpt>
      <trkpt lat="45.72219" lon="4.6065">
        <ele>662.43701171875</ele>
        <time>2011-11-11T10:57:36Z</time>
      </trkpt>
      <trkpt lat="45.72255" lon="4.60675">
        <ele>661.93103027344</ele>
        <time>2011-11-11T10:57:41Z</time>
      </trkpt>
      <trkpt lat="45.72285" lon="4.60699">
        <ele>661.78002929688</ele>
        <time>2011-11-11T10:57:46Z</time>
      </trkpt>
      <trkpt lat="45.72306" lon="4.60714">
        <ele>661.57800292969</ele>
        <time>2011-11-11T10:57:49Z</time>
      </trkpt>
      <trkpt lat="45.72334" lon="4.60726">
        <ele>661.07098388672</ele>
        <time>2011-11-11T10:57:53Z</time>
      </trkpt>
      <trkpt lat="45.72372" lon="4.60727">
        <ele>660.64202880859</ele>
        <time>2011-11-11T10:58:00Z</time>
      </trkpt>
      <trkpt lat="45.72397" lon="4.60723">
        <ele>660.79901123047</ele>
        <time>2011-11-11T10:58:05Z</time>
      </trkpt>
      <trkpt lat="45.72417" lon="4.60721">
        <ele>661.68902587891</ele>
        <time>2011-11-11T10:58:10Z</time>
      </trkpt>
      <trkpt lat="45.72443" lon="4.6072">
        <ele>663.04797363281</ele>
        <time>2011-11-11T10:58:16Z</time>
      </trkpt>
      <trkpt lat="45.72454" lon="4.60718">
        <ele>662.88500976562</ele>
        <time>2011-11-11T10:58:20Z</time>
      </trkpt>
      <trkpt lat="45.72475" lon="4.60718">
        <ele>662.21502685547</ele>
        <time>2011-11-11T10:58:26Z</time>
      </trkpt>
      <trkpt lat="45.72478" lon="4.60726">
        <ele>661.916015625</ele>
        <time>2011-11-11T10:58:30Z</time>
      </trkpt>
      <trkpt lat="45.7247" lon="4.60736">
        <ele>661.75299072266</ele>
        <time>2011-11-11T10:59:32Z</time>
      </trkpt>
      <trkpt lat="45.72472" lon="4.6076">
        <ele>662.13397216797</ele>
        <time>2011-11-11T10:59:38Z</time>
      </trkpt>
      <trkpt lat="45.72472" lon="4.60782">
        <ele>662.59899902344</ele>
        <time>2011-11-11T10:59:43Z</time>
      </trkpt>
      <trkpt lat="45.7247" lon="4.60799">
        <ele>662.91998291016</ele>
        <time>2011-11-11T10:59:46Z</time>
      </trkpt>
      <trkpt lat="45.72467" lon="4.60823">
        <ele>662.95697021484</ele>
        <time>2011-11-11T10:59:50Z</time>
      </trkpt>
      <trkpt lat="45.72462" lon="4.6086">
        <ele>662.54699707031</ele>
        <time>2011-11-11T10:59:55Z</time>
      </trkpt>
      <trkpt lat="45.72456" lon="4.60913">
        <ele>662.40997314453</ele>
        <time>2011-11-11T11:00:03Z</time>
      </trkpt>
      <trkpt lat="45.72453" lon="4.60972">
        <ele>662.49798583984</ele>
        <time>2011-11-11T11:00:11Z</time>
      </trkpt>
      <trkpt lat="45.72448" lon="4.61024">
        <ele>662.29901123047</ele>
        <time>2011-11-11T11:00:18Z</time>
      </trkpt>
      <trkpt lat="45.72446" lon="4.61047">
        <ele>662.40502929688</ele>
        <time>2011-11-11T11:00:21Z</time>
      </trkpt>
      <trkpt lat="45.72447" lon="4.61091">
        <ele>662.05297851562</ele>
        <time>2011-11-11T11:00:27Z</time>
      </trkpt>
      <trkpt lat="45.72447" lon="4.61111">
        <ele>661.94000244141</ele>
        <time>2011-11-11T11:00:30Z</time>
      </trkpt>
      <trkpt lat="45.72442" lon="4.61152">
        <ele>661.66900634766</ele>
        <time>2011-11-11T11:00:36Z</time>
      </trkpt>
      <trkpt lat="45.72435" lon="4.61195">
        <ele>661.79400634766</ele>
        <time>2011-11-11T11:00:43Z</time>
      </trkpt>
      <trkpt lat="45.72431" lon="4.6122">
        <ele>662.56298828125</ele>
        <time>2011-11-11T11:00:49Z</time>
      </trkpt>
      <trkpt lat="45.72435" lon="4.61235">
        <ele>663.5</ele>
        <time>2011-11-11T11:00:53Z</time>
      </trkpt>
      <trkpt lat="45.7244" lon="4.61261">
        <ele>664.31500244141</ele>
        <time>2011-11-11T11:00:59Z</time>
      </trkpt>
      <trkpt lat="45.72441" lon="4.61266">
        <ele>664.26898193359</ele>
        <time>2011-11-11T11:01:00Z</time>
      </trkpt>
      <trkpt lat="45.72434" lon="4.61301">
        <ele>662.96997070312</ele>
        <time>2011-11-11T11:01:05Z</time>
      </trkpt>
      <trkpt lat="45.72435" lon="4.61317">
        <ele>661.96801757812</ele>
        <time>2011-11-11T11:01:07Z</time>
      </trkpt>
      <trkpt lat="45.72443" lon="4.61344">
        <ele>660.46502685547</ele>
        <time>2011-11-11T11:01:10Z</time>
      </trkpt>
      <trkpt lat="45.72453" lon="4.61409">
        <ele>654.96197509766</ele>
        <time>2011-11-11T11:01:15Z</time>
      </trkpt>
      <trkpt lat="45.72469" lon="4.61451">
        <ele>649.85498046875</ele>
        <time>2011-11-11T11:01:19Z</time>
      </trkpt>
      <trkpt lat="45.72496" lon="4.61505">
        <ele>643.21099853516</ele>
        <time>2011-11-11T11:01:24Z</time>
      </trkpt>
      <trkpt lat="45.72522" lon="4.6156">
        <ele>636.36199951172</ele>
        <time>2011-11-11T11:01:29Z</time>
      </trkpt>
      <trkpt lat="45.72538" lon="4.61604">
        <ele>631.39001464844</ele>
        <time>2011-11-11T11:01:33Z</time>
      </trkpt>
      <trkpt lat="45.72544" lon="4.61643">
        <ele>629.13201904297</ele>
        <time>2011-11-11T11:01:36Z</time>
      </trkpt>
      <trkpt lat="45.72546" lon="4.61726">
        <ele>623.45098876953</ele>
        <time>2011-11-11T11:01:42Z</time>
      </trkpt>
      <trkpt lat="45.72551" lon="4.61794">
        <ele>618.30798339844</ele>
        <time>2011-11-11T11:01:47Z</time>
      </trkpt>
      <trkpt lat="45.72545" lon="4.61828">
        <ele>615.06298828125</ele>
        <time>2011-11-11T11:01:50Z</time>
      </trkpt>
      <trkpt lat="45.72535" lon="4.61859">
        <ele>611.26300048828</ele>
        <time>2011-11-11T11:01:53Z</time>
      </trkpt>
      <trkpt lat="45.7253" lon="4.6189">
        <ele>605.00799560547</ele>
        <time>2011-11-11T11:01:57Z</time>
      </trkpt>
      <trkpt lat="45.72537" lon="4.61903">
        <ele>603.65899658203</ele>
        <time>2011-11-11T11:01:59Z</time>
      </trkpt>
      <trkpt lat="45.72549" lon="4.61916">
        <ele>600.99401855469</ele>
        <time>2011-11-11T11:02:01Z</time>
      </trkpt>
      <trkpt lat="45.72565" lon="4.61926">
        <ele>598.60400390625</ele>
        <time>2011-11-11T11:02:03Z</time>
      </trkpt>
      <trkpt lat="45.72609" lon="4.61938">
        <ele>593.73101806641</ele>
        <time>2011-11-11T11:02:08Z</time>
      </trkpt>
      <trkpt lat="45.7264" lon="4.61969">
        <ele>589.86297607422</ele>
        <time>2011-11-11T11:02:13Z</time>
      </trkpt>
      <trkpt lat="45.7268" lon="4.6202">
        <ele>583.45098876953</ele>
        <time>2011-11-11T11:02:19Z</time>
      </trkpt>
      <trkpt lat="45.72691" lon="4.62034">
        <ele>580.98498535156</ele>
        <time>2011-11-11T11:02:21Z</time>
      </trkpt>
      <trkpt lat="45.72718" lon="4.62059">
        <ele>577.34197998047</ele>
        <time>2011-11-11T11:02:25Z</time>
      </trkpt>
      <trkpt lat="45.72731" lon="4.62068">
        <ele>574.97100830078</ele>
        <time>2011-11-11T11:02:27Z</time>
      </trkpt>
      <trkpt lat="45.72746" lon="4.62081">
        <ele>570.22802734375</ele>
        <time>2011-11-11T11:02:31Z</time>
      </trkpt>
      <trkpt lat="45.72746" lon="4.62081">
        <ele>567.21600341797</ele>
        <time>2011-11-11T11:02:34Z</time>
      </trkpt>
      <trkpt lat="45.72742" lon="4.62077">
        <ele>565.68200683594</ele>
        <time>2011-11-11T11:02:40Z</time>
      </trkpt>
      <trkpt lat="45.72739" lon="4.62069">
        <ele>567.10302734375</ele>
        <time>2011-11-11T11:02:47Z</time>
      </trkpt>
      <trkpt lat="45.72738" lon="4.62067">
        <ele>567.72497558594</ele>
        <time>2011-11-11T11:02:52Z</time>
      </trkpt>
      <trkpt lat="45.72736" lon="4.62065">
        <ele>567.83898925781</ele>
        <time>2011-11-11T11:03:46Z</time>
      </trkpt>
      <trkpt lat="45.7274" lon="4.62058">
        <ele>568.08099365234</ele>
        <time>2011-11-11T11:03:50Z</time>
      </trkpt>
      <trkpt lat="45.72747" lon="4.62047">
        <ele>569.31799316406</ele>
        <time>2011-11-11T11:03:56Z</time>
      </trkpt>
      <trkpt lat="45.72754" lon="4.62033">
        <ele>570.51501464844</ele>
        <time>2011-11-11T11:04:02Z</time>
      </trkpt>
      <trkpt lat="45.72759" lon="4.62018">
        <ele>571.15197753906</ele>
        <time>2011-11-11T11:04:07Z</time>
      </trkpt>
      <trkpt lat="45.7277" lon="4.61996">
        <ele>571.291015625</ele>
        <time>2011-11-11T11:04:13Z</time>
      </trkpt>
      <trkpt lat="45.7278" lon="4.61982">
        <ele>570.25701904297</ele>
        <time>2011-11-11T11:04:17Z</time>
      </trkpt>
      <trkpt lat="45.72781" lon="4.61978">
        <ele>569.81402587891</ele>
        <time>2011-11-11T11:04:18Z</time>
      </trkpt>
      <trkpt lat="45.72773" lon="4.61951">
        <ele>566.32800292969</ele>
        <time>2011-11-11T11:04:23Z</time>
      </trkpt>
      <trkpt lat="45.72769" lon="4.61926">
        <ele>562.65997314453</ele>
        <time>2011-11-11T11:04:27Z</time>
      </trkpt>
      <trkpt lat="45.7277" lon="4.61909">
        <ele>560.83001708984</ele>
        <time>2011-11-11T11:04:29Z</time>
      </trkpt>
      <trkpt lat="45.72789" lon="4.61863">
        <ele>558.47998046875</ele>
        <time>2011-11-11T11:04:34Z</time>
      </trkpt>
      <trkpt lat="45.72792" lon="4.6183">
        <ele>557.20001220703</ele>
        <time>2011-11-11T11:04:38Z</time>
      </trkpt>
      <trkpt lat="45.72785" lon="4.61787">
        <ele>555.38897705078</ele>
        <time>2011-11-11T11:04:43Z</time>
      </trkpt>
      <trkpt lat="45.72777" lon="4.61755">
        <ele>553.80401611328</ele>
        <time>2011-11-11T11:04:47Z</time>
      </trkpt>
      <trkpt lat="45.72763" lon="4.61723">
        <ele>552.64398193359</ele>
        <time>2011-11-11T11:04:52Z</time>
      </trkpt>
      <trkpt lat="45.72757" lon="4.61709">
        <ele>552.5419921875</ele>
        <time>2011-11-11T11:04:54Z</time>
      </trkpt>
      <trkpt lat="45.72748" lon="4.61681">
        <ele>552.78497314453</ele>
        <time>2011-11-11T11:04:58Z</time>
      </trkpt>
      <trkpt lat="45.72755" lon="4.61657">
        <ele>552.58697509766</ele>
        <time>2011-11-11T11:05:02Z</time>
      </trkpt>
      <trkpt lat="45.72761" lon="4.61654">
        <ele>552.49700927734</ele>
        <time>2011-11-11T11:05:03Z</time>
      </trkpt>
      <trkpt lat="45.72792" lon="4.61633">
        <ele>552.29901123047</ele>
        <time>2011-11-11T11:05:09Z</time>
      </trkpt>
      <trkpt lat="45.7281" lon="4.61635">
        <ele>552.71099853516</ele>
        <time>2011-11-11T11:05:13Z</time>
      </trkpt>
      <trkpt lat="45.72834" lon="4.61662">
        <ele>552.91802978516</ele>
        <time>2011-11-11T11:05:18Z</time>
      </trkpt>
      <trkpt lat="45.72861" lon="4.61691">
        <ele>552.76202392578</ele>
        <time>2011-11-11T11:05:24Z</time>
      </trkpt>
      <trkpt lat="45.7287" lon="4.61698">
        <ele>552.64801025391</ele>
        <time>2011-11-11T11:05:26Z</time>
      </trkpt>
      <trkpt lat="45.72879" lon="4.61706">
        <ele>552.59399414062</ele>
        <time>2011-11-11T11:05:28Z</time>
      </trkpt>
      <trkpt lat="45.72887" lon="4.61712">
        <ele>552.64099121094</ele>
        <time>2011-11-11T11:05:30Z</time>
      </trkpt>
      <trkpt lat="45.72912" lon="4.61725">
        <ele>553.47998046875</ele>
        <time>2011-11-11T11:05:36Z</time>
      </trkpt>
      <trkpt lat="45.72934" lon="4.61729">
        <ele>554.28802490234</ele>
        <time>2011-11-11T11:05:41Z</time>
      </trkpt>
      <trkpt lat="45.72947" lon="4.61733">
        <ele>555.39599609375</ele>
        <time>2011-11-11T11:05:46Z</time>
      </trkpt>
      <trkpt lat="45.72959" lon="4.61741">
        <ele>557.22900390625</ele>
        <time>2011-11-11T11:05:53Z</time>
      </trkpt>
      <trkpt lat="45.72971" lon="4.61747">
        <ele>558.43597412109</ele>
        <time>2011-11-11T11:06:00Z</time>
      </trkpt>
      <trkpt lat="45.72983" lon="4.61752">
        <ele>560.14697265625</ele>
        <time>2011-11-11T11:06:07Z</time>
      </trkpt>
      <trkpt lat="45.72994" lon="4.61747">
        <ele>561.69299316406</ele>
        <time>2011-11-11T11:06:13Z</time>
      </trkpt>
      <trkpt lat="45.73002" lon="4.61736">
        <ele>562.19897460938</ele>
        <time>2011-11-11T11:06:18Z</time>
      </trkpt>
      <trkpt lat="45.7301" lon="4.61722">
        <ele>562.041015625</ele>
        <time>2011-11-11T11:06:22Z</time>
      </trkpt>
      <trkpt lat="45.73024" lon="4.61704">
        <ele>560.23901367188</ele>
        <time>2011-11-11T11:06:27Z</time>
      </trkpt>
      <trkpt lat="45.73033" lon="4.61692">
        <ele>558.13397216797</ele>
        <time>2011-11-11T11:06:30Z</time>
      </trkpt>
      <trkpt lat="45.73042" lon="4.61685">
        <ele>556.60400390625</ele>
        <time>2011-11-11T11:06:32Z</time>
      </trkpt>
      <trkpt lat="45.73062" lon="4.61675">
        <ele>553.12200927734</ele>
        <time>2011-11-11T11:06:36Z</time>
      </trkpt>
      <trkpt lat="45.7307" lon="4.61685">
        <ele>550.69897460938</ele>
        <time>2011-11-11T11:06:40Z</time>
      </trkpt>
      <trkpt lat="45.7307" lon="4.61688">
        <ele>550.05603027344</ele>
        <time>2011-11-11T11:06:41Z</time>
      </trkpt>
      <trkpt lat="45.73069" lon="4.61694">
        <ele>548.35198974609</ele>
        <time>2011-11-11T11:06:46Z</time>
      </trkpt>
      <trkpt lat="45.73075" lon="4.61709">
        <ele>548.34301757812</ele>
        <time>2011-11-11T11:06:51Z</time>
      </trkpt>
      <trkpt lat="45.7308" lon="4.61732">
        <ele>548.75799560547</ele>
        <time>2011-11-11T11:06:57Z</time>
      </trkpt>
      <trkpt lat="45.73085" lon="4.61754">
        <ele>548.625</ele>
        <time>2011-11-11T11:07:03Z</time>
      </trkpt>
      <trkpt lat="45.73095" lon="4.61776">
        <ele>548.89501953125</ele>
        <time>2011-11-11T11:07:10Z</time>
      </trkpt>
      <trkpt lat="45.73107" lon="4.61795">
        <ele>549.57800292969</ele>
        <time>2011-11-11T11:07:17Z</time>
      </trkpt>
      <trkpt lat="45.73119" lon="4.61811">
        <ele>550.94799804688</ele>
        <time>2011-11-11T11:07:24Z</time>
      </trkpt>
      <trkpt lat="45.73135" lon="4.6184">
        <ele>552.19897460938</ele>
        <time>2011-11-11T11:07:34Z</time>
      </trkpt>
      <trkpt lat="45.73143" lon="4.61858">
        <ele>553.08599853516</ele>
        <time>2011-11-11T11:07:41Z</time>
      </trkpt>
      <trkpt lat="45.73147" lon="4.61874">
        <ele>554.44201660156</ele>
        <time>2011-11-11T11:07:48Z</time>
      </trkpt>
      <trkpt lat="45.7315" lon="4.61894">
        <ele>555.95697021484</ele>
        <time>2011-11-11T11:07:56Z</time>
      </trkpt>
      <trkpt lat="45.7315" lon="4.61913">
        <ele>557.12200927734</ele>
        <time>2011-11-11T11:08:03Z</time>
      </trkpt>
      <trkpt lat="45.73148" lon="4.61945">
        <ele>558.01599121094</ele>
        <time>2011-11-11T11:08:13Z</time>
      </trkpt>
      <trkpt lat="45.73146" lon="4.6197">
        <ele>558.77801513672</ele>
        <time>2011-11-11T11:08:21Z</time>
      </trkpt>
      <trkpt lat="45.73147" lon="4.61995">
        <ele>560.25500488281</ele>
        <time>2011-11-11T11:08:30Z</time>
      </trkpt>
      <trkpt lat="45.73149" lon="4.62016">
        <ele>562.21899414062</ele>
        <time>2011-11-11T11:08:38Z</time>
      </trkpt>
      <trkpt lat="45.73155" lon="4.6204">
        <ele>563.50799560547</ele>
        <time>2011-11-11T11:08:47Z</time>
      </trkpt>
      <trkpt lat="45.73168" lon="4.62066">
        <ele>565.23999023438</ele>
        <time>2011-11-11T11:08:58Z</time>
      </trkpt>
      <trkpt lat="45.73176" lon="4.62078">
        <ele>565.82299804688</ele>
        <time>2011-11-11T11:09:04Z</time>
      </trkpt>
      <trkpt lat="45.73185" lon="4.62082">
        <ele>566.12200927734</ele>
        <time>2011-11-11T11:09:09Z</time>
      </trkpt>
      <trkpt lat="45.73198" lon="4.62089">
        <ele>566.55297851562</ele>
        <time>2011-11-11T11:09:14Z</time>
      </trkpt>
      <trkpt lat="45.73217" lon="4.62102">
        <ele>566.77398681641</ele>
        <time>2011-11-11T11:09:21Z</time>
      </trkpt>
      <trkpt lat="45.73226" lon="4.6211">
        <ele>567.38299560547</ele>
        <time>2011-11-11T11:09:26Z</time>
      </trkpt>
      <trkpt lat="45.73239" lon="4.62128">
        <ele>569.24102783203</ele>
        <time>2011-11-11T11:09:35Z</time>
      </trkpt>
      <trkpt lat="45.73247" lon="4.62145">
        <ele>570.99499511719</ele>
        <time>2011-11-11T11:09:43Z</time>
      </trkpt>
      <trkpt lat="45.7325" lon="4.62163">
        <ele>572.93298339844</ele>
        <time>2011-11-11T11:09:51Z</time>
      </trkpt>
      <trkpt lat="45.73252" lon="4.62182">
        <ele>574.32897949219</ele>
        <time>2011-11-11T11:09:59Z</time>
      </trkpt>
      <trkpt lat="45.73253" lon="4.62201">
        <ele>575.17199707031</ele>
        <time>2011-11-11T11:10:07Z</time>
      </trkpt>
      <trkpt lat="45.73254" lon="4.62225">
        <ele>576.57501220703</ele>
        <time>2011-11-11T11:10:17Z</time>
      </trkpt>
      <trkpt lat="45.73254" lon="4.62245">
        <ele>577.68701171875</ele>
        <time>2011-11-11T11:10:25Z</time>
      </trkpt>
      <trkpt lat="45.73254" lon="4.62263">
        <ele>579.19201660156</ele>
        <time>2011-11-11T11:10:33Z</time>
      </trkpt>
      <trkpt lat="45.73252" lon="4.62275">
        <ele>580.65600585938</ele>
        <time>2011-11-11T11:10:39Z</time>
      </trkpt>
      <trkpt lat="45.73252" lon="4.62286">
        <ele>581.82800292969</ele>
        <time>2011-11-11T11:10:44Z</time>
      </trkpt>
      <trkpt lat="45.73252" lon="4.62292">
        <ele>582.67901611328</ele>
        <time>2011-11-11T11:10:48Z</time>
      </trkpt>
      <trkpt lat="45.73253" lon="4.62309">
        <ele>583.89801025391</ele>
        <time>2011-11-11T11:10:56Z</time>
      </trkpt>
      <trkpt lat="45.73256" lon="4.62329">
        <ele>585.45697021484</ele>
        <time>2011-11-11T11:11:04Z</time>
      </trkpt>
      <trkpt lat="45.73259" lon="4.62348">
        <ele>586.69897460938</ele>
        <time>2011-11-11T11:11:13Z</time>
      </trkpt>
      <trkpt lat="45.7326" lon="4.62363">
        <ele>587.95397949219</ele>
        <time>2011-11-11T11:11:20Z</time>
      </trkpt>
      <trkpt lat="45.73261" lon="4.6238">
        <ele>589.56402587891</ele>
        <time>2011-11-11T11:11:29Z</time>
      </trkpt>
      <trkpt lat="45.73262" lon="4.62398">
        <ele>590.35900878906</ele>
        <time>2011-11-11T11:11:36Z</time>
      </trkpt>
      <trkpt lat="45.73261" lon="4.62414">
        <ele>590.73101806641</ele>
        <time>2011-11-11T11:11:43Z</time>
      </trkpt>
      <trkpt lat="45.73259" lon="4.62439">
        <ele>591.98999023438</ele>
        <time>2011-11-11T11:11:52Z</time>
      </trkpt>
      <trkpt lat="45.7326" lon="4.6246">
        <ele>592.541015625</ele>
        <time>2011-11-11T11:11:59Z</time>
      </trkpt>
      <trkpt lat="45.73267" lon="4.62476">
        <ele>593.39697265625</ele>
        <time>2011-11-11T11:12:06Z</time>
      </trkpt>
      <trkpt lat="45.73279" lon="4.62494">
        <ele>594.12097167969</ele>
        <time>2011-11-11T11:12:15Z</time>
      </trkpt>
      <trkpt lat="45.73291" lon="4.62514">
        <ele>594.95501708984</ele>
        <time>2011-11-11T11:12:25Z</time>
      </trkpt>
      <trkpt lat="45.73293" lon="4.62533">
        <ele>595.541015625</ele>
        <time>2011-11-11T11:12:33Z</time>
      </trkpt>
      <trkpt lat="45.73288" lon="4.62545">
        <ele>596.04901123047</ele>
        <time>2011-11-11T11:12:38Z</time>
      </trkpt>
      <trkpt lat="45.73274" lon="4.62567">
        <ele>597.60302734375</ele>
        <time>2011-11-11T11:12:46Z</time>
      </trkpt>
      <trkpt lat="45.73261" lon="4.62594">
        <ele>597.57299804688</ele>
        <time>2011-11-11T11:12:55Z</time>
      </trkpt>
      <trkpt lat="45.73247" lon="4.62622">
        <ele>598.19000244141</ele>
        <time>2011-11-11T11:13:04Z</time>
      </trkpt>
      <trkpt lat="45.73233" lon="4.62652">
        <ele>599.13598632812</ele>
        <time>2011-11-11T11:13:13Z</time>
      </trkpt>
      <trkpt lat="45.73219" lon="4.6268">
        <ele>599.51000976562</ele>
        <time>2011-11-11T11:13:22Z</time>
      </trkpt>
      <trkpt lat="45.73206" lon="4.62707">
        <ele>600.64697265625</ele>
        <time>2011-11-11T11:13:31Z</time>
      </trkpt>
      <trkpt lat="45.73198" lon="4.62727">
        <ele>601.83599853516</ele>
        <time>2011-11-11T11:13:38Z</time>
      </trkpt>
      <trkpt lat="45.73193" lon="4.62752">
        <ele>602.24200439453</ele>
        <time>2011-11-11T11:13:45Z</time>
      </trkpt>
      <trkpt lat="45.73185" lon="4.6279">
        <ele>601.32800292969</ele>
        <time>2011-11-11T11:13:51Z</time>
      </trkpt>
      <trkpt lat="45.73176" lon="4.62814">
        <ele>600.26098632812</ele>
        <time>2011-11-11T11:13:54Z</time>
      </trkpt>
      <trkpt lat="45.73171" lon="4.62832">
        <ele>599.38702392578</ele>
        <time>2011-11-11T11:13:56Z</time>
      </trkpt>
      <trkpt lat="45.73161" lon="4.62899">
        <ele>596.43701171875</ele>
        <time>2011-11-11T11:14:03Z</time>
      </trkpt>
      <trkpt lat="45.7316" lon="4.6292">
        <ele>595.69396972656</ele>
        <time>2011-11-11T11:14:05Z</time>
      </trkpt>
      <trkpt lat="45.73157" lon="4.62986">
        <ele>593.50402832031</ele>
        <time>2011-11-11T11:14:11Z</time>
      </trkpt>
      <trkpt lat="45.73158" lon="4.63015">
        <ele>592.73400878906</ele>
        <time>2011-11-11T11:14:14Z</time>
      </trkpt>
      <trkpt lat="45.73166" lon="4.63048">
        <ele>591.61102294922</ele>
        <time>2011-11-11T11:14:18Z</time>
      </trkpt>
      <trkpt lat="45.73178" lon="4.6307">
        <ele>590.77301025391</ele>
        <time>2011-11-11T11:14:21Z</time>
      </trkpt>
      <trkpt lat="45.73202" lon="4.63102">
        <ele>587.72399902344</ele>
        <time>2011-11-11T11:14:26Z</time>
      </trkpt>
      <trkpt lat="45.73211" lon="4.63115">
        <ele>583.23999023438</ele>
        <time>2011-11-11T11:14:30Z</time>
      </trkpt>
      <trkpt lat="45.73217" lon="4.63128">
        <ele>578.98901367188</ele>
        <time>2011-11-11T11:14:34Z</time>
      </trkpt>
      <trkpt lat="45.73228" lon="4.63141">
        <ele>575.47601318359</ele>
        <time>2011-11-11T11:14:39Z</time>
      </trkpt>
      <trkpt lat="45.73232" lon="4.63149">
        <ele>573.47497558594</ele>
        <time>2011-11-11T11:14:41Z</time>
      </trkpt>
      <trkpt lat="45.73233" lon="4.63165">
        <ele>567.01000976562</ele>
        <time>2011-11-11T11:14:48Z</time>
      </trkpt>
      <trkpt lat="45.73234" lon="4.63181">
        <ele>564.18798828125</ele>
        <time>2011-11-11T11:14:53Z</time>
      </trkpt>
      <trkpt lat="45.73231" lon="4.63196">
        <ele>561.57202148438</ele>
        <time>2011-11-11T11:14:57Z</time>
      </trkpt>
      <trkpt lat="45.73236" lon="4.63208">
        <ele>559.00402832031</ele>
        <time>2011-11-11T11:15:01Z</time>
      </trkpt>
      <trkpt lat="45.73242" lon="4.6322">
        <ele>557.64599609375</ele>
        <time>2011-11-11T11:15:04Z</time>
      </trkpt>
      <trkpt lat="45.7325" lon="4.63239">
        <ele>553.97900390625</ele>
        <time>2011-11-11T11:15:08Z</time>
      </trkpt>
      <trkpt lat="45.73256" lon="4.63253">
        <ele>550.60101318359</ele>
        <time>2011-11-11T11:15:12Z</time>
      </trkpt>
      <trkpt lat="45.73261" lon="4.63268">
        <ele>548.041015625</ele>
        <time>2011-11-11T11:15:16Z</time>
      </trkpt>
      <trkpt lat="45.73265" lon="4.63277">
        <ele>546.75897216797</ele>
        <time>2011-11-11T11:15:18Z</time>
      </trkpt>
      <trkpt lat="45.73281" lon="4.63297">
        <ele>542.46600341797</ele>
        <time>2011-11-11T11:15:23Z</time>
      </trkpt>
      <trkpt lat="45.73283" lon="4.63315">
        <ele>538.47698974609</ele>
        <time>2011-11-11T11:15:28Z</time>
      </trkpt>
      <trkpt lat="45.73284" lon="4.63324">
        <ele>537.84698486328</ele>
        <time>2011-11-11T11:15:30Z</time>
      </trkpt>
      <trkpt lat="45.7329" lon="4.63345">
        <ele>534.98297119141</ele>
        <time>2011-11-11T11:15:35Z</time>
      </trkpt>
      <trkpt lat="45.73292" lon="4.6336">
        <ele>532.88598632812</ele>
        <time>2011-11-11T11:15:39Z</time>
      </trkpt>
      <trkpt lat="45.73295" lon="4.6338">
        <ele>530.69500732422</ele>
        <time>2011-11-11T11:15:44Z</time>
      </trkpt>
      <trkpt lat="45.73299" lon="4.63402">
        <ele>529.09802246094</ele>
        <time>2011-11-11T11:15:49Z</time>
      </trkpt>
      <trkpt lat="45.73299" lon="4.63432">
        <ele>528.19299316406</ele>
        <time>2011-11-11T11:15:55Z</time>
      </trkpt>
      <trkpt lat="45.73299" lon="4.63453">
        <ele>527.46899414062</ele>
        <time>2011-11-11T11:16:00Z</time>
      </trkpt>
      <trkpt lat="45.73301" lon="4.63478">
        <ele>526.28997802734</ele>
        <time>2011-11-11T11:16:05Z</time>
      </trkpt>
      <trkpt lat="45.73302" lon="4.63498">
        <ele>525.15997314453</ele>
        <time>2011-11-11T11:16:08Z</time>
      </trkpt>
      <trkpt lat="45.73309" lon="4.63548">
        <ele>522.04901123047</ele>
        <time>2011-11-11T11:16:13Z</time>
      </trkpt>
      <trkpt lat="45.73317" lon="4.63625">
        <ele>517.44299316406</ele>
        <time>2011-11-11T11:16:19Z</time>
      </trkpt>
      <trkpt lat="45.73317" lon="4.63637">
        <ele>517.44201660156</ele>
        <time>2011-11-11T11:16:20Z</time>
      </trkpt>
      <trkpt lat="45.7332" lon="4.63678">
        <ele>515.04901123047</ele>
        <time>2011-11-11T11:16:24Z</time>
      </trkpt>
      <trkpt lat="45.73322" lon="4.63687">
        <ele>514.48297119141</ele>
        <time>2011-11-11T11:16:25Z</time>
      </trkpt>
      <trkpt lat="45.73332" lon="4.63729">
        <ele>510.86898803711</ele>
        <time>2011-11-11T11:16:30Z</time>
      </trkpt>
      <trkpt lat="45.73335" lon="4.63737">
        <ele>510.04501342773</ele>
        <time>2011-11-11T11:16:31Z</time>
      </trkpt>
      <trkpt lat="45.73339" lon="4.63748">
        <ele>508.57800292969</ele>
        <time>2011-11-11T11:16:33Z</time>
      </trkpt>
      <trkpt lat="45.73344" lon="4.63782">
        <ele>504.27301025391</ele>
        <time>2011-11-11T11:16:38Z</time>
      </trkpt>
      <trkpt lat="45.73353" lon="4.63831">
        <ele>498.85501098633</ele>
        <time>2011-11-11T11:16:44Z</time>
      </trkpt>
      <trkpt lat="45.73356" lon="4.63847">
        <ele>498.02700805664</ele>
        <time>2011-11-11T11:16:46Z</time>
      </trkpt>
      <trkpt lat="45.73368" lon="4.63897">
        <ele>492.78298950195</ele>
        <time>2011-11-11T11:16:52Z</time>
      </trkpt>
      <trkpt lat="45.7337" lon="4.63906">
        <ele>491.97198486328</ele>
        <time>2011-11-11T11:16:53Z</time>
      </trkpt>
      <trkpt lat="45.7338" lon="4.63951">
        <ele>487.03799438477</ele>
        <time>2011-11-11T11:16:58Z</time>
      </trkpt>
      <trkpt lat="45.73402" lon="4.63996">
        <ele>482.04598999023</ele>
        <time>2011-11-11T11:17:03Z</time>
      </trkpt>
      <trkpt lat="45.73408" lon="4.64005">
        <ele>481.00100708008</ele>
        <time>2011-11-11T11:17:04Z</time>
      </trkpt>
      <trkpt lat="45.73419" lon="4.64033">
        <ele>477.95901489258</ele>
        <time>2011-11-11T11:17:07Z</time>
      </trkpt>
      <trkpt lat="45.73439" lon="4.6407">
        <ele>474.41900634766</ele>
        <time>2011-11-11T11:17:11Z</time>
      </trkpt>
      <trkpt lat="45.73461" lon="4.64104">
        <ele>469.19299316406</ele>
        <time>2011-11-11T11:17:15Z</time>
      </trkpt>
      <trkpt lat="45.73466" lon="4.64112">
        <ele>467.77801513672</ele>
        <time>2011-11-11T11:17:16Z</time>
      </trkpt>
      <trkpt lat="45.73492" lon="4.6415">
        <ele>461.44799804688</ele>
        <time>2011-11-11T11:17:21Z</time>
      </trkpt>
      <trkpt lat="45.73502" lon="4.64164">
        <ele>458.6780090332</ele>
        <time>2011-11-11T11:17:23Z</time>
      </trkpt>
      <trkpt lat="45.73516" lon="4.64187">
        <ele>454.39599609375</ele>
        <time>2011-11-11T11:17:26Z</time>
      </trkpt>
      <trkpt lat="45.73538" lon="4.64219">
        <ele>446.85198974609</ele>
        <time>2011-11-11T11:17:31Z</time>
      </trkpt>
      <trkpt lat="45.73564" lon="4.6426">
        <ele>441.05599975586</ele>
        <time>2011-11-11T11:17:36Z</time>
      </trkpt>
      <trkpt lat="45.73592" lon="4.643">
        <ele>434.13900756836</ele>
        <time>2011-11-11T11:17:41Z</time>
      </trkpt>
      <trkpt lat="45.73618" lon="4.64341">
        <ele>427.34201049805</ele>
        <time>2011-11-11T11:17:46Z</time>
      </trkpt>
      <trkpt lat="45.73622" lon="4.6435">
        <ele>426.09600830078</ele>
        <time>2011-11-11T11:17:47Z</time>
      </trkpt>
      <trkpt lat="45.73642" lon="4.64381">
        <ele>420.96099853516</ele>
        <time>2011-11-11T11:17:51Z</time>
      </trkpt>
      <trkpt lat="45.7367" lon="4.64423">
        <ele>413.70001220703</ele>
        <time>2011-11-11T11:17:57Z</time>
      </trkpt>
      <trkpt lat="45.73677" lon="4.64437">
        <ele>409.90798950195</ele>
        <time>2011-11-11T11:18:00Z</time>
      </trkpt>
      <trkpt lat="45.73677" lon="4.64443">
        <ele>408.72500610352</ele>
        <time>2011-11-11T11:18:02Z</time>
      </trkpt>
      <trkpt lat="45.73682" lon="4.6445">
        <ele>405.35598754883</ele>
        <time>2011-11-11T11:18:07Z</time>
      </trkpt>
      <trkpt lat="45.73683" lon="4.64443">
        <ele>404.97198486328</ele>
        <time>2011-11-11T11:18:10Z</time>
      </trkpt>
      <trkpt lat="45.7368" lon="4.64444">
        <ele>405.02301025391</ele>
        <time>2011-11-11T11:18:13Z</time>
      </trkpt>
      <trkpt lat="45.7368" lon="4.64448">
        <ele>405.11199951172</ele>
        <time>2011-11-11T11:18:15Z</time>
      </trkpt>
      <trkpt lat="45.7368" lon="4.6445">
        <ele>404.61700439453</ele>
        <time>2011-11-11T11:18:22Z</time>
      </trkpt>
      <trkpt lat="45.7368" lon="4.64455">
        <ele>404.64300537109</ele>
        <time>2011-11-11T11:18:46Z</time>
      </trkpt>
      <trkpt lat="45.73685" lon="4.64476">
        <ele>404.08401489258</ele>
        <time>2011-11-11T11:18:52Z</time>
      </trkpt>
      <trkpt lat="45.73687" lon="4.64481">
        <ele>403.83801269531</ele>
        <time>2011-11-11T11:18:53Z</time>
      </trkpt>
      <trkpt lat="45.73697" lon="4.64523">
        <ele>401.31500244141</ele>
        <time>2011-11-11T11:18:59Z</time>
      </trkpt>
      <trkpt lat="45.73713" lon="4.64561">
        <ele>399.05499267578</ele>
        <time>2011-11-11T11:19:03Z</time>
      </trkpt>
      <trkpt lat="45.73727" lon="4.64609">
        <ele>394.61999511719</ele>
        <time>2011-11-11T11:19:07Z</time>
      </trkpt>
      <trkpt lat="45.73742" lon="4.64686">
        <ele>388.4049987793</ele>
        <time>2011-11-11T11:19:12Z</time>
      </trkpt>
      <trkpt lat="45.7375" lon="4.64782">
        <ele>383.2619934082</ele>
        <time>2011-11-11T11:19:18Z</time>
      </trkpt>
      <trkpt lat="45.7375" lon="4.64796">
        <ele>382.26501464844</ele>
        <time>2011-11-11T11:19:19Z</time>
      </trkpt>
      <trkpt lat="45.73751" lon="4.6486">
        <ele>379.42098999023</ele>
        <time>2011-11-11T11:19:24Z</time>
      </trkpt>
      <trkpt lat="45.73758" lon="4.6489">
        <ele>378.76098632812</ele>
        <time>2011-11-11T11:19:27Z</time>
      </trkpt>
      <trkpt lat="45.73772" lon="4.64922">
        <ele>378.63900756836</ele>
        <time>2011-11-11T11:19:32Z</time>
      </trkpt>
      <trkpt lat="45.73783" lon="4.64937">
        <ele>378.93600463867</ele>
        <time>2011-11-11T11:19:37Z</time>
      </trkpt>
      <trkpt lat="45.73793" lon="4.64954">
        <ele>379.47299194336</ele>
        <time>2011-11-11T11:19:43Z</time>
      </trkpt>
      <trkpt lat="45.73804" lon="4.64971">
        <ele>380.5710144043</ele>
        <time>2011-11-11T11:19:50Z</time>
      </trkpt>
      <trkpt lat="45.73816" lon="4.64991">
        <ele>382.98098754883</ele>
        <time>2011-11-11T11:19:58Z</time>
      </trkpt>
      <trkpt lat="45.73821" lon="4.65014">
        <ele>385.76998901367</ele>
        <time>2011-11-11T11:20:06Z</time>
      </trkpt>
      <trkpt lat="45.73827" lon="4.65037">
        <ele>388.21701049805</ele>
        <time>2011-11-11T11:20:15Z</time>
      </trkpt>
      <trkpt lat="45.73833" lon="4.65062">
        <ele>390.61801147461</ele>
        <time>2011-11-11T11:20:25Z</time>
      </trkpt>
      <trkpt lat="45.73838" lon="4.65078">
        <ele>391.91500854492</ele>
        <time>2011-11-11T11:20:31Z</time>
      </trkpt>
      <trkpt lat="45.73843" lon="4.65096">
        <ele>392.54098510742</ele>
        <time>2011-11-11T11:20:38Z</time>
      </trkpt>
      <trkpt lat="45.73847" lon="4.6511">
        <ele>392.98999023438</ele>
        <time>2011-11-11T11:20:44Z</time>
      </trkpt>
      <trkpt lat="45.73857" lon="4.65131">
        <ele>393.43798828125</ele>
        <time>2011-11-11T11:20:51Z</time>
      </trkpt>
      <trkpt lat="45.73868" lon="4.65152">
        <ele>393.92098999023</ele>
        <time>2011-11-11T11:20:59Z</time>
      </trkpt>
      <trkpt lat="45.73886" lon="4.65172">
        <ele>394.45999145508</ele>
        <time>2011-11-11T11:21:08Z</time>
      </trkpt>
      <trkpt lat="45.73902" lon="4.65185">
        <ele>394.54901123047</ele>
        <time>2011-11-11T11:21:15Z</time>
      </trkpt>
      <trkpt lat="45.73919" lon="4.652">
        <ele>394.84698486328</ele>
        <time>2011-11-11T11:21:21Z</time>
      </trkpt>
      <trkpt lat="45.73929" lon="4.6522">
        <ele>394.56298828125</ele>
        <time>2011-11-11T11:21:26Z</time>
      </trkpt>
      <trkpt lat="45.73927" lon="4.65244">
        <ele>394.48999023438</ele>
        <time>2011-11-11T11:21:31Z</time>
      </trkpt>
      <trkpt lat="45.73917" lon="4.6526">
        <ele>394.55700683594</ele>
        <time>2011-11-11T11:21:36Z</time>
      </trkpt>
      <trkpt lat="45.73893" lon="4.65283">
        <ele>394.4700012207</ele>
        <time>2011-11-11T11:21:45Z</time>
      </trkpt>
      <trkpt lat="45.73871" lon="4.65305">
        <ele>394.70001220703</ele>
        <time>2011-11-11T11:21:53Z</time>
      </trkpt>
      <trkpt lat="45.73856" lon="4.65333">
        <ele>395.20001220703</ele>
        <time>2011-11-11T11:22:01Z</time>
      </trkpt>
      <trkpt lat="45.73846" lon="4.65365">
        <ele>396.64099121094</ele>
        <time>2011-11-11T11:22:10Z</time>
      </trkpt>
      <trkpt lat="45.7384" lon="4.65387">
        <ele>398.42199707031</ele>
        <time>2011-11-11T11:22:17Z</time>
      </trkpt>
      <trkpt lat="45.73836" lon="4.65402">
        <ele>399.26400756836</ele>
        <time>2011-11-11T11:22:22Z</time>
      </trkpt>
      <trkpt lat="45.73832" lon="4.65435">
        <ele>400.71398925781</ele>
        <time>2011-11-11T11:22:29Z</time>
      </trkpt>
      <trkpt lat="45.73828" lon="4.6547">
        <ele>400.96899414062</ele>
        <time>2011-11-11T11:22:36Z</time>
      </trkpt>
      <trkpt lat="45.73827" lon="4.65496">
        <ele>400.51699829102</ele>
        <time>2011-11-11T11:22:40Z</time>
      </trkpt>
      <trkpt lat="45.73829" lon="4.65531">
        <ele>400.12200927734</ele>
        <time>2011-11-11T11:22:45Z</time>
      </trkpt>
      <trkpt lat="45.73832" lon="4.65551">
        <ele>399.81799316406</ele>
        <time>2011-11-11T11:22:48Z</time>
      </trkpt>
      <trkpt lat="45.73832" lon="4.6557">
        <ele>399.53201293945</ele>
        <time>2011-11-11T11:22:51Z</time>
      </trkpt>
      <trkpt lat="45.73829" lon="4.65589">
        <ele>399.30999755859</ele>
        <time>2011-11-11T11:22:54Z</time>
      </trkpt>
      <trkpt lat="45.73814" lon="4.65632">
        <ele>399.73400878906</ele>
        <time>2011-11-11T11:23:02Z</time>
      </trkpt>
      <trkpt lat="45.73803" lon="4.65665">
        <ele>400.80700683594</ele>
        <time>2011-11-11T11:23:10Z</time>
      </trkpt>
      <trkpt lat="45.73808" lon="4.65673">
        <ele>401.6669921875</ele>
        <time>2011-11-11T11:23:15Z</time>
      </trkpt>
      <trkpt lat="45.73809" lon="4.65674">
        <ele>401.80899047852</ele>
        <time>2011-11-11T11:23:16Z</time>
      </trkpt>
      <trkpt lat="45.73818" lon="4.65678">
        <ele>402.74700927734</ele>
        <time>2011-11-11T11:23:21Z</time>
      </trkpt>
      <trkpt lat="45.7383" lon="4.65684">
        <ele>404.22900390625</ele>
        <time>2011-11-11T11:23:27Z</time>
      </trkpt>
      <trkpt lat="45.73833" lon="4.65685">
        <ele>404.46798706055</ele>
        <time>2011-11-11T11:23:28Z</time>
      </trkpt>
      <trkpt lat="45.73846" lon="4.65694">
        <ele>405.9280090332</ele>
        <time>2011-11-11T11:23:35Z</time>
      </trkpt>
      <trkpt lat="45.73856" lon="4.65706">
        <ele>407.37298583984</ele>
        <time>2011-11-11T11:23:42Z</time>
      </trkpt>
      <trkpt lat="45.73871" lon="4.6571">
        <ele>409.03900146484</ele>
        <time>2011-11-11T11:23:50Z</time>
      </trkpt>
      <trkpt lat="45.73889" lon="4.65714">
        <ele>411.16799926758</ele>
        <time>2011-11-11T11:23:59Z</time>
      </trkpt>
      <trkpt lat="45.73891" lon="4.65716">
        <ele>411.82598876953</ele>
        <time>2011-11-11T11:24:01Z</time>
      </trkpt>
      <trkpt lat="45.73901" lon="4.6572">
        <ele>413.21499633789</ele>
        <time>2011-11-11T11:24:08Z</time>
      </trkpt>
      <trkpt lat="45.73902" lon="4.65719">
        <ele>413.5719909668</ele>
        <time>2011-11-11T11:24:10Z</time>
      </trkpt>
      <trkpt lat="45.73898" lon="4.65712">
        <ele>414.13101196289</ele>
        <time>2011-11-11T11:24:15Z</time>
      </trkpt>
      <trkpt lat="45.73895" lon="4.65712">
        <ele>414.15399169922</ele>
        <time>2011-11-11T11:24:16Z</time>
      </trkpt>
    </trkseg>
  </trk>
</gpx>